<?xml version="1.0" encoding="UTF-8" standalone="no" ?>
<gpx xmlns="http://www.topografix.com/GPX/1/1" xmlns:xsi="http://www.w3.org/2001/XMLSchema-instance" xsi:schemaLocation="http://www.topografix.com/GPX/1/1 http://www.topografix.com/GPX/1/1/gpx.xsd" version="1.1" creator="VisuGPX - https://www.visugpx.com">
  <metadata>
    <name>83-D-Tourves</name>
    <desc><![CDATA[83-D-Tourves : les gorges du Caramy - St Probace
2026-05-24-GM]]></desc>
  </metadata>
  <trk>
    <name><![CDATA[2026-05-24-D-Tourves GM]]></name>
    <extensions>
      <line xmlns="http://www.topografix.com/GPX/gpx_style/0/2">
        <width>4</width>
      </line>
    </extensions>
    <trkseg>
      <trkpt lat="43.39069" lon="5.93188">
        <ele>279.3</ele>
        <time>2026-05-24T07:05:41.000Z</time>
      </trkpt>
      <trkpt lat="43.39069" lon="5.93188">
        <ele>279.3</ele>
        <time>2026-05-24T07:05:42.000Z</time>
      </trkpt>
      <trkpt lat="43.39069" lon="5.93188">
        <ele>279.3</ele>
        <time>2026-05-24T07:05:48.000Z</time>
      </trkpt>
      <trkpt lat="43.39069" lon="5.93188">
        <ele>279.4</ele>
        <time>2026-05-24T07:05:58.000Z</time>
      </trkpt>
      <trkpt lat="43.3907" lon="5.93186">
        <ele>279.3</ele>
        <time>2026-05-24T07:06:24.000Z</time>
      </trkpt>
      <trkpt lat="43.3907" lon="5.93186">
        <ele>279.3</ele>
        <time>2026-05-24T07:06:24.000Z</time>
      </trkpt>
      <trkpt lat="43.39071" lon="5.93185">
        <ele>279.1</ele>
        <time>2026-05-24T07:07:14.000Z</time>
      </trkpt>
      <trkpt lat="43.39071" lon="5.93184">
        <ele>279</ele>
        <time>2026-05-24T07:08:12.000Z</time>
      </trkpt>
      <trkpt lat="43.39071" lon="5.93184">
        <ele>279</ele>
        <time>2026-05-24T07:08:22.000Z</time>
      </trkpt>
      <trkpt lat="43.39071" lon="5.93184">
        <ele>279</ele>
        <time>2026-05-24T07:08:32.000Z</time>
      </trkpt>
      <trkpt lat="43.39071" lon="5.93184">
        <ele>279</ele>
        <time>2026-05-24T07:08:37.000Z</time>
      </trkpt>
      <trkpt lat="43.39063" lon="5.9319">
        <ele>278.9</ele>
        <time>2026-05-24T07:08:59.000Z</time>
      </trkpt>
      <trkpt lat="43.39054" lon="5.93195">
        <ele>278.7</ele>
        <time>2026-05-24T07:09:08.000Z</time>
      </trkpt>
      <trkpt lat="43.39045" lon="5.93191">
        <ele>278</ele>
        <time>2026-05-24T07:09:18.000Z</time>
      </trkpt>
      <trkpt lat="43.39038" lon="5.93182">
        <ele>277.2</ele>
        <time>2026-05-24T07:09:27.000Z</time>
      </trkpt>
      <trkpt lat="43.3903" lon="5.93176">
        <ele>276.5</ele>
        <time>2026-05-24T07:10:06.000Z</time>
      </trkpt>
      <trkpt lat="43.39021" lon="5.93169">
        <ele>276.5</ele>
        <time>2026-05-24T07:10:14.000Z</time>
      </trkpt>
      <trkpt lat="43.39013" lon="5.93161">
        <ele>276.6</ele>
        <time>2026-05-24T07:10:23.000Z</time>
      </trkpt>
      <trkpt lat="43.39008" lon="5.9315">
        <ele>276.6</ele>
        <time>2026-05-24T07:10:30.000Z</time>
      </trkpt>
      <trkpt lat="43.39002" lon="5.9314">
        <ele>276.7</ele>
        <time>2026-05-24T07:10:37.000Z</time>
      </trkpt>
      <trkpt lat="43.38996" lon="5.9313">
        <ele>276.8</ele>
        <time>2026-05-24T07:10:45.000Z</time>
      </trkpt>
      <trkpt lat="43.38987" lon="5.93123">
        <ele>276.9</ele>
        <time>2026-05-24T07:10:53.000Z</time>
      </trkpt>
      <trkpt lat="43.38977" lon="5.93121">
        <ele>276.8</ele>
        <time>2026-05-24T07:11:01.000Z</time>
      </trkpt>
      <trkpt lat="43.38968" lon="5.93124">
        <ele>276.7</ele>
        <time>2026-05-24T07:11:09.000Z</time>
      </trkpt>
      <trkpt lat="43.38959" lon="5.93122">
        <ele>276.4</ele>
        <time>2026-05-24T07:11:20.000Z</time>
      </trkpt>
      <trkpt lat="43.3895" lon="5.93125">
        <ele>276.2</ele>
        <time>2026-05-24T07:11:29.000Z</time>
      </trkpt>
      <trkpt lat="43.38944" lon="5.93135">
        <ele>276</ele>
        <time>2026-05-24T07:11:37.000Z</time>
      </trkpt>
      <trkpt lat="43.38938" lon="5.93146">
        <ele>276</ele>
        <time>2026-05-24T07:11:44.000Z</time>
      </trkpt>
      <trkpt lat="43.38932" lon="5.93155">
        <ele>275.9</ele>
        <time>2026-05-24T07:12:05.000Z</time>
      </trkpt>
      <trkpt lat="43.3893" lon="5.93163">
        <ele>275.5</ele>
        <time>2026-05-24T07:13:06.000Z</time>
      </trkpt>
      <trkpt lat="43.38929" lon="5.93162">
        <ele>275.5</ele>
        <time>2026-05-24T07:13:15.000Z</time>
      </trkpt>
      <trkpt lat="43.38921" lon="5.93158">
        <ele>275.6</ele>
        <time>2026-05-24T07:13:29.000Z</time>
      </trkpt>
      <trkpt lat="43.38913" lon="5.93151">
        <ele>275.7</ele>
        <time>2026-05-24T07:13:39.000Z</time>
      </trkpt>
      <trkpt lat="43.38906" lon="5.93143">
        <ele>275.7</ele>
        <time>2026-05-24T07:13:50.000Z</time>
      </trkpt>
      <trkpt lat="43.389" lon="5.93133">
        <ele>275.8</ele>
        <time>2026-05-24T07:14:00.000Z</time>
      </trkpt>
      <trkpt lat="43.38893" lon="5.93123">
        <ele>275.8</ele>
        <time>2026-05-24T07:14:08.000Z</time>
      </trkpt>
      <trkpt lat="43.38883" lon="5.93121">
        <ele>275.8</ele>
        <time>2026-05-24T07:14:14.000Z</time>
      </trkpt>
      <trkpt lat="43.38875" lon="5.93115">
        <ele>275.8</ele>
        <time>2026-05-24T07:14:20.000Z</time>
      </trkpt>
      <trkpt lat="43.38869" lon="5.93104">
        <ele>275.8</ele>
        <time>2026-05-24T07:14:28.000Z</time>
      </trkpt>
      <trkpt lat="43.38859" lon="5.93101">
        <ele>275.8</ele>
        <time>2026-05-24T07:14:35.000Z</time>
      </trkpt>
      <trkpt lat="43.38851" lon="5.93096">
        <ele>275.9</ele>
        <time>2026-05-24T07:14:43.000Z</time>
      </trkpt>
      <trkpt lat="43.38845" lon="5.93086">
        <ele>276.1</ele>
        <time>2026-05-24T07:14:52.000Z</time>
      </trkpt>
      <trkpt lat="43.3884" lon="5.93074">
        <ele>276.5</ele>
        <time>2026-05-24T07:15:00.000Z</time>
      </trkpt>
      <trkpt lat="43.38832" lon="5.9307">
        <ele>277.7</ele>
        <time>2026-05-24T07:15:18.000Z</time>
      </trkpt>
      <trkpt lat="43.38823" lon="5.9307">
        <ele>278.4</ele>
        <time>2026-05-24T07:15:29.000Z</time>
      </trkpt>
      <trkpt lat="43.38813" lon="5.9307">
        <ele>279.2</ele>
        <time>2026-05-24T07:15:38.000Z</time>
      </trkpt>
      <trkpt lat="43.38804" lon="5.93074">
        <ele>279.9</ele>
        <time>2026-05-24T07:15:48.000Z</time>
      </trkpt>
      <trkpt lat="43.38795" lon="5.93079">
        <ele>280.9</ele>
        <time>2026-05-24T07:16:07.000Z</time>
      </trkpt>
      <trkpt lat="43.38786" lon="5.93084">
        <ele>281.7</ele>
        <time>2026-05-24T07:16:18.000Z</time>
      </trkpt>
      <trkpt lat="43.38777" lon="5.93087">
        <ele>282.8</ele>
        <time>2026-05-24T07:16:31.000Z</time>
      </trkpt>
      <trkpt lat="43.38769" lon="5.93093">
        <ele>283.9</ele>
        <time>2026-05-24T07:16:42.000Z</time>
      </trkpt>
      <trkpt lat="43.38761" lon="5.93096">
        <ele>285.1</ele>
        <time>2026-05-24T07:16:53.000Z</time>
      </trkpt>
      <trkpt lat="43.38752" lon="5.93101">
        <ele>286.6</ele>
        <time>2026-05-24T07:17:06.000Z</time>
      </trkpt>
      <trkpt lat="43.38745" lon="5.93108">
        <ele>287.8</ele>
        <time>2026-05-24T07:17:19.000Z</time>
      </trkpt>
      <trkpt lat="43.38738" lon="5.93116">
        <ele>288.9</ele>
        <time>2026-05-24T07:17:34.000Z</time>
      </trkpt>
      <trkpt lat="43.3873" lon="5.93123">
        <ele>290.1</ele>
        <time>2026-05-24T07:17:48.000Z</time>
      </trkpt>
      <trkpt lat="43.38724" lon="5.93133">
        <ele>291.6</ele>
        <time>2026-05-24T07:18:06.000Z</time>
      </trkpt>
      <trkpt lat="43.38716" lon="5.93141">
        <ele>292.9</ele>
        <time>2026-05-24T07:18:22.000Z</time>
      </trkpt>
      <trkpt lat="43.38712" lon="5.93152">
        <ele>294</ele>
        <time>2026-05-24T07:18:36.000Z</time>
      </trkpt>
      <trkpt lat="43.38709" lon="5.93164">
        <ele>295</ele>
        <time>2026-05-24T07:18:47.000Z</time>
      </trkpt>
      <trkpt lat="43.38705" lon="5.93175">
        <ele>296.5</ele>
        <time>2026-05-24T07:19:04.000Z</time>
      </trkpt>
      <trkpt lat="43.38699" lon="5.93185">
        <ele>297.6</ele>
        <time>2026-05-24T07:19:23.000Z</time>
      </trkpt>
      <trkpt lat="43.38692" lon="5.93193">
        <ele>298.7</ele>
        <time>2026-05-24T07:19:38.000Z</time>
      </trkpt>
      <trkpt lat="43.38688" lon="5.93206">
        <ele>300.4</ele>
        <time>2026-05-24T07:19:51.000Z</time>
      </trkpt>
      <trkpt lat="43.38686" lon="5.93217">
        <ele>301.6</ele>
        <time>2026-05-24T07:20:02.000Z</time>
      </trkpt>
      <trkpt lat="43.38686" lon="5.9323">
        <ele>302.8</ele>
        <time>2026-05-24T07:20:14.000Z</time>
      </trkpt>
      <trkpt lat="43.38685" lon="5.93243">
        <ele>303.9</ele>
        <time>2026-05-24T07:20:26.000Z</time>
      </trkpt>
      <trkpt lat="43.38686" lon="5.93255">
        <ele>305</ele>
        <time>2026-05-24T07:20:39.000Z</time>
      </trkpt>
      <trkpt lat="43.38683" lon="5.93267">
        <ele>306.5</ele>
        <time>2026-05-24T07:20:56.000Z</time>
      </trkpt>
      <trkpt lat="43.38682" lon="5.9328">
        <ele>307.7</ele>
        <time>2026-05-24T07:21:12.000Z</time>
      </trkpt>
      <trkpt lat="43.3868" lon="5.93293">
        <ele>309</ele>
        <time>2026-05-24T07:21:29.000Z</time>
      </trkpt>
      <trkpt lat="43.3868" lon="5.93306">
        <ele>310.1</ele>
        <time>2026-05-24T07:21:42.000Z</time>
      </trkpt>
      <trkpt lat="43.38675" lon="5.93316">
        <ele>312</ele>
        <time>2026-05-24T07:22:02.000Z</time>
      </trkpt>
      <trkpt lat="43.38671" lon="5.93328">
        <ele>313.4</ele>
        <time>2026-05-24T07:22:16.000Z</time>
      </trkpt>
      <trkpt lat="43.38668" lon="5.9334">
        <ele>314.7</ele>
        <time>2026-05-24T07:22:28.000Z</time>
      </trkpt>
      <trkpt lat="43.38664" lon="5.93351">
        <ele>316.6</ele>
        <time>2026-05-24T07:22:47.000Z</time>
      </trkpt>
      <trkpt lat="43.38659" lon="5.93362">
        <ele>318.4</ele>
        <time>2026-05-24T07:23:06.000Z</time>
      </trkpt>
      <trkpt lat="43.38656" lon="5.93374">
        <ele>320</ele>
        <time>2026-05-24T07:23:20.000Z</time>
      </trkpt>
      <trkpt lat="43.38654" lon="5.93386">
        <ele>321.7</ele>
        <time>2026-05-24T07:23:39.000Z</time>
      </trkpt>
      <trkpt lat="43.38653" lon="5.93399">
        <ele>323.7</ele>
        <time>2026-05-24T07:24:00.000Z</time>
      </trkpt>
      <trkpt lat="43.38651" lon="5.93412">
        <ele>325</ele>
        <time>2026-05-24T07:24:13.000Z</time>
      </trkpt>
      <trkpt lat="43.38649" lon="5.93424">
        <ele>326.8</ele>
        <time>2026-05-24T07:24:32.000Z</time>
      </trkpt>
      <trkpt lat="43.38645" lon="5.93436">
        <ele>327.8</ele>
        <time>2026-05-24T07:24:43.000Z</time>
      </trkpt>
      <trkpt lat="43.38641" lon="5.93448">
        <ele>328.9</ele>
        <time>2026-05-24T07:24:56.000Z</time>
      </trkpt>
      <trkpt lat="43.38635" lon="5.93458">
        <ele>329.6</ele>
        <time>2026-05-24T07:25:06.000Z</time>
      </trkpt>
      <trkpt lat="43.3863" lon="5.93469">
        <ele>330.5</ele>
        <time>2026-05-24T07:25:17.000Z</time>
      </trkpt>
      <trkpt lat="43.38625" lon="5.9348">
        <ele>331.2</ele>
        <time>2026-05-24T07:25:29.000Z</time>
      </trkpt>
      <trkpt lat="43.38616" lon="5.93486">
        <ele>331.9</ele>
        <time>2026-05-24T07:25:39.000Z</time>
      </trkpt>
      <trkpt lat="43.3861" lon="5.93495">
        <ele>332.7</ele>
        <time>2026-05-24T07:25:50.000Z</time>
      </trkpt>
      <trkpt lat="43.38606" lon="5.93507">
        <ele>333.5</ele>
        <time>2026-05-24T07:26:01.000Z</time>
      </trkpt>
      <trkpt lat="43.38608" lon="5.9352">
        <ele>334.6</ele>
        <time>2026-05-24T07:26:13.000Z</time>
      </trkpt>
      <trkpt lat="43.38612" lon="5.93532">
        <ele>335.6</ele>
        <time>2026-05-24T07:26:23.000Z</time>
      </trkpt>
      <trkpt lat="43.3862" lon="5.9354">
        <ele>336.5</ele>
        <time>2026-05-24T07:26:36.000Z</time>
      </trkpt>
      <trkpt lat="43.38622" lon="5.93544">
        <ele>337.4</ele>
        <time>2026-05-24T07:27:27.000Z</time>
      </trkpt>
      <trkpt lat="43.38621" lon="5.93551">
        <ele>337.4</ele>
        <time>2026-05-24T07:27:41.000Z</time>
      </trkpt>
      <trkpt lat="43.38618" lon="5.93563">
        <ele>337.4</ele>
        <time>2026-05-24T07:27:51.000Z</time>
      </trkpt>
      <trkpt lat="43.38614" lon="5.93574">
        <ele>337.4</ele>
        <time>2026-05-24T07:28:00.000Z</time>
      </trkpt>
      <trkpt lat="43.38614" lon="5.93578">
        <ele>337.4</ele>
        <time>2026-05-24T07:28:19.000Z</time>
      </trkpt>
      <trkpt lat="43.38612" lon="5.93579">
        <ele>337.4</ele>
        <time>2026-05-24T07:31:12.000Z</time>
      </trkpt>
      <trkpt lat="43.38605" lon="5.93589">
        <ele>337.4</ele>
        <time>2026-05-24T07:31:29.000Z</time>
      </trkpt>
      <trkpt lat="43.386" lon="5.936">
        <ele>337.4</ele>
        <time>2026-05-24T07:31:42.000Z</time>
      </trkpt>
      <trkpt lat="43.38593" lon="5.93609">
        <ele>337.4</ele>
        <time>2026-05-24T07:31:51.000Z</time>
      </trkpt>
      <trkpt lat="43.38586" lon="5.93618">
        <ele>337.5</ele>
        <time>2026-05-24T07:32:01.000Z</time>
      </trkpt>
      <trkpt lat="43.38579" lon="5.93626">
        <ele>337.5</ele>
        <time>2026-05-24T07:32:11.000Z</time>
      </trkpt>
      <trkpt lat="43.38573" lon="5.93637">
        <ele>337.6</ele>
        <time>2026-05-24T07:32:21.000Z</time>
      </trkpt>
      <trkpt lat="43.38565" lon="5.93647">
        <ele>337.9</ele>
        <time>2026-05-24T07:32:32.000Z</time>
      </trkpt>
      <trkpt lat="43.38559" lon="5.93656">
        <ele>338.9</ele>
        <time>2026-05-24T07:32:47.000Z</time>
      </trkpt>
      <trkpt lat="43.38554" lon="5.93668">
        <ele>339.6</ele>
        <time>2026-05-24T07:32:53.000Z</time>
      </trkpt>
      <trkpt lat="43.38555" lon="5.93681">
        <ele>340.7</ele>
        <time>2026-05-24T07:33:01.000Z</time>
      </trkpt>
      <trkpt lat="43.38555" lon="5.93693">
        <ele>341.4</ele>
        <time>2026-05-24T07:33:09.000Z</time>
      </trkpt>
      <trkpt lat="43.38555" lon="5.93706">
        <ele>342.3</ele>
        <time>2026-05-24T07:33:21.000Z</time>
      </trkpt>
      <trkpt lat="43.38556" lon="5.93719">
        <ele>343.5</ele>
        <time>2026-05-24T07:33:33.000Z</time>
      </trkpt>
      <trkpt lat="43.38558" lon="5.93732">
        <ele>345.4</ele>
        <time>2026-05-24T07:33:48.000Z</time>
      </trkpt>
      <trkpt lat="43.3856" lon="5.93744">
        <ele>347</ele>
        <time>2026-05-24T07:34:00.000Z</time>
      </trkpt>
      <trkpt lat="43.38557" lon="5.93756">
        <ele>348.2</ele>
        <time>2026-05-24T07:34:12.000Z</time>
      </trkpt>
      <trkpt lat="43.38553" lon="5.93767">
        <ele>349.2</ele>
        <time>2026-05-24T07:34:23.000Z</time>
      </trkpt>
      <trkpt lat="43.3855" lon="5.9378">
        <ele>350.4</ele>
        <time>2026-05-24T07:34:34.000Z</time>
      </trkpt>
      <trkpt lat="43.38545" lon="5.93791">
        <ele>351.9</ele>
        <time>2026-05-24T07:34:47.000Z</time>
      </trkpt>
      <trkpt lat="43.38539" lon="5.93801">
        <ele>353.2</ele>
        <time>2026-05-24T07:35:00.000Z</time>
      </trkpt>
      <trkpt lat="43.38533" lon="5.93811">
        <ele>354.6</ele>
        <time>2026-05-24T07:35:13.000Z</time>
      </trkpt>
      <trkpt lat="43.38524" lon="5.93817">
        <ele>355.8</ele>
        <time>2026-05-24T07:35:26.000Z</time>
      </trkpt>
      <trkpt lat="43.38516" lon="5.93811">
        <ele>358.2</ele>
        <time>2026-05-24T07:44:12.000Z</time>
      </trkpt>
      <trkpt lat="43.38516" lon="5.93807">
        <ele>358.2</ele>
        <time>2026-05-24T07:44:22.000Z</time>
      </trkpt>
      <trkpt lat="43.38514" lon="5.93793">
        <ele>358.2</ele>
        <time>2026-05-24T07:44:31.000Z</time>
      </trkpt>
      <trkpt lat="43.3851" lon="5.93782">
        <ele>358.3</ele>
        <time>2026-05-24T07:44:40.000Z</time>
      </trkpt>
      <trkpt lat="43.38504" lon="5.93772">
        <ele>358.4</ele>
        <time>2026-05-24T07:44:49.000Z</time>
      </trkpt>
      <trkpt lat="43.38504" lon="5.93759">
        <ele>358.7</ele>
        <time>2026-05-24T07:45:02.000Z</time>
      </trkpt>
      <trkpt lat="43.38499" lon="5.93748">
        <ele>359</ele>
        <time>2026-05-24T07:45:10.000Z</time>
      </trkpt>
      <trkpt lat="43.38494" lon="5.93737">
        <ele>359.6</ele>
        <time>2026-05-24T07:45:21.000Z</time>
      </trkpt>
      <trkpt lat="43.38493" lon="5.93724">
        <ele>360.3</ele>
        <time>2026-05-24T07:45:35.000Z</time>
      </trkpt>
      <trkpt lat="43.38489" lon="5.93713">
        <ele>360.7</ele>
        <time>2026-05-24T07:45:45.000Z</time>
      </trkpt>
      <trkpt lat="43.38482" lon="5.93703">
        <ele>360.9</ele>
        <time>2026-05-24T07:45:53.000Z</time>
      </trkpt>
      <trkpt lat="43.38479" lon="5.9369">
        <ele>361.3</ele>
        <time>2026-05-24T07:46:04.000Z</time>
      </trkpt>
      <trkpt lat="43.38473" lon="5.9368">
        <ele>361.5</ele>
        <time>2026-05-24T07:46:13.000Z</time>
      </trkpt>
      <trkpt lat="43.38465" lon="5.93674">
        <ele>361.6</ele>
        <time>2026-05-24T07:46:22.000Z</time>
      </trkpt>
      <trkpt lat="43.38456" lon="5.9367">
        <ele>361.7</ele>
        <time>2026-05-24T07:46:30.000Z</time>
      </trkpt>
      <trkpt lat="43.38448" lon="5.93663">
        <ele>361.9</ele>
        <time>2026-05-24T07:46:39.000Z</time>
      </trkpt>
      <trkpt lat="43.38439" lon="5.93655">
        <ele>362</ele>
        <time>2026-05-24T07:46:48.000Z</time>
      </trkpt>
      <trkpt lat="43.38431" lon="5.93648">
        <ele>362</ele>
        <time>2026-05-24T07:46:55.000Z</time>
      </trkpt>
      <trkpt lat="43.38424" lon="5.9364">
        <ele>362.1</ele>
        <time>2026-05-24T07:47:00.000Z</time>
      </trkpt>
      <trkpt lat="43.38415" lon="5.93635">
        <ele>362.4</ele>
        <time>2026-05-24T07:47:13.000Z</time>
      </trkpt>
      <trkpt lat="43.38406" lon="5.93632">
        <ele>362.8</ele>
        <time>2026-05-24T07:47:27.000Z</time>
      </trkpt>
      <trkpt lat="43.38398" lon="5.93625">
        <ele>363</ele>
        <time>2026-05-24T07:47:34.000Z</time>
      </trkpt>
      <trkpt lat="43.38392" lon="5.93616">
        <ele>363.2</ele>
        <time>2026-05-24T07:47:42.000Z</time>
      </trkpt>
      <trkpt lat="43.38388" lon="5.93604">
        <ele>363.3</ele>
        <time>2026-05-24T07:47:52.000Z</time>
      </trkpt>
      <trkpt lat="43.3838" lon="5.93596">
        <ele>363.3</ele>
        <time>2026-05-24T07:48:00.000Z</time>
      </trkpt>
      <trkpt lat="43.38372" lon="5.93589">
        <ele>363.5</ele>
        <time>2026-05-24T07:48:10.000Z</time>
      </trkpt>
      <trkpt lat="43.38363" lon="5.93582">
        <ele>363.9</ele>
        <time>2026-05-24T07:48:24.000Z</time>
      </trkpt>
      <trkpt lat="43.38354" lon="5.93578">
        <ele>364.1</ele>
        <time>2026-05-24T07:48:31.000Z</time>
      </trkpt>
      <trkpt lat="43.38345" lon="5.93575">
        <ele>364.2</ele>
        <time>2026-05-24T07:48:38.000Z</time>
      </trkpt>
      <trkpt lat="43.38336" lon="5.93569">
        <ele>364.3</ele>
        <time>2026-05-24T07:48:46.000Z</time>
      </trkpt>
      <trkpt lat="43.38335" lon="5.93557">
        <ele>364.4</ele>
        <time>2026-05-24T07:48:56.000Z</time>
      </trkpt>
      <trkpt lat="43.38336" lon="5.93544">
        <ele>364.6</ele>
        <time>2026-05-24T07:49:06.000Z</time>
      </trkpt>
      <trkpt lat="43.38336" lon="5.93531">
        <ele>364.8</ele>
        <time>2026-05-24T07:49:16.000Z</time>
      </trkpt>
      <trkpt lat="43.38334" lon="5.93518">
        <ele>365.3</ele>
        <time>2026-05-24T07:49:25.000Z</time>
      </trkpt>
      <trkpt lat="43.38332" lon="5.93506">
        <ele>365.8</ele>
        <time>2026-05-24T07:49:36.000Z</time>
      </trkpt>
      <trkpt lat="43.38325" lon="5.93497">
        <ele>366.1</ele>
        <time>2026-05-24T07:49:44.000Z</time>
      </trkpt>
      <trkpt lat="43.38321" lon="5.93484">
        <ele>366.4</ele>
        <time>2026-05-24T07:49:56.000Z</time>
      </trkpt>
      <trkpt lat="43.38322" lon="5.93472">
        <ele>366.6</ele>
        <time>2026-05-24T07:50:05.000Z</time>
      </trkpt>
      <trkpt lat="43.3832" lon="5.93459">
        <ele>366.9</ele>
        <time>2026-05-24T07:50:14.000Z</time>
      </trkpt>
      <trkpt lat="43.3832" lon="5.93447">
        <ele>367.3</ele>
        <time>2026-05-24T07:50:25.000Z</time>
      </trkpt>
      <trkpt lat="43.38329" lon="5.9344">
        <ele>367.8</ele>
        <time>2026-05-24T07:50:39.000Z</time>
      </trkpt>
      <trkpt lat="43.38331" lon="5.93427">
        <ele>368.3</ele>
        <time>2026-05-24T07:50:49.000Z</time>
      </trkpt>
      <trkpt lat="43.38328" lon="5.93415">
        <ele>368.5</ele>
        <time>2026-05-24T07:50:56.000Z</time>
      </trkpt>
      <trkpt lat="43.38328" lon="5.93401">
        <ele>368.8</ele>
        <time>2026-05-24T07:51:07.000Z</time>
      </trkpt>
      <trkpt lat="43.38328" lon="5.93388">
        <ele>369</ele>
        <time>2026-05-24T07:51:17.000Z</time>
      </trkpt>
      <trkpt lat="43.38327" lon="5.93374">
        <ele>369.3</ele>
        <time>2026-05-24T07:51:27.000Z</time>
      </trkpt>
      <trkpt lat="43.38322" lon="5.93363">
        <ele>369.7</ele>
        <time>2026-05-24T07:51:37.000Z</time>
      </trkpt>
      <trkpt lat="43.38321" lon="5.9335">
        <ele>369.8</ele>
        <time>2026-05-24T07:51:45.000Z</time>
      </trkpt>
      <trkpt lat="43.3832" lon="5.93338">
        <ele>369.9</ele>
        <time>2026-05-24T07:51:54.000Z</time>
      </trkpt>
      <trkpt lat="43.38321" lon="5.93325">
        <ele>370</ele>
        <time>2026-05-24T07:52:04.000Z</time>
      </trkpt>
      <trkpt lat="43.38319" lon="5.93312">
        <ele>370.1</ele>
        <time>2026-05-24T07:52:13.000Z</time>
      </trkpt>
      <trkpt lat="43.38321" lon="5.933">
        <ele>370.1</ele>
        <time>2026-05-24T07:52:23.000Z</time>
      </trkpt>
      <trkpt lat="43.38325" lon="5.93288">
        <ele>370.2</ele>
        <time>2026-05-24T07:52:33.000Z</time>
      </trkpt>
      <trkpt lat="43.38327" lon="5.93275">
        <ele>370.3</ele>
        <time>2026-05-24T07:52:42.000Z</time>
      </trkpt>
      <trkpt lat="43.38325" lon="5.93261">
        <ele>370.3</ele>
        <time>2026-05-24T07:52:50.000Z</time>
      </trkpt>
      <trkpt lat="43.38324" lon="5.93249">
        <ele>370.3</ele>
        <time>2026-05-24T07:52:59.000Z</time>
      </trkpt>
      <trkpt lat="43.38329" lon="5.93238">
        <ele>370.2</ele>
        <time>2026-05-24T07:53:07.000Z</time>
      </trkpt>
      <trkpt lat="43.38333" lon="5.93226">
        <ele>370.2</ele>
        <time>2026-05-24T07:53:15.000Z</time>
      </trkpt>
      <trkpt lat="43.38332" lon="5.93214">
        <ele>370.2</ele>
        <time>2026-05-24T07:53:25.000Z</time>
      </trkpt>
      <trkpt lat="43.38335" lon="5.93201">
        <ele>370.1</ele>
        <time>2026-05-24T07:53:32.000Z</time>
      </trkpt>
      <trkpt lat="43.38335" lon="5.93188">
        <ele>369.9</ele>
        <time>2026-05-24T07:53:42.000Z</time>
      </trkpt>
      <trkpt lat="43.38339" lon="5.93175">
        <ele>369.7</ele>
        <time>2026-05-24T07:53:50.000Z</time>
      </trkpt>
      <trkpt lat="43.38339" lon="5.93163">
        <ele>369.3</ele>
        <time>2026-05-24T07:53:59.000Z</time>
      </trkpt>
      <trkpt lat="43.38339" lon="5.93149">
        <ele>369.1</ele>
        <time>2026-05-24T07:54:07.000Z</time>
      </trkpt>
      <trkpt lat="43.38339" lon="5.93136">
        <ele>368.8</ele>
        <time>2026-05-24T07:54:17.000Z</time>
      </trkpt>
      <trkpt lat="43.3834" lon="5.93122">
        <ele>368.6</ele>
        <time>2026-05-24T07:54:25.000Z</time>
      </trkpt>
      <trkpt lat="43.3834" lon="5.93109">
        <ele>368.4</ele>
        <time>2026-05-24T07:54:34.000Z</time>
      </trkpt>
      <trkpt lat="43.38339" lon="5.93097">
        <ele>368.3</ele>
        <time>2026-05-24T07:54:42.000Z</time>
      </trkpt>
      <trkpt lat="43.38344" lon="5.93086">
        <ele>368.1</ele>
        <time>2026-05-24T07:54:50.000Z</time>
      </trkpt>
      <trkpt lat="43.38348" lon="5.93073">
        <ele>367.9</ele>
        <time>2026-05-24T07:55:01.000Z</time>
      </trkpt>
      <trkpt lat="43.38351" lon="5.93061">
        <ele>367.8</ele>
        <time>2026-05-24T07:55:09.000Z</time>
      </trkpt>
      <trkpt lat="43.38342" lon="5.9306">
        <ele>367.7</ele>
        <time>2026-05-24T07:55:19.000Z</time>
      </trkpt>
      <trkpt lat="43.38332" lon="5.93062">
        <ele>367.6</ele>
        <time>2026-05-24T07:55:28.000Z</time>
      </trkpt>
      <trkpt lat="43.38323" lon="5.93062">
        <ele>367.7</ele>
        <time>2026-05-24T07:55:40.000Z</time>
      </trkpt>
      <trkpt lat="43.38315" lon="5.93055">
        <ele>367.9</ele>
        <time>2026-05-24T07:55:49.000Z</time>
      </trkpt>
      <trkpt lat="43.38306" lon="5.93058">
        <ele>368.1</ele>
        <time>2026-05-24T07:56:01.000Z</time>
      </trkpt>
      <trkpt lat="43.38297" lon="5.93052">
        <ele>368</ele>
        <time>2026-05-24T07:56:19.000Z</time>
      </trkpt>
      <trkpt lat="43.38289" lon="5.93046">
        <ele>367.8</ele>
        <time>2026-05-24T07:56:36.000Z</time>
      </trkpt>
      <trkpt lat="43.38282" lon="5.93039">
        <ele>367.1</ele>
        <time>2026-05-24T07:56:49.000Z</time>
      </trkpt>
      <trkpt lat="43.38273" lon="5.93034">
        <ele>365.7</ele>
        <time>2026-05-24T07:57:07.000Z</time>
      </trkpt>
      <trkpt lat="43.38264" lon="5.93029">
        <ele>364.6</ele>
        <time>2026-05-24T07:57:22.000Z</time>
      </trkpt>
      <trkpt lat="43.38255" lon="5.93027">
        <ele>364.1</ele>
        <time>2026-05-24T07:57:34.000Z</time>
      </trkpt>
      <trkpt lat="43.38245" lon="5.9302">
        <ele>363.8</ele>
        <time>2026-05-24T07:57:43.000Z</time>
      </trkpt>
      <trkpt lat="43.38236" lon="5.93016">
        <ele>363.4</ele>
        <time>2026-05-24T07:57:52.000Z</time>
      </trkpt>
      <trkpt lat="43.38227" lon="5.93015">
        <ele>363.2</ele>
        <time>2026-05-24T07:58:00.000Z</time>
      </trkpt>
      <trkpt lat="43.38217" lon="5.93015">
        <ele>363</ele>
        <time>2026-05-24T07:58:09.000Z</time>
      </trkpt>
      <trkpt lat="43.38208" lon="5.9301">
        <ele>362.9</ele>
        <time>2026-05-24T07:58:16.000Z</time>
      </trkpt>
      <trkpt lat="43.382" lon="5.93003">
        <ele>362.7</ele>
        <time>2026-05-24T07:58:26.000Z</time>
      </trkpt>
      <trkpt lat="43.38191" lon="5.93002">
        <ele>362.5</ele>
        <time>2026-05-24T07:58:35.000Z</time>
      </trkpt>
      <trkpt lat="43.38181" lon="5.93001">
        <ele>362.4</ele>
        <time>2026-05-24T07:58:41.000Z</time>
      </trkpt>
      <trkpt lat="43.38174" lon="5.92993">
        <ele>362.2</ele>
        <time>2026-05-24T07:58:55.000Z</time>
      </trkpt>
      <trkpt lat="43.38167" lon="5.92984">
        <ele>361.8</ele>
        <time>2026-05-24T07:59:05.000Z</time>
      </trkpt>
      <trkpt lat="43.38161" lon="5.92974">
        <ele>361.3</ele>
        <time>2026-05-24T07:59:17.000Z</time>
      </trkpt>
      <trkpt lat="43.38156" lon="5.92964">
        <ele>361.1</ele>
        <time>2026-05-24T07:59:27.000Z</time>
      </trkpt>
      <trkpt lat="43.38148" lon="5.92957">
        <ele>360.9</ele>
        <time>2026-05-24T07:59:35.000Z</time>
      </trkpt>
      <trkpt lat="43.38143" lon="5.92945">
        <ele>360.7</ele>
        <time>2026-05-24T07:59:45.000Z</time>
      </trkpt>
      <trkpt lat="43.38146" lon="5.92932">
        <ele>360.6</ele>
        <time>2026-05-24T07:59:55.000Z</time>
      </trkpt>
      <trkpt lat="43.3814" lon="5.92922">
        <ele>360.4</ele>
        <time>2026-05-24T08:00:06.000Z</time>
      </trkpt>
      <trkpt lat="43.38133" lon="5.92914">
        <ele>360.2</ele>
        <time>2026-05-24T08:00:16.000Z</time>
      </trkpt>
      <trkpt lat="43.38126" lon="5.92905">
        <ele>360.1</ele>
        <time>2026-05-24T08:00:28.000Z</time>
      </trkpt>
      <trkpt lat="43.38118" lon="5.92899">
        <ele>360</ele>
        <time>2026-05-24T08:00:37.000Z</time>
      </trkpt>
      <trkpt lat="43.3811" lon="5.92892">
        <ele>359.8</ele>
        <time>2026-05-24T08:00:47.000Z</time>
      </trkpt>
      <trkpt lat="43.38102" lon="5.92882">
        <ele>359.7</ele>
        <time>2026-05-24T08:00:59.000Z</time>
      </trkpt>
      <trkpt lat="43.38094" lon="5.92875">
        <ele>359.6</ele>
        <time>2026-05-24T08:01:09.000Z</time>
      </trkpt>
      <trkpt lat="43.38086" lon="5.92867">
        <ele>359.5</ele>
        <time>2026-05-24T08:01:18.000Z</time>
      </trkpt>
      <trkpt lat="43.38085" lon="5.92853">
        <ele>359.5</ele>
        <time>2026-05-24T08:01:28.000Z</time>
      </trkpt>
      <trkpt lat="43.3808" lon="5.92843">
        <ele>359.5</ele>
        <time>2026-05-24T08:01:37.000Z</time>
      </trkpt>
      <trkpt lat="43.38071" lon="5.92836">
        <ele>359.5</ele>
        <time>2026-05-24T08:01:51.000Z</time>
      </trkpt>
      <trkpt lat="43.38067" lon="5.92824">
        <ele>359.6</ele>
        <time>2026-05-24T08:02:00.000Z</time>
      </trkpt>
      <trkpt lat="43.38066" lon="5.92812">
        <ele>359.6</ele>
        <time>2026-05-24T08:02:10.000Z</time>
      </trkpt>
      <trkpt lat="43.38061" lon="5.92801">
        <ele>359.6</ele>
        <time>2026-05-24T08:02:17.000Z</time>
      </trkpt>
      <trkpt lat="43.38054" lon="5.92793">
        <ele>359.6</ele>
        <time>2026-05-24T08:02:29.000Z</time>
      </trkpt>
      <trkpt lat="43.38052" lon="5.9278">
        <ele>359.8</ele>
        <time>2026-05-24T08:02:50.000Z</time>
      </trkpt>
      <trkpt lat="43.38047" lon="5.92769">
        <ele>359.9</ele>
        <time>2026-05-24T08:03:01.000Z</time>
      </trkpt>
      <trkpt lat="43.38044" lon="5.92757">
        <ele>360.1</ele>
        <time>2026-05-24T08:03:09.000Z</time>
      </trkpt>
      <trkpt lat="43.38038" lon="5.92747">
        <ele>360.2</ele>
        <time>2026-05-24T08:03:20.000Z</time>
      </trkpt>
      <trkpt lat="43.3804" lon="5.92733">
        <ele>360.6</ele>
        <time>2026-05-24T08:03:32.000Z</time>
      </trkpt>
      <trkpt lat="43.38041" lon="5.92721">
        <ele>360.9</ele>
        <time>2026-05-24T08:03:39.000Z</time>
      </trkpt>
      <trkpt lat="43.38042" lon="5.92709">
        <ele>361.3</ele>
        <time>2026-05-24T08:03:50.000Z</time>
      </trkpt>
      <trkpt lat="43.38043" lon="5.92696">
        <ele>362.4</ele>
        <time>2026-05-24T08:04:07.000Z</time>
      </trkpt>
      <trkpt lat="43.38038" lon="5.92685">
        <ele>363.1</ele>
        <time>2026-05-24T08:04:18.000Z</time>
      </trkpt>
      <trkpt lat="43.3803" lon="5.92678">
        <ele>363.4</ele>
        <time>2026-05-24T08:04:27.000Z</time>
      </trkpt>
      <trkpt lat="43.38023" lon="5.9267">
        <ele>364</ele>
        <time>2026-05-24T08:04:37.000Z</time>
      </trkpt>
      <trkpt lat="43.38017" lon="5.9266">
        <ele>364.6</ele>
        <time>2026-05-24T08:04:49.000Z</time>
      </trkpt>
      <trkpt lat="43.38013" lon="5.92648">
        <ele>365.2</ele>
        <time>2026-05-24T08:05:02.000Z</time>
      </trkpt>
      <trkpt lat="43.38015" lon="5.92635">
        <ele>365.7</ele>
        <time>2026-05-24T08:05:14.000Z</time>
      </trkpt>
      <trkpt lat="43.38014" lon="5.92621">
        <ele>366.4</ele>
        <time>2026-05-24T08:05:28.000Z</time>
      </trkpt>
      <trkpt lat="43.38015" lon="5.92609">
        <ele>366.7</ele>
        <time>2026-05-24T08:05:35.000Z</time>
      </trkpt>
      <trkpt lat="43.38013" lon="5.92596">
        <ele>366.9</ele>
        <time>2026-05-24T08:05:43.000Z</time>
      </trkpt>
      <trkpt lat="43.38008" lon="5.92586">
        <ele>367.2</ele>
        <time>2026-05-24T08:05:54.000Z</time>
      </trkpt>
      <trkpt lat="43.38" lon="5.92579">
        <ele>367.8</ele>
        <time>2026-05-24T08:06:07.000Z</time>
      </trkpt>
      <trkpt lat="43.37994" lon="5.92569">
        <ele>368.8</ele>
        <time>2026-05-24T08:06:29.000Z</time>
      </trkpt>
      <trkpt lat="43.37985" lon="5.92564">
        <ele>369.1</ele>
        <time>2026-05-24T08:06:39.000Z</time>
      </trkpt>
      <trkpt lat="43.37976" lon="5.92568">
        <ele>369.5</ele>
        <time>2026-05-24T08:06:46.000Z</time>
      </trkpt>
      <trkpt lat="43.3797" lon="5.92577">
        <ele>369.9</ele>
        <time>2026-05-24T08:06:54.000Z</time>
      </trkpt>
      <trkpt lat="43.37961" lon="5.92577">
        <ele>371.3</ele>
        <time>2026-05-24T08:07:20.000Z</time>
      </trkpt>
      <trkpt lat="43.37958" lon="5.92565">
        <ele>372.1</ele>
        <time>2026-05-24T08:07:39.000Z</time>
      </trkpt>
      <trkpt lat="43.37961" lon="5.92553">
        <ele>372.5</ele>
        <time>2026-05-24T08:07:54.000Z</time>
      </trkpt>
      <trkpt lat="43.3796" lon="5.9254">
        <ele>372.8</ele>
        <time>2026-05-24T08:08:03.000Z</time>
      </trkpt>
      <trkpt lat="43.37955" lon="5.92528">
        <ele>373.1</ele>
        <time>2026-05-24T08:08:11.000Z</time>
      </trkpt>
      <trkpt lat="43.37956" lon="5.92516">
        <ele>373.7</ele>
        <time>2026-05-24T08:08:23.000Z</time>
      </trkpt>
      <trkpt lat="43.37955" lon="5.92503">
        <ele>374.2</ele>
        <time>2026-05-24T08:08:33.000Z</time>
      </trkpt>
      <trkpt lat="43.3795" lon="5.92493">
        <ele>375</ele>
        <time>2026-05-24T08:08:45.000Z</time>
      </trkpt>
      <trkpt lat="43.37942" lon="5.92486">
        <ele>376.7</ele>
        <time>2026-05-24T08:09:09.000Z</time>
      </trkpt>
      <trkpt lat="43.37935" lon="5.92477">
        <ele>378.8</ele>
        <time>2026-05-24T08:09:30.000Z</time>
      </trkpt>
      <trkpt lat="43.3793" lon="5.92466">
        <ele>380.7</ele>
        <time>2026-05-24T08:09:55.000Z</time>
      </trkpt>
      <trkpt lat="43.37924" lon="5.92456">
        <ele>383.4</ele>
        <time>2026-05-24T08:10:19.000Z</time>
      </trkpt>
      <trkpt lat="43.37917" lon="5.92448">
        <ele>384.7</ele>
        <time>2026-05-24T08:10:34.000Z</time>
      </trkpt>
      <trkpt lat="43.37917" lon="5.92435">
        <ele>385.5</ele>
        <time>2026-05-24T08:10:48.000Z</time>
      </trkpt>
      <trkpt lat="43.37911" lon="5.92425">
        <ele>386.2</ele>
        <time>2026-05-24T08:11:00.000Z</time>
      </trkpt>
      <trkpt lat="43.37904" lon="5.92416">
        <ele>387.4</ele>
        <time>2026-05-24T08:11:20.000Z</time>
      </trkpt>
      <trkpt lat="43.379" lon="5.92405">
        <ele>389.7</ele>
        <time>2026-05-24T08:11:45.000Z</time>
      </trkpt>
      <trkpt lat="43.37901" lon="5.92392">
        <ele>390.8</ele>
        <time>2026-05-24T08:11:57.000Z</time>
      </trkpt>
      <trkpt lat="43.37899" lon="5.92378">
        <ele>391.6</ele>
        <time>2026-05-24T08:12:06.000Z</time>
      </trkpt>
      <trkpt lat="43.37895" lon="5.92367">
        <ele>393</ele>
        <time>2026-05-24T08:12:22.000Z</time>
      </trkpt>
      <trkpt lat="43.3789" lon="5.92356">
        <ele>394.6</ele>
        <time>2026-05-24T08:12:38.000Z</time>
      </trkpt>
      <trkpt lat="43.37884" lon="5.92345">
        <ele>396</ele>
        <time>2026-05-24T08:12:55.000Z</time>
      </trkpt>
      <trkpt lat="43.37877" lon="5.92336">
        <ele>397.3</ele>
        <time>2026-05-24T08:13:11.000Z</time>
      </trkpt>
      <trkpt lat="43.3787" lon="5.92328">
        <ele>398.5</ele>
        <time>2026-05-24T08:13:28.000Z</time>
      </trkpt>
      <trkpt lat="43.37862" lon="5.92323">
        <ele>399.5</ele>
        <time>2026-05-24T08:13:40.000Z</time>
      </trkpt>
      <trkpt lat="43.37853" lon="5.92318">
        <ele>400.3</ele>
        <time>2026-05-24T08:13:53.000Z</time>
      </trkpt>
      <trkpt lat="43.37846" lon="5.9231">
        <ele>401.6</ele>
        <time>2026-05-24T08:14:10.000Z</time>
      </trkpt>
      <trkpt lat="43.37837" lon="5.92305">
        <ele>402.3</ele>
        <time>2026-05-24T08:14:22.000Z</time>
      </trkpt>
      <trkpt lat="43.37827" lon="5.92302">
        <ele>403.1</ele>
        <time>2026-05-24T08:14:34.000Z</time>
      </trkpt>
      <trkpt lat="43.37818" lon="5.92297">
        <ele>404.4</ele>
        <time>2026-05-24T08:14:51.000Z</time>
      </trkpt>
      <trkpt lat="43.37809" lon="5.92293">
        <ele>405</ele>
        <time>2026-05-24T08:15:00.000Z</time>
      </trkpt>
      <trkpt lat="43.37801" lon="5.92286">
        <ele>406.1</ele>
        <time>2026-05-24T08:15:12.000Z</time>
      </trkpt>
      <trkpt lat="43.37795" lon="5.92277">
        <ele>407.3</ele>
        <time>2026-05-24T08:15:25.000Z</time>
      </trkpt>
      <trkpt lat="43.37785" lon="5.92274">
        <ele>408.3</ele>
        <time>2026-05-24T08:15:36.000Z</time>
      </trkpt>
      <trkpt lat="43.37777" lon="5.92271">
        <ele>409.6</ele>
        <time>2026-05-24T08:15:48.000Z</time>
      </trkpt>
      <trkpt lat="43.37767" lon="5.92271">
        <ele>410.7</ele>
        <time>2026-05-24T08:15:58.000Z</time>
      </trkpt>
      <trkpt lat="43.37757" lon="5.92269">
        <ele>412.3</ele>
        <time>2026-05-24T08:16:11.000Z</time>
      </trkpt>
      <trkpt lat="43.37747" lon="5.92271">
        <ele>413.5</ele>
        <time>2026-05-24T08:16:21.000Z</time>
      </trkpt>
      <trkpt lat="43.37746" lon="5.92279">
        <ele>414.3</ele>
        <time>2026-05-24T08:16:41.000Z</time>
      </trkpt>
      <trkpt lat="43.37746" lon="5.92279">
        <ele>414.3</ele>
        <time>2026-05-24T08:16:42.000Z</time>
      </trkpt>
      <trkpt lat="43.37747" lon="5.92277">
        <ele>414.4</ele>
        <time>2026-05-24T08:17:05.000Z</time>
      </trkpt>
      <trkpt lat="43.37745" lon="5.92274">
        <ele>414.4</ele>
        <time>2026-05-24T08:17:17.000Z</time>
      </trkpt>
      <trkpt lat="43.37744" lon="5.92274">
        <ele>414.4</ele>
        <time>2026-05-24T08:17:31.000Z</time>
      </trkpt>
      <trkpt lat="43.37742" lon="5.92275">
        <ele>414.5</ele>
        <time>2026-05-24T08:17:37.000Z</time>
      </trkpt>
      <trkpt lat="43.37743" lon="5.92277">
        <ele>414.6</ele>
        <time>2026-05-24T08:18:08.000Z</time>
      </trkpt>
      <trkpt lat="43.37741" lon="5.92279">
        <ele>414.7</ele>
        <time>2026-05-24T08:18:41.000Z</time>
      </trkpt>
      <trkpt lat="43.37744" lon="5.92281">
        <ele>414.9</ele>
        <time>2026-05-24T08:19:46.000Z</time>
      </trkpt>
      <trkpt lat="43.37745" lon="5.92282">
        <ele>414.9</ele>
        <time>2026-05-24T08:20:00.000Z</time>
      </trkpt>
      <trkpt lat="43.37744" lon="5.92282">
        <ele>415.1</ele>
        <time>2026-05-24T08:20:22.000Z</time>
      </trkpt>
      <trkpt lat="43.37743" lon="5.92281">
        <ele>415.2</ele>
        <time>2026-05-24T08:20:32.000Z</time>
      </trkpt>
      <trkpt lat="43.37742" lon="5.92281">
        <ele>415.1</ele>
        <time>2026-05-24T08:20:52.000Z</time>
      </trkpt>
      <trkpt lat="43.3774" lon="5.92279">
        <ele>415.2</ele>
        <time>2026-05-24T08:22:21.000Z</time>
      </trkpt>
      <trkpt lat="43.37741" lon="5.92279">
        <ele>415.2</ele>
        <time>2026-05-24T08:22:36.000Z</time>
      </trkpt>
      <trkpt lat="43.3774" lon="5.92278">
        <ele>415.2</ele>
        <time>2026-05-24T08:22:57.000Z</time>
      </trkpt>
      <trkpt lat="43.37741" lon="5.92275">
        <ele>415.3</ele>
        <time>2026-05-24T08:23:21.000Z</time>
      </trkpt>
      <trkpt lat="43.3774" lon="5.92275">
        <ele>415.3</ele>
        <time>2026-05-24T08:23:24.000Z</time>
      </trkpt>
      <trkpt lat="43.3773" lon="5.92277">
        <ele>415.4</ele>
        <time>2026-05-24T08:23:37.000Z</time>
      </trkpt>
      <trkpt lat="43.37721" lon="5.92278">
        <ele>415.9</ele>
        <time>2026-05-24T08:23:48.000Z</time>
      </trkpt>
      <trkpt lat="43.37712" lon="5.92277">
        <ele>417.7</ele>
        <time>2026-05-24T08:24:01.000Z</time>
      </trkpt>
      <trkpt lat="43.37705" lon="5.92269">
        <ele>418.9</ele>
        <time>2026-05-24T08:24:11.000Z</time>
      </trkpt>
      <trkpt lat="43.37699" lon="5.92258">
        <ele>419.6</ele>
        <time>2026-05-24T08:24:22.000Z</time>
      </trkpt>
      <trkpt lat="43.3769" lon="5.92253">
        <ele>420</ele>
        <time>2026-05-24T08:24:32.000Z</time>
      </trkpt>
      <trkpt lat="43.37682" lon="5.92259">
        <ele>420.6</ele>
        <time>2026-05-24T08:24:44.000Z</time>
      </trkpt>
      <trkpt lat="43.37674" lon="5.92267">
        <ele>420.9</ele>
        <time>2026-05-24T08:24:53.000Z</time>
      </trkpt>
      <trkpt lat="43.37667" lon="5.92274">
        <ele>421</ele>
        <time>2026-05-24T08:25:01.000Z</time>
      </trkpt>
      <trkpt lat="43.37661" lon="5.92284">
        <ele>421</ele>
        <time>2026-05-24T08:25:12.000Z</time>
      </trkpt>
      <trkpt lat="43.37652" lon="5.92288">
        <ele>420.6</ele>
        <time>2026-05-24T08:25:21.000Z</time>
      </trkpt>
      <trkpt lat="43.37642" lon="5.92288">
        <ele>420.1</ele>
        <time>2026-05-24T08:25:30.000Z</time>
      </trkpt>
      <trkpt lat="43.37633" lon="5.92292">
        <ele>419.3</ele>
        <time>2026-05-24T08:25:41.000Z</time>
      </trkpt>
      <trkpt lat="43.37623" lon="5.92299">
        <ele>418.4</ele>
        <time>2026-05-24T08:25:55.000Z</time>
      </trkpt>
      <trkpt lat="43.37614" lon="5.92297">
        <ele>417.9</ele>
        <time>2026-05-24T08:26:03.000Z</time>
      </trkpt>
      <trkpt lat="43.37607" lon="5.92307">
        <ele>417.7</ele>
        <time>2026-05-24T08:26:10.000Z</time>
      </trkpt>
      <trkpt lat="43.37603" lon="5.92319">
        <ele>417.5</ele>
        <time>2026-05-24T08:26:18.000Z</time>
      </trkpt>
      <trkpt lat="43.37602" lon="5.92333">
        <ele>417.4</ele>
        <time>2026-05-24T08:26:25.000Z</time>
      </trkpt>
      <trkpt lat="43.37599" lon="5.92346">
        <ele>417.3</ele>
        <time>2026-05-24T08:26:34.000Z</time>
      </trkpt>
      <trkpt lat="43.37593" lon="5.92355">
        <ele>417.2</ele>
        <time>2026-05-24T08:26:43.000Z</time>
      </trkpt>
      <trkpt lat="43.37587" lon="5.92365">
        <ele>417</ele>
        <time>2026-05-24T08:26:51.000Z</time>
      </trkpt>
      <trkpt lat="43.3758" lon="5.92375">
        <ele>416.9</ele>
        <time>2026-05-24T08:27:00.000Z</time>
      </trkpt>
      <trkpt lat="43.37573" lon="5.92386">
        <ele>416.9</ele>
        <time>2026-05-24T08:27:09.000Z</time>
      </trkpt>
      <trkpt lat="43.37568" lon="5.92397">
        <ele>416.9</ele>
        <time>2026-05-24T08:27:18.000Z</time>
      </trkpt>
      <trkpt lat="43.37561" lon="5.92407">
        <ele>416.9</ele>
        <time>2026-05-24T08:27:27.000Z</time>
      </trkpt>
      <trkpt lat="43.37557" lon="5.92418">
        <ele>416.9</ele>
        <time>2026-05-24T08:27:35.000Z</time>
      </trkpt>
      <trkpt lat="43.37551" lon="5.92429">
        <ele>416.7</ele>
        <time>2026-05-24T08:27:43.000Z</time>
      </trkpt>
      <trkpt lat="43.37543" lon="5.92436">
        <ele>416.3</ele>
        <time>2026-05-24T08:27:52.000Z</time>
      </trkpt>
      <trkpt lat="43.37535" lon="5.92443">
        <ele>415.9</ele>
        <time>2026-05-24T08:28:00.000Z</time>
      </trkpt>
      <trkpt lat="43.37531" lon="5.92453">
        <ele>415.6</ele>
        <time>2026-05-24T08:28:08.000Z</time>
      </trkpt>
      <trkpt lat="43.37523" lon="5.9246">
        <ele>415.5</ele>
        <time>2026-05-24T08:28:16.000Z</time>
      </trkpt>
      <trkpt lat="43.37518" lon="5.92472">
        <ele>415.4</ele>
        <time>2026-05-24T08:28:23.000Z</time>
      </trkpt>
      <trkpt lat="43.37515" lon="5.92485">
        <ele>415.5</ele>
        <time>2026-05-24T08:28:31.000Z</time>
      </trkpt>
      <trkpt lat="43.37511" lon="5.92497">
        <ele>415.7</ele>
        <time>2026-05-24T08:28:41.000Z</time>
      </trkpt>
      <trkpt lat="43.3751" lon="5.9251">
        <ele>415.9</ele>
        <time>2026-05-24T08:28:52.000Z</time>
      </trkpt>
      <trkpt lat="43.37506" lon="5.92522">
        <ele>416.1</ele>
        <time>2026-05-24T08:29:02.000Z</time>
      </trkpt>
      <trkpt lat="43.37498" lon="5.9253">
        <ele>416.1</ele>
        <time>2026-05-24T08:29:11.000Z</time>
      </trkpt>
      <trkpt lat="43.37494" lon="5.92542">
        <ele>416.1</ele>
        <time>2026-05-24T08:29:20.000Z</time>
      </trkpt>
      <trkpt lat="43.37488" lon="5.92554">
        <ele>416.1</ele>
        <time>2026-05-24T08:29:29.000Z</time>
      </trkpt>
      <trkpt lat="43.37483" lon="5.92564">
        <ele>416</ele>
        <time>2026-05-24T08:29:37.000Z</time>
      </trkpt>
      <trkpt lat="43.37478" lon="5.92576">
        <ele>415.9</ele>
        <time>2026-05-24T08:29:45.000Z</time>
      </trkpt>
      <trkpt lat="43.37471" lon="5.92584">
        <ele>415.7</ele>
        <time>2026-05-24T08:29:53.000Z</time>
      </trkpt>
      <trkpt lat="43.37466" lon="5.92596">
        <ele>415.2</ele>
        <time>2026-05-24T08:30:03.000Z</time>
      </trkpt>
      <trkpt lat="43.37461" lon="5.92607">
        <ele>415.1</ele>
        <time>2026-05-24T08:30:11.000Z</time>
      </trkpt>
      <trkpt lat="43.3746" lon="5.9262">
        <ele>414.9</ele>
        <time>2026-05-24T08:30:18.000Z</time>
      </trkpt>
      <trkpt lat="43.37454" lon="5.92631">
        <ele>414.5</ele>
        <time>2026-05-24T08:30:28.000Z</time>
      </trkpt>
      <trkpt lat="43.37446" lon="5.92638">
        <ele>413.6</ele>
        <time>2026-05-24T08:30:41.000Z</time>
      </trkpt>
      <trkpt lat="43.3744" lon="5.92647">
        <ele>413.1</ele>
        <time>2026-05-24T08:30:50.000Z</time>
      </trkpt>
      <trkpt lat="43.3743" lon="5.92649">
        <ele>412.8</ele>
        <time>2026-05-24T08:30:57.000Z</time>
      </trkpt>
      <trkpt lat="43.37423" lon="5.92659">
        <ele>412.6</ele>
        <time>2026-05-24T08:31:04.000Z</time>
      </trkpt>
      <trkpt lat="43.37422" lon="5.92673">
        <ele>412.5</ele>
        <time>2026-05-24T08:31:12.000Z</time>
      </trkpt>
      <trkpt lat="43.37415" lon="5.92683">
        <ele>412.3</ele>
        <time>2026-05-24T08:31:21.000Z</time>
      </trkpt>
      <trkpt lat="43.37407" lon="5.92688">
        <ele>412.2</ele>
        <time>2026-05-24T08:31:30.000Z</time>
      </trkpt>
      <trkpt lat="43.37398" lon="5.92686">
        <ele>412.1</ele>
        <time>2026-05-24T08:31:44.000Z</time>
      </trkpt>
      <trkpt lat="43.37392" lon="5.92675">
        <ele>412.2</ele>
        <time>2026-05-24T08:31:55.000Z</time>
      </trkpt>
      <trkpt lat="43.37383" lon="5.92669">
        <ele>412.2</ele>
        <time>2026-05-24T08:32:03.000Z</time>
      </trkpt>
      <trkpt lat="43.37375" lon="5.92664">
        <ele>412.3</ele>
        <time>2026-05-24T08:32:10.000Z</time>
      </trkpt>
      <trkpt lat="43.37366" lon="5.92659">
        <ele>412.3</ele>
        <time>2026-05-24T08:32:19.000Z</time>
      </trkpt>
      <trkpt lat="43.37358" lon="5.92654">
        <ele>412.3</ele>
        <time>2026-05-24T08:32:28.000Z</time>
      </trkpt>
      <trkpt lat="43.37351" lon="5.92647">
        <ele>412</ele>
        <time>2026-05-24T08:32:39.000Z</time>
      </trkpt>
      <trkpt lat="43.37342" lon="5.92647">
        <ele>411.6</ele>
        <time>2026-05-24T08:32:46.000Z</time>
      </trkpt>
      <trkpt lat="43.37332" lon="5.92649">
        <ele>411.1</ele>
        <time>2026-05-24T08:32:55.000Z</time>
      </trkpt>
      <trkpt lat="43.37324" lon="5.92652">
        <ele>410.7</ele>
        <time>2026-05-24T08:33:03.000Z</time>
      </trkpt>
      <trkpt lat="43.37319" lon="5.92665">
        <ele>410.3</ele>
        <time>2026-05-24T08:33:12.000Z</time>
      </trkpt>
      <trkpt lat="43.37314" lon="5.92677">
        <ele>410.2</ele>
        <time>2026-05-24T08:33:21.000Z</time>
      </trkpt>
      <trkpt lat="43.3731" lon="5.92688">
        <ele>410.2</ele>
        <time>2026-05-24T08:33:28.000Z</time>
      </trkpt>
      <trkpt lat="43.37303" lon="5.92697">
        <ele>410.2</ele>
        <time>2026-05-24T08:33:35.000Z</time>
      </trkpt>
      <trkpt lat="43.37301" lon="5.9271">
        <ele>410.1</ele>
        <time>2026-05-24T08:33:43.000Z</time>
      </trkpt>
      <trkpt lat="43.37301" lon="5.92723">
        <ele>410.1</ele>
        <time>2026-05-24T08:33:51.000Z</time>
      </trkpt>
      <trkpt lat="43.37305" lon="5.92736">
        <ele>410.2</ele>
        <time>2026-05-24T08:33:58.000Z</time>
      </trkpt>
      <trkpt lat="43.37302" lon="5.92748">
        <ele>410.1</ele>
        <time>2026-05-24T08:34:08.000Z</time>
      </trkpt>
      <trkpt lat="43.37297" lon="5.9276">
        <ele>410.1</ele>
        <time>2026-05-24T08:34:18.000Z</time>
      </trkpt>
      <trkpt lat="43.37292" lon="5.92772">
        <ele>409.9</ele>
        <time>2026-05-24T08:34:26.000Z</time>
      </trkpt>
      <trkpt lat="43.3729" lon="5.92785">
        <ele>409.7</ele>
        <time>2026-05-24T08:34:35.000Z</time>
      </trkpt>
      <trkpt lat="43.3729" lon="5.92797">
        <ele>409.5</ele>
        <time>2026-05-24T08:34:44.000Z</time>
      </trkpt>
      <trkpt lat="43.37288" lon="5.9281">
        <ele>409.7</ele>
        <time>2026-05-24T08:35:02.000Z</time>
      </trkpt>
      <trkpt lat="43.3728" lon="5.92819">
        <ele>409.9</ele>
        <time>2026-05-24T08:35:10.000Z</time>
      </trkpt>
      <trkpt lat="43.37275" lon="5.92831">
        <ele>409.9</ele>
        <time>2026-05-24T08:35:18.000Z</time>
      </trkpt>
      <trkpt lat="43.37267" lon="5.92839">
        <ele>409.8</ele>
        <time>2026-05-24T08:35:27.000Z</time>
      </trkpt>
      <trkpt lat="43.3726" lon="5.92848">
        <ele>409.7</ele>
        <time>2026-05-24T08:35:35.000Z</time>
      </trkpt>
      <trkpt lat="43.37255" lon="5.92858">
        <ele>409.6</ele>
        <time>2026-05-24T08:35:44.000Z</time>
      </trkpt>
      <trkpt lat="43.37251" lon="5.9287">
        <ele>409.6</ele>
        <time>2026-05-24T08:35:52.000Z</time>
      </trkpt>
      <trkpt lat="43.37246" lon="5.92882">
        <ele>409.5</ele>
        <time>2026-05-24T08:36:04.000Z</time>
      </trkpt>
      <trkpt lat="43.3724" lon="5.92892">
        <ele>409.4</ele>
        <time>2026-05-24T08:36:14.000Z</time>
      </trkpt>
      <trkpt lat="43.37232" lon="5.92899">
        <ele>409.2</ele>
        <time>2026-05-24T08:36:23.000Z</time>
      </trkpt>
      <trkpt lat="43.37223" lon="5.929">
        <ele>408.9</ele>
        <time>2026-05-24T08:36:32.000Z</time>
      </trkpt>
      <trkpt lat="43.37214" lon="5.92895">
        <ele>408.4</ele>
        <time>2026-05-24T08:36:44.000Z</time>
      </trkpt>
      <trkpt lat="43.37205" lon="5.9289">
        <ele>407.6</ele>
        <time>2026-05-24T08:36:55.000Z</time>
      </trkpt>
      <trkpt lat="43.37196" lon="5.92884">
        <ele>406.4</ele>
        <time>2026-05-24T08:37:05.000Z</time>
      </trkpt>
      <trkpt lat="43.37187" lon="5.92879">
        <ele>404.5</ele>
        <time>2026-05-24T08:37:17.000Z</time>
      </trkpt>
      <trkpt lat="43.37178" lon="5.92881">
        <ele>403.3</ele>
        <time>2026-05-24T08:37:27.000Z</time>
      </trkpt>
      <trkpt lat="43.37169" lon="5.92886">
        <ele>402.3</ele>
        <time>2026-05-24T08:37:36.000Z</time>
      </trkpt>
      <trkpt lat="43.37161" lon="5.9289">
        <ele>400.9</ele>
        <time>2026-05-24T08:37:46.000Z</time>
      </trkpt>
      <trkpt lat="43.37153" lon="5.92898">
        <ele>399.4</ele>
        <time>2026-05-24T08:37:58.000Z</time>
      </trkpt>
      <trkpt lat="43.37144" lon="5.92899">
        <ele>397.8</ele>
        <time>2026-05-24T08:38:10.000Z</time>
      </trkpt>
      <trkpt lat="43.37135" lon="5.92901">
        <ele>396.4</ele>
        <time>2026-05-24T08:38:20.000Z</time>
      </trkpt>
      <trkpt lat="43.37126" lon="5.92903">
        <ele>394.7</ele>
        <time>2026-05-24T08:38:32.000Z</time>
      </trkpt>
      <trkpt lat="43.37116" lon="5.92903">
        <ele>394</ele>
        <time>2026-05-24T08:38:41.000Z</time>
      </trkpt>
      <trkpt lat="43.37106" lon="5.92903">
        <ele>393.4</ele>
        <time>2026-05-24T08:38:52.000Z</time>
      </trkpt>
      <trkpt lat="43.37098" lon="5.92911">
        <ele>393.2</ele>
        <time>2026-05-24T08:39:00.000Z</time>
      </trkpt>
      <trkpt lat="43.3709" lon="5.92915">
        <ele>392.9</ele>
        <time>2026-05-24T08:39:12.000Z</time>
      </trkpt>
      <trkpt lat="43.37081" lon="5.92918">
        <ele>392.6</ele>
        <time>2026-05-24T08:39:21.000Z</time>
      </trkpt>
      <trkpt lat="43.37072" lon="5.92921">
        <ele>391.9</ele>
        <time>2026-05-24T08:39:32.000Z</time>
      </trkpt>
      <trkpt lat="43.37065" lon="5.92911">
        <ele>390.5</ele>
        <time>2026-05-24T08:39:47.000Z</time>
      </trkpt>
      <trkpt lat="43.37061" lon="5.92898">
        <ele>389.2</ele>
        <time>2026-05-24T08:39:56.000Z</time>
      </trkpt>
      <trkpt lat="43.37062" lon="5.92885">
        <ele>388.2</ele>
        <time>2026-05-24T08:40:07.000Z</time>
      </trkpt>
      <trkpt lat="43.3706" lon="5.92872">
        <ele>387.5</ele>
        <time>2026-05-24T08:40:15.000Z</time>
      </trkpt>
      <trkpt lat="43.37054" lon="5.92862">
        <ele>387.2</ele>
        <time>2026-05-24T08:40:22.000Z</time>
      </trkpt>
      <trkpt lat="43.37045" lon="5.92858">
        <ele>386.9</ele>
        <time>2026-05-24T08:40:32.000Z</time>
      </trkpt>
      <trkpt lat="43.37037" lon="5.92851">
        <ele>386.8</ele>
        <time>2026-05-24T08:40:40.000Z</time>
      </trkpt>
      <trkpt lat="43.3703" lon="5.92841">
        <ele>386.6</ele>
        <time>2026-05-24T08:40:48.000Z</time>
      </trkpt>
      <trkpt lat="43.37025" lon="5.92831">
        <ele>386.7</ele>
        <time>2026-05-24T08:40:56.000Z</time>
      </trkpt>
      <trkpt lat="43.37019" lon="5.9282">
        <ele>386.8</ele>
        <time>2026-05-24T08:41:05.000Z</time>
      </trkpt>
      <trkpt lat="43.37013" lon="5.9281">
        <ele>386.8</ele>
        <time>2026-05-24T08:41:13.000Z</time>
      </trkpt>
      <trkpt lat="43.37008" lon="5.92798">
        <ele>386.7</ele>
        <time>2026-05-24T08:41:22.000Z</time>
      </trkpt>
      <trkpt lat="43.37007" lon="5.92785">
        <ele>386.2</ele>
        <time>2026-05-24T08:41:32.000Z</time>
      </trkpt>
      <trkpt lat="43.37" lon="5.92776">
        <ele>383.8</ele>
        <time>2026-05-24T08:42:02.000Z</time>
      </trkpt>
      <trkpt lat="43.36991" lon="5.92774">
        <ele>383.7</ele>
        <time>2026-05-24T08:42:11.000Z</time>
      </trkpt>
      <trkpt lat="43.36981" lon="5.92771">
        <ele>384</ele>
        <time>2026-05-24T08:42:19.000Z</time>
      </trkpt>
      <trkpt lat="43.36974" lon="5.92763">
        <ele>383.9</ele>
        <time>2026-05-24T08:42:28.000Z</time>
      </trkpt>
      <trkpt lat="43.36976" lon="5.92751">
        <ele>383.8</ele>
        <time>2026-05-24T08:42:38.000Z</time>
      </trkpt>
      <trkpt lat="43.36979" lon="5.92739">
        <ele>383.8</ele>
        <time>2026-05-24T08:42:47.000Z</time>
      </trkpt>
      <trkpt lat="43.3698" lon="5.92725">
        <ele>383.7</ele>
        <time>2026-05-24T08:42:57.000Z</time>
      </trkpt>
      <trkpt lat="43.36983" lon="5.92713">
        <ele>383.8</ele>
        <time>2026-05-24T08:43:05.000Z</time>
      </trkpt>
      <trkpt lat="43.36983" lon="5.92701">
        <ele>383.8</ele>
        <time>2026-05-24T08:43:12.000Z</time>
      </trkpt>
      <trkpt lat="43.36981" lon="5.92688">
        <ele>383.8</ele>
        <time>2026-05-24T08:43:20.000Z</time>
      </trkpt>
      <trkpt lat="43.36976" lon="5.92677">
        <ele>383.8</ele>
        <time>2026-05-24T08:43:27.000Z</time>
      </trkpt>
      <trkpt lat="43.36974" lon="5.92665">
        <ele>383.4</ele>
        <time>2026-05-24T08:43:44.000Z</time>
      </trkpt>
      <trkpt lat="43.36972" lon="5.92651">
        <ele>383.1</ele>
        <time>2026-05-24T08:43:52.000Z</time>
      </trkpt>
      <trkpt lat="43.36968" lon="5.9264">
        <ele>383.1</ele>
        <time>2026-05-24T08:44:02.000Z</time>
      </trkpt>
      <trkpt lat="43.36968" lon="5.92627">
        <ele>383.7</ele>
        <time>2026-05-24T08:44:14.000Z</time>
      </trkpt>
      <trkpt lat="43.3697" lon="5.92613">
        <ele>384.2</ele>
        <time>2026-05-24T08:44:21.000Z</time>
      </trkpt>
      <trkpt lat="43.36972" lon="5.92601">
        <ele>384.3</ele>
        <time>2026-05-24T08:44:26.000Z</time>
      </trkpt>
      <trkpt lat="43.36974" lon="5.92588">
        <ele>384.4</ele>
        <time>2026-05-24T08:44:35.000Z</time>
      </trkpt>
      <trkpt lat="43.36979" lon="5.92576">
        <ele>384.5</ele>
        <time>2026-05-24T08:44:44.000Z</time>
      </trkpt>
      <trkpt lat="43.36986" lon="5.92566">
        <ele>384.5</ele>
        <time>2026-05-24T08:44:50.000Z</time>
      </trkpt>
      <trkpt lat="43.36989" lon="5.92552">
        <ele>384.4</ele>
        <time>2026-05-24T08:44:57.000Z</time>
      </trkpt>
      <trkpt lat="43.36991" lon="5.92539">
        <ele>384.1</ele>
        <time>2026-05-24T08:45:03.000Z</time>
      </trkpt>
      <trkpt lat="43.36988" lon="5.92527">
        <ele>383.5</ele>
        <time>2026-05-24T08:45:11.000Z</time>
      </trkpt>
      <trkpt lat="43.36983" lon="5.92515">
        <ele>382.5</ele>
        <time>2026-05-24T08:45:19.000Z</time>
      </trkpt>
      <trkpt lat="43.36973" lon="5.9251">
        <ele>381.5</ele>
        <time>2026-05-24T08:45:26.000Z</time>
      </trkpt>
      <trkpt lat="43.36964" lon="5.92504">
        <ele>380.5</ele>
        <time>2026-05-24T08:45:34.000Z</time>
      </trkpt>
      <trkpt lat="43.36955" lon="5.92504">
        <ele>379.9</ele>
        <time>2026-05-24T08:45:39.000Z</time>
      </trkpt>
      <trkpt lat="43.36946" lon="5.92497">
        <ele>379.1</ele>
        <time>2026-05-24T08:45:48.000Z</time>
      </trkpt>
      <trkpt lat="43.36938" lon="5.92489">
        <ele>377.6</ele>
        <time>2026-05-24T08:45:59.000Z</time>
      </trkpt>
      <trkpt lat="43.3693" lon="5.92482">
        <ele>376.6</ele>
        <time>2026-05-24T08:46:07.000Z</time>
      </trkpt>
      <trkpt lat="43.36923" lon="5.92474">
        <ele>374.7</ele>
        <time>2026-05-24T08:46:18.000Z</time>
      </trkpt>
      <trkpt lat="43.3692" lon="5.9247">
        <ele>373.5</ele>
        <time>2026-05-24T08:46:37.000Z</time>
      </trkpt>
      <trkpt lat="43.36916" lon="5.92466">
        <ele>373.5</ele>
        <time>2026-05-24T08:46:51.000Z</time>
      </trkpt>
      <trkpt lat="43.36909" lon="5.92459">
        <ele>373.3</ele>
        <time>2026-05-24T08:47:05.000Z</time>
      </trkpt>
      <trkpt lat="43.36907" lon="5.92458">
        <ele>373</ele>
        <time>2026-05-24T08:47:24.000Z</time>
      </trkpt>
      <trkpt lat="43.36904" lon="5.92459">
        <ele>372.9</ele>
        <time>2026-05-24T08:47:51.000Z</time>
      </trkpt>
      <trkpt lat="43.36902" lon="5.92459">
        <ele>372.9</ele>
        <time>2026-05-24T08:48:03.000Z</time>
      </trkpt>
      <trkpt lat="43.36903" lon="5.92465">
        <ele>373</ele>
        <time>2026-05-24T08:48:13.000Z</time>
      </trkpt>
      <trkpt lat="43.36903" lon="5.92471">
        <ele>373</ele>
        <time>2026-05-24T08:48:34.000Z</time>
      </trkpt>
      <trkpt lat="43.36901" lon="5.92475">
        <ele>373</ele>
        <time>2026-05-24T08:48:49.000Z</time>
      </trkpt>
      <trkpt lat="43.36901" lon="5.92475">
        <ele>373</ele>
        <time>2026-05-24T08:49:04.000Z</time>
      </trkpt>
      <trkpt lat="43.36904" lon="5.9247">
        <ele>373</ele>
        <time>2026-05-24T08:49:20.000Z</time>
      </trkpt>
      <trkpt lat="43.36905" lon="5.92469">
        <ele>373</ele>
        <time>2026-05-24T08:49:36.000Z</time>
      </trkpt>
      <trkpt lat="43.36903" lon="5.92472">
        <ele>373.7</ele>
        <time>2026-05-24T08:52:20.000Z</time>
      </trkpt>
      <trkpt lat="43.369" lon="5.92484">
        <ele>373.8</ele>
        <time>2026-05-24T08:52:36.000Z</time>
      </trkpt>
      <trkpt lat="43.36895" lon="5.92494">
        <ele>373.9</ele>
        <time>2026-05-24T08:52:58.000Z</time>
      </trkpt>
      <trkpt lat="43.36896" lon="5.92494">
        <ele>373.9</ele>
        <time>2026-05-24T08:53:14.000Z</time>
      </trkpt>
      <trkpt lat="43.36894" lon="5.92494">
        <ele>374</ele>
        <time>2026-05-24T08:53:24.000Z</time>
      </trkpt>
      <trkpt lat="43.36889" lon="5.92483">
        <ele>376.4</ele>
        <time>2026-05-24T08:54:19.000Z</time>
      </trkpt>
      <trkpt lat="43.3688" lon="5.92482">
        <ele>378.6</ele>
        <time>2026-05-24T08:54:46.000Z</time>
      </trkpt>
      <trkpt lat="43.36871" lon="5.92485">
        <ele>380.6</ele>
        <time>2026-05-24T08:55:02.000Z</time>
      </trkpt>
      <trkpt lat="43.36863" lon="5.92479">
        <ele>383.6</ele>
        <time>2026-05-24T08:55:32.000Z</time>
      </trkpt>
      <trkpt lat="43.36855" lon="5.92472">
        <ele>384.3</ele>
        <time>2026-05-24T08:55:45.000Z</time>
      </trkpt>
      <trkpt lat="43.3685" lon="5.92462">
        <ele>384.6</ele>
        <time>2026-05-24T08:56:24.000Z</time>
      </trkpt>
      <trkpt lat="43.36849" lon="5.92459">
        <ele>384.6</ele>
        <time>2026-05-24T08:56:37.000Z</time>
      </trkpt>
      <trkpt lat="43.36848" lon="5.92459">
        <ele>384.5</ele>
        <time>2026-05-24T08:57:08.000Z</time>
      </trkpt>
      <trkpt lat="43.36848" lon="5.9246">
        <ele>384.5</ele>
        <time>2026-05-24T08:57:41.000Z</time>
      </trkpt>
      <trkpt lat="43.36848" lon="5.9246">
        <ele>384.5</ele>
        <time>2026-05-24T08:57:57.000Z</time>
      </trkpt>
      <trkpt lat="43.36848" lon="5.9246">
        <ele>384.5</ele>
        <time>2026-05-24T08:58:43.000Z</time>
      </trkpt>
      <trkpt lat="43.36848" lon="5.9246">
        <ele>384.5</ele>
        <time>2026-05-24T08:58:54.000Z</time>
      </trkpt>
      <trkpt lat="43.36848" lon="5.92467">
        <ele>384.5</ele>
        <time>2026-05-24T08:59:32.000Z</time>
      </trkpt>
      <trkpt lat="43.36846" lon="5.9248">
        <ele>384.5</ele>
        <time>2026-05-24T08:59:43.000Z</time>
      </trkpt>
      <trkpt lat="43.36846" lon="5.92489">
        <ele>383.7</ele>
        <time>2026-05-24T09:01:42.000Z</time>
      </trkpt>
      <trkpt lat="43.36848" lon="5.92484">
        <ele>383.9</ele>
        <time>2026-05-24T09:01:56.000Z</time>
      </trkpt>
      <trkpt lat="43.36844" lon="5.92473">
        <ele>384.6</ele>
        <time>2026-05-24T09:03:12.000Z</time>
      </trkpt>
      <trkpt lat="43.36845" lon="5.92461">
        <ele>384.5</ele>
        <time>2026-05-24T09:03:43.000Z</time>
      </trkpt>
      <trkpt lat="43.36844" lon="5.92462">
        <ele>384.5</ele>
        <time>2026-05-24T09:03:44.000Z</time>
      </trkpt>
      <trkpt lat="43.36838" lon="5.92471">
        <ele>384.4</ele>
        <time>2026-05-24T09:03:55.000Z</time>
      </trkpt>
      <trkpt lat="43.36829" lon="5.9247">
        <ele>383.1</ele>
        <time>2026-05-24T09:04:13.000Z</time>
      </trkpt>
      <trkpt lat="43.3682" lon="5.92472">
        <ele>381.7</ele>
        <time>2026-05-24T09:04:38.000Z</time>
      </trkpt>
      <trkpt lat="43.36812" lon="5.9247">
        <ele>380.5</ele>
        <time>2026-05-24T09:05:15.000Z</time>
      </trkpt>
      <trkpt lat="43.36808" lon="5.92469">
        <ele>380.3</ele>
        <time>2026-05-24T09:05:32.000Z</time>
      </trkpt>
      <trkpt lat="43.36799" lon="5.92467">
        <ele>379.8</ele>
        <time>2026-05-24T09:05:49.000Z</time>
      </trkpt>
      <trkpt lat="43.36792" lon="5.92458">
        <ele>378.8</ele>
        <time>2026-05-24T09:06:05.000Z</time>
      </trkpt>
      <trkpt lat="43.36792" lon="5.92455">
        <ele>377.5</ele>
        <time>2026-05-24T09:06:27.000Z</time>
      </trkpt>
      <trkpt lat="43.36791" lon="5.92457">
        <ele>377.3</ele>
        <time>2026-05-24T09:06:43.000Z</time>
      </trkpt>
      <trkpt lat="43.36794" lon="5.92469">
        <ele>377.8</ele>
        <time>2026-05-24T09:07:00.000Z</time>
      </trkpt>
      <trkpt lat="43.36799" lon="5.92481">
        <ele>378.8</ele>
        <time>2026-05-24T09:07:14.000Z</time>
      </trkpt>
      <trkpt lat="43.36797" lon="5.92494">
        <ele>379.7</ele>
        <time>2026-05-24T09:07:24.000Z</time>
      </trkpt>
      <trkpt lat="43.36796" lon="5.92507">
        <ele>380.4</ele>
        <time>2026-05-24T09:07:35.000Z</time>
      </trkpt>
      <trkpt lat="43.36791" lon="5.92519">
        <ele>380.7</ele>
        <time>2026-05-24T09:07:46.000Z</time>
      </trkpt>
      <trkpt lat="43.36788" lon="5.92531">
        <ele>380.6</ele>
        <time>2026-05-24T09:07:55.000Z</time>
      </trkpt>
      <trkpt lat="43.36793" lon="5.92544">
        <ele>380.6</ele>
        <time>2026-05-24T09:08:03.000Z</time>
      </trkpt>
      <trkpt lat="43.36797" lon="5.92555">
        <ele>380.6</ele>
        <time>2026-05-24T09:08:13.000Z</time>
      </trkpt>
      <trkpt lat="43.36804" lon="5.92564">
        <ele>380.9</ele>
        <time>2026-05-24T09:08:21.000Z</time>
      </trkpt>
      <trkpt lat="43.36807" lon="5.92576">
        <ele>381.4</ele>
        <time>2026-05-24T09:08:32.000Z</time>
      </trkpt>
      <trkpt lat="43.36806" lon="5.92589">
        <ele>382</ele>
        <time>2026-05-24T09:08:43.000Z</time>
      </trkpt>
      <trkpt lat="43.36805" lon="5.9259">
        <ele>382.2</ele>
        <time>2026-05-24T09:08:57.000Z</time>
      </trkpt>
      <trkpt lat="43.36805" lon="5.92595">
        <ele>382.3</ele>
        <time>2026-05-24T09:09:11.000Z</time>
      </trkpt>
      <trkpt lat="43.36802" lon="5.92609">
        <ele>382.3</ele>
        <time>2026-05-24T09:09:21.000Z</time>
      </trkpt>
      <trkpt lat="43.36804" lon="5.9262">
        <ele>383.3</ele>
        <time>2026-05-24T09:09:47.000Z</time>
      </trkpt>
      <trkpt lat="43.36807" lon="5.92625">
        <ele>383.5</ele>
        <time>2026-05-24T09:10:15.000Z</time>
      </trkpt>
      <trkpt lat="43.36804" lon="5.92637">
        <ele>383.9</ele>
        <time>2026-05-24T09:10:41.000Z</time>
      </trkpt>
      <trkpt lat="43.36804" lon="5.9265">
        <ele>384.7</ele>
        <time>2026-05-24T09:10:53.000Z</time>
      </trkpt>
      <trkpt lat="43.36798" lon="5.92661">
        <ele>386.5</ele>
        <time>2026-05-24T09:11:16.000Z</time>
      </trkpt>
      <trkpt lat="43.3679" lon="5.92669">
        <ele>386.3</ele>
        <time>2026-05-24T09:11:33.000Z</time>
      </trkpt>
      <trkpt lat="43.36782" lon="5.92674">
        <ele>385.6</ele>
        <time>2026-05-24T09:11:51.000Z</time>
      </trkpt>
      <trkpt lat="43.36775" lon="5.92681">
        <ele>384.8</ele>
        <time>2026-05-24T09:12:18.000Z</time>
      </trkpt>
      <trkpt lat="43.36768" lon="5.9269">
        <ele>384.7</ele>
        <time>2026-05-24T09:12:34.000Z</time>
      </trkpt>
      <trkpt lat="43.36759" lon="5.92695">
        <ele>383.5</ele>
        <time>2026-05-24T09:13:10.000Z</time>
      </trkpt>
      <trkpt lat="43.36749" lon="5.92689">
        <ele>383</ele>
        <time>2026-05-24T09:13:25.000Z</time>
      </trkpt>
      <trkpt lat="43.36741" lon="5.92695">
        <ele>382.9</ele>
        <time>2026-05-24T09:13:35.000Z</time>
      </trkpt>
      <trkpt lat="43.36735" lon="5.92705">
        <ele>382.7</ele>
        <time>2026-05-24T09:13:45.000Z</time>
      </trkpt>
      <trkpt lat="43.36728" lon="5.92712">
        <ele>382.3</ele>
        <time>2026-05-24T09:14:08.000Z</time>
      </trkpt>
      <trkpt lat="43.36719" lon="5.92711">
        <ele>382.5</ele>
        <time>2026-05-24T09:14:27.000Z</time>
      </trkpt>
      <trkpt lat="43.36719" lon="5.92698">
        <ele>382.2</ele>
        <time>2026-05-24T09:14:41.000Z</time>
      </trkpt>
      <trkpt lat="43.36715" lon="5.92686">
        <ele>381.6</ele>
        <time>2026-05-24T09:14:52.000Z</time>
      </trkpt>
      <trkpt lat="43.36708" lon="5.92677">
        <ele>380.4</ele>
        <time>2026-05-24T09:15:11.000Z</time>
      </trkpt>
      <trkpt lat="43.367" lon="5.92673">
        <ele>379.7</ele>
        <time>2026-05-24T09:15:36.000Z</time>
      </trkpt>
      <trkpt lat="43.36691" lon="5.92673">
        <ele>379.9</ele>
        <time>2026-05-24T09:15:55.000Z</time>
      </trkpt>
      <trkpt lat="43.36683" lon="5.9268">
        <ele>379.9</ele>
        <time>2026-05-24T09:16:31.000Z</time>
      </trkpt>
      <trkpt lat="43.36679" lon="5.92668">
        <ele>379.6</ele>
        <time>2026-05-24T09:17:19.000Z</time>
      </trkpt>
      <trkpt lat="43.36676" lon="5.92657">
        <ele>379.3</ele>
        <time>2026-05-24T09:17:29.000Z</time>
      </trkpt>
      <trkpt lat="43.36677" lon="5.92644">
        <ele>378.8</ele>
        <time>2026-05-24T09:17:39.000Z</time>
      </trkpt>
      <trkpt lat="43.36676" lon="5.9263">
        <ele>378.5</ele>
        <time>2026-05-24T09:17:49.000Z</time>
      </trkpt>
      <trkpt lat="43.36675" lon="5.92617">
        <ele>378.3</ele>
        <time>2026-05-24T09:17:56.000Z</time>
      </trkpt>
      <trkpt lat="43.36671" lon="5.92605">
        <ele>377.7</ele>
        <time>2026-05-24T09:18:11.000Z</time>
      </trkpt>
      <trkpt lat="43.3667" lon="5.92592">
        <ele>377.1</ele>
        <time>2026-05-24T09:18:23.000Z</time>
      </trkpt>
      <trkpt lat="43.36664" lon="5.92582">
        <ele>376.2</ele>
        <time>2026-05-24T09:18:40.000Z</time>
      </trkpt>
      <trkpt lat="43.36656" lon="5.92578">
        <ele>375.6</ele>
        <time>2026-05-24T09:19:00.000Z</time>
      </trkpt>
      <trkpt lat="43.36647" lon="5.92584">
        <ele>375.1</ele>
        <time>2026-05-24T09:19:10.000Z</time>
      </trkpt>
      <trkpt lat="43.36637" lon="5.92585">
        <ele>373.9</ele>
        <time>2026-05-24T09:19:34.000Z</time>
      </trkpt>
      <trkpt lat="43.36628" lon="5.92587">
        <ele>373.3</ele>
        <time>2026-05-24T09:19:45.000Z</time>
      </trkpt>
      <trkpt lat="43.36619" lon="5.92588">
        <ele>372.6</ele>
        <time>2026-05-24T09:19:59.000Z</time>
      </trkpt>
      <trkpt lat="43.36609" lon="5.92589">
        <ele>372.3</ele>
        <time>2026-05-24T09:20:10.000Z</time>
      </trkpt>
      <trkpt lat="43.36601" lon="5.92594">
        <ele>371.9</ele>
        <time>2026-05-24T09:20:21.000Z</time>
      </trkpt>
      <trkpt lat="43.36592" lon="5.92601">
        <ele>371.2</ele>
        <time>2026-05-24T09:20:32.000Z</time>
      </trkpt>
      <trkpt lat="43.36585" lon="5.9261">
        <ele>370.9</ele>
        <time>2026-05-24T09:20:45.000Z</time>
      </trkpt>
      <trkpt lat="43.36577" lon="5.92616">
        <ele>370.9</ele>
        <time>2026-05-24T09:20:57.000Z</time>
      </trkpt>
      <trkpt lat="43.36567" lon="5.92618">
        <ele>370.7</ele>
        <time>2026-05-24T09:21:08.000Z</time>
      </trkpt>
      <trkpt lat="43.3656" lon="5.92626">
        <ele>370.5</ele>
        <time>2026-05-24T09:21:16.000Z</time>
      </trkpt>
      <trkpt lat="43.36553" lon="5.92634">
        <ele>370.2</ele>
        <time>2026-05-24T09:21:28.000Z</time>
      </trkpt>
      <trkpt lat="43.36552" lon="5.92647">
        <ele>370.3</ele>
        <time>2026-05-24T09:21:36.000Z</time>
      </trkpt>
      <trkpt lat="43.36545" lon="5.92638">
        <ele>370.6</ele>
        <time>2026-05-24T09:22:23.000Z</time>
      </trkpt>
      <trkpt lat="43.36538" lon="5.9263">
        <ele>370.6</ele>
        <time>2026-05-24T09:22:35.000Z</time>
      </trkpt>
      <trkpt lat="43.36532" lon="5.92619">
        <ele>370.4</ele>
        <time>2026-05-24T09:22:46.000Z</time>
      </trkpt>
      <trkpt lat="43.36526" lon="5.9261">
        <ele>369.9</ele>
        <time>2026-05-24T09:22:56.000Z</time>
      </trkpt>
      <trkpt lat="43.36519" lon="5.92601">
        <ele>369.4</ele>
        <time>2026-05-24T09:23:05.000Z</time>
      </trkpt>
      <trkpt lat="43.36513" lon="5.92591">
        <ele>369.2</ele>
        <time>2026-05-24T09:23:13.000Z</time>
      </trkpt>
      <trkpt lat="43.36508" lon="5.9258">
        <ele>369.1</ele>
        <time>2026-05-24T09:23:24.000Z</time>
      </trkpt>
      <trkpt lat="43.36505" lon="5.92567">
        <ele>369</ele>
        <time>2026-05-24T09:23:33.000Z</time>
      </trkpt>
      <trkpt lat="43.36502" lon="5.92555">
        <ele>368.7</ele>
        <time>2026-05-24T09:24:02.000Z</time>
      </trkpt>
      <trkpt lat="43.36498" lon="5.92544">
        <ele>368.4</ele>
        <time>2026-05-24T09:24:32.000Z</time>
      </trkpt>
      <trkpt lat="43.36496" lon="5.9253">
        <ele>368.3</ele>
        <time>2026-05-24T09:24:41.000Z</time>
      </trkpt>
      <trkpt lat="43.36498" lon="5.92518">
        <ele>368.2</ele>
        <time>2026-05-24T09:24:48.000Z</time>
      </trkpt>
      <trkpt lat="43.36497" lon="5.92504">
        <ele>368</ele>
        <time>2026-05-24T09:24:57.000Z</time>
      </trkpt>
      <trkpt lat="43.36495" lon="5.92491">
        <ele>367.8</ele>
        <time>2026-05-24T09:25:06.000Z</time>
      </trkpt>
      <trkpt lat="43.36493" lon="5.92478">
        <ele>367.4</ele>
        <time>2026-05-24T09:25:14.000Z</time>
      </trkpt>
      <trkpt lat="43.36492" lon="5.92465">
        <ele>366.8</ele>
        <time>2026-05-24T09:25:22.000Z</time>
      </trkpt>
      <trkpt lat="43.36488" lon="5.92453">
        <ele>366.4</ele>
        <time>2026-05-24T09:25:29.000Z</time>
      </trkpt>
      <trkpt lat="43.36485" lon="5.92439">
        <ele>366.2</ele>
        <time>2026-05-24T09:25:38.000Z</time>
      </trkpt>
      <trkpt lat="43.36484" lon="5.92426">
        <ele>366</ele>
        <time>2026-05-24T09:25:48.000Z</time>
      </trkpt>
      <trkpt lat="43.36483" lon="5.92413">
        <ele>365.8</ele>
        <time>2026-05-24T09:25:57.000Z</time>
      </trkpt>
      <trkpt lat="43.36485" lon="5.92399">
        <ele>365.7</ele>
        <time>2026-05-24T09:26:05.000Z</time>
      </trkpt>
      <trkpt lat="43.36488" lon="5.92386">
        <ele>365.8</ele>
        <time>2026-05-24T09:26:13.000Z</time>
      </trkpt>
      <trkpt lat="43.36491" lon="5.92374">
        <ele>365.8</ele>
        <time>2026-05-24T09:26:21.000Z</time>
      </trkpt>
      <trkpt lat="43.36493" lon="5.92361">
        <ele>365.7</ele>
        <time>2026-05-24T09:26:30.000Z</time>
      </trkpt>
      <trkpt lat="43.36489" lon="5.92348">
        <ele>365.5</ele>
        <time>2026-05-24T09:26:40.000Z</time>
      </trkpt>
      <trkpt lat="43.36485" lon="5.92337">
        <ele>364.5</ele>
        <time>2026-05-24T09:27:08.000Z</time>
      </trkpt>
      <trkpt lat="43.36482" lon="5.92324">
        <ele>364.2</ele>
        <time>2026-05-24T09:27:16.000Z</time>
      </trkpt>
      <trkpt lat="43.36479" lon="5.92311">
        <ele>363.8</ele>
        <time>2026-05-24T09:27:24.000Z</time>
      </trkpt>
      <trkpt lat="43.36479" lon="5.92298">
        <ele>363.3</ele>
        <time>2026-05-24T09:27:31.000Z</time>
      </trkpt>
      <trkpt lat="43.36478" lon="5.92285">
        <ele>362.9</ele>
        <time>2026-05-24T09:27:38.000Z</time>
      </trkpt>
      <trkpt lat="43.36473" lon="5.92274">
        <ele>362.3</ele>
        <time>2026-05-24T09:27:45.000Z</time>
      </trkpt>
      <trkpt lat="43.3647" lon="5.92262">
        <ele>361.7</ele>
        <time>2026-05-24T09:27:52.000Z</time>
      </trkpt>
      <trkpt lat="43.36467" lon="5.9225">
        <ele>361.1</ele>
        <time>2026-05-24T09:28:01.000Z</time>
      </trkpt>
      <trkpt lat="43.36468" lon="5.92241">
        <ele>360.5</ele>
        <time>2026-05-24T09:28:31.000Z</time>
      </trkpt>
      <trkpt lat="43.36467" lon="5.92242">
        <ele>360.5</ele>
        <time>2026-05-24T09:28:39.000Z</time>
      </trkpt>
      <trkpt lat="43.36467" lon="5.92243">
        <ele>360.5</ele>
        <time>2026-05-24T09:28:52.000Z</time>
      </trkpt>
      <trkpt lat="43.36467" lon="5.92243">
        <ele>360.4</ele>
        <time>2026-05-24T09:29:09.000Z</time>
      </trkpt>
      <trkpt lat="43.36467" lon="5.92229">
        <ele>360.4</ele>
        <time>2026-05-24T09:29:19.000Z</time>
      </trkpt>
      <trkpt lat="43.36471" lon="5.92218">
        <ele>360.3</ele>
        <time>2026-05-24T09:29:27.000Z</time>
      </trkpt>
      <trkpt lat="43.36472" lon="5.92205">
        <ele>360.3</ele>
        <time>2026-05-24T09:29:39.000Z</time>
      </trkpt>
      <trkpt lat="43.36475" lon="5.92193">
        <ele>360.4</ele>
        <time>2026-05-24T09:29:48.000Z</time>
      </trkpt>
      <trkpt lat="43.36476" lon="5.92179">
        <ele>360.4</ele>
        <time>2026-05-24T09:29:57.000Z</time>
      </trkpt>
      <trkpt lat="43.36479" lon="5.92166">
        <ele>360.4</ele>
        <time>2026-05-24T09:30:06.000Z</time>
      </trkpt>
      <trkpt lat="43.36479" lon="5.92153">
        <ele>360.3</ele>
        <time>2026-05-24T09:30:16.000Z</time>
      </trkpt>
      <trkpt lat="43.36481" lon="5.92141">
        <ele>360.2</ele>
        <time>2026-05-24T09:30:29.000Z</time>
      </trkpt>
      <trkpt lat="43.36482" lon="5.92129">
        <ele>360</ele>
        <time>2026-05-24T09:30:41.000Z</time>
      </trkpt>
      <trkpt lat="43.36481" lon="5.92115">
        <ele>359.4</ele>
        <time>2026-05-24T09:31:09.000Z</time>
      </trkpt>
      <trkpt lat="43.36478" lon="5.92103">
        <ele>359.2</ele>
        <time>2026-05-24T09:31:22.000Z</time>
      </trkpt>
      <trkpt lat="43.3648" lon="5.92092">
        <ele>359.3</ele>
        <time>2026-05-24T09:32:25.000Z</time>
      </trkpt>
      <trkpt lat="43.3648" lon="5.9209">
        <ele>359.3</ele>
        <time>2026-05-24T09:32:50.000Z</time>
      </trkpt>
      <trkpt lat="43.3648" lon="5.9209">
        <ele>359.4</ele>
        <time>2026-05-24T09:33:01.000Z</time>
      </trkpt>
      <trkpt lat="43.3648" lon="5.9209">
        <ele>359.5</ele>
        <time>2026-05-24T09:33:24.000Z</time>
      </trkpt>
      <trkpt lat="43.36478" lon="5.92102">
        <ele>359.6</ele>
        <time>2026-05-24T09:33:38.000Z</time>
      </trkpt>
      <trkpt lat="43.3648" lon="5.92116">
        <ele>359.4</ele>
        <time>2026-05-24T09:34:03.000Z</time>
      </trkpt>
      <trkpt lat="43.36476" lon="5.92128">
        <ele>359.5</ele>
        <time>2026-05-24T09:34:15.000Z</time>
      </trkpt>
      <trkpt lat="43.36473" lon="5.9214">
        <ele>359.7</ele>
        <time>2026-05-24T09:34:24.000Z</time>
      </trkpt>
      <trkpt lat="43.36474" lon="5.92152">
        <ele>359.9</ele>
        <time>2026-05-24T09:34:36.000Z</time>
      </trkpt>
      <trkpt lat="43.3648" lon="5.92161">
        <ele>359.7</ele>
        <time>2026-05-24T09:35:18.000Z</time>
      </trkpt>
      <trkpt lat="43.36486" lon="5.92162">
        <ele>357.1</ele>
        <time>2026-05-24T09:36:02.000Z</time>
      </trkpt>
      <trkpt lat="43.36488" lon="5.92163">
        <ele>357</ele>
        <time>2026-05-24T09:36:24.000Z</time>
      </trkpt>
      <trkpt lat="43.36497" lon="5.92165">
        <ele>355.8</ele>
        <time>2026-05-24T09:36:41.000Z</time>
      </trkpt>
      <trkpt lat="43.36506" lon="5.92168">
        <ele>354.4</ele>
        <time>2026-05-24T09:37:00.000Z</time>
      </trkpt>
      <trkpt lat="43.36512" lon="5.92159">
        <ele>352.2</ele>
        <time>2026-05-24T09:37:30.000Z</time>
      </trkpt>
      <trkpt lat="43.36514" lon="5.92158">
        <ele>350.7</ele>
        <time>2026-05-24T09:37:57.000Z</time>
      </trkpt>
      <trkpt lat="43.36516" lon="5.92158">
        <ele>350.5</ele>
        <time>2026-05-24T09:38:21.000Z</time>
      </trkpt>
      <trkpt lat="43.3652" lon="5.92152">
        <ele>349.9</ele>
        <time>2026-05-24T09:38:54.000Z</time>
      </trkpt>
      <trkpt lat="43.36522" lon="5.92155">
        <ele>349.6</ele>
        <time>2026-05-24T09:39:10.000Z</time>
      </trkpt>
      <trkpt lat="43.36525" lon="5.92153">
        <ele>349</ele>
        <time>2026-05-24T09:39:44.000Z</time>
      </trkpt>
      <trkpt lat="43.36524" lon="5.92155">
        <ele>348.9</ele>
        <time>2026-05-24T09:39:56.000Z</time>
      </trkpt>
      <trkpt lat="43.36523" lon="5.92156">
        <ele>349.1</ele>
        <time>2026-05-24T09:40:25.000Z</time>
      </trkpt>
      <trkpt lat="43.36523" lon="5.92155">
        <ele>349.1</ele>
        <time>2026-05-24T09:41:37.000Z</time>
      </trkpt>
      <trkpt lat="43.36515" lon="5.92149">
        <ele>349.1</ele>
        <time>2026-05-24T09:42:03.000Z</time>
      </trkpt>
      <trkpt lat="43.36507" lon="5.92144">
        <ele>349.3</ele>
        <time>2026-05-24T09:42:32.000Z</time>
      </trkpt>
      <trkpt lat="43.36501" lon="5.92135">
        <ele>350.5</ele>
        <time>2026-05-24T09:42:57.000Z</time>
      </trkpt>
      <trkpt lat="43.36498" lon="5.92122">
        <ele>351.5</ele>
        <time>2026-05-24T09:43:18.000Z</time>
      </trkpt>
      <trkpt lat="43.36496" lon="5.9211">
        <ele>351.7</ele>
        <time>2026-05-24T09:43:34.000Z</time>
      </trkpt>
      <trkpt lat="43.36494" lon="5.92098">
        <ele>351.8</ele>
        <time>2026-05-24T09:43:53.000Z</time>
      </trkpt>
      <trkpt lat="43.36493" lon="5.92086">
        <ele>352</ele>
        <time>2026-05-24T09:44:17.000Z</time>
      </trkpt>
      <trkpt lat="43.36487" lon="5.92076">
        <ele>352.1</ele>
        <time>2026-05-24T09:44:47.000Z</time>
      </trkpt>
      <trkpt lat="43.36485" lon="5.92064">
        <ele>351.8</ele>
        <time>2026-05-24T09:45:09.000Z</time>
      </trkpt>
      <trkpt lat="43.36478" lon="5.92055">
        <ele>351.6</ele>
        <time>2026-05-24T09:45:26.000Z</time>
      </trkpt>
      <trkpt lat="43.36471" lon="5.92047">
        <ele>352.2</ele>
        <time>2026-05-24T09:45:43.000Z</time>
      </trkpt>
      <trkpt lat="43.36463" lon="5.9204">
        <ele>352.9</ele>
        <time>2026-05-24T09:45:54.000Z</time>
      </trkpt>
      <trkpt lat="43.3646" lon="5.92027">
        <ele>353.6</ele>
        <time>2026-05-24T09:46:05.000Z</time>
      </trkpt>
      <trkpt lat="43.36457" lon="5.92015">
        <ele>353.4</ele>
        <time>2026-05-24T09:46:16.000Z</time>
      </trkpt>
      <trkpt lat="43.3645" lon="5.92006">
        <ele>353.1</ele>
        <time>2026-05-24T09:46:27.000Z</time>
      </trkpt>
      <trkpt lat="43.36443" lon="5.91998">
        <ele>353</ele>
        <time>2026-05-24T09:46:38.000Z</time>
      </trkpt>
      <trkpt lat="43.36437" lon="5.91988">
        <ele>352.8</ele>
        <time>2026-05-24T09:46:48.000Z</time>
      </trkpt>
      <trkpt lat="43.36428" lon="5.91983">
        <ele>352.4</ele>
        <time>2026-05-24T09:46:56.000Z</time>
      </trkpt>
      <trkpt lat="43.36421" lon="5.91979">
        <ele>352.1</ele>
        <time>2026-05-24T09:47:30.000Z</time>
      </trkpt>
      <trkpt lat="43.36419" lon="5.91977">
        <ele>352.1</ele>
        <time>2026-05-24T09:47:39.000Z</time>
      </trkpt>
      <trkpt lat="43.3641" lon="5.91982">
        <ele>352.2</ele>
        <time>2026-05-24T09:47:49.000Z</time>
      </trkpt>
      <trkpt lat="43.36402" lon="5.91989">
        <ele>352.6</ele>
        <time>2026-05-24T09:48:00.000Z</time>
      </trkpt>
      <trkpt lat="43.36399" lon="5.91977">
        <ele>353.6</ele>
        <time>2026-05-24T09:48:20.000Z</time>
      </trkpt>
      <trkpt lat="43.36401" lon="5.91965">
        <ele>353.7</ele>
        <time>2026-05-24T09:48:33.000Z</time>
      </trkpt>
      <trkpt lat="43.36402" lon="5.91952">
        <ele>353.7</ele>
        <time>2026-05-24T09:48:45.000Z</time>
      </trkpt>
      <trkpt lat="43.36404" lon="5.9194">
        <ele>353.8</ele>
        <time>2026-05-24T09:48:54.000Z</time>
      </trkpt>
      <trkpt lat="43.36403" lon="5.91926">
        <ele>353.9</ele>
        <time>2026-05-24T09:49:06.000Z</time>
      </trkpt>
      <trkpt lat="43.36405" lon="5.91913">
        <ele>354.1</ele>
        <time>2026-05-24T09:49:17.000Z</time>
      </trkpt>
      <trkpt lat="43.36407" lon="5.919">
        <ele>354.2</ele>
        <time>2026-05-24T09:49:26.000Z</time>
      </trkpt>
      <trkpt lat="43.36409" lon="5.91888">
        <ele>354.4</ele>
        <time>2026-05-24T09:49:35.000Z</time>
      </trkpt>
      <trkpt lat="43.3641" lon="5.91874">
        <ele>354.6</ele>
        <time>2026-05-24T09:49:45.000Z</time>
      </trkpt>
      <trkpt lat="43.36411" lon="5.91861">
        <ele>354.9</ele>
        <time>2026-05-24T09:49:55.000Z</time>
      </trkpt>
      <trkpt lat="43.36413" lon="5.91847">
        <ele>355.2</ele>
        <time>2026-05-24T09:50:05.000Z</time>
      </trkpt>
      <trkpt lat="43.36415" lon="5.91834">
        <ele>355.6</ele>
        <time>2026-05-24T09:50:15.000Z</time>
      </trkpt>
      <trkpt lat="43.36418" lon="5.91822">
        <ele>355.9</ele>
        <time>2026-05-24T09:50:23.000Z</time>
      </trkpt>
      <trkpt lat="43.3642" lon="5.9181">
        <ele>356.1</ele>
        <time>2026-05-24T09:50:31.000Z</time>
      </trkpt>
      <trkpt lat="43.36422" lon="5.91797">
        <ele>356.3</ele>
        <time>2026-05-24T09:50:40.000Z</time>
      </trkpt>
      <trkpt lat="43.36426" lon="5.91786">
        <ele>356.4</ele>
        <time>2026-05-24T09:50:53.000Z</time>
      </trkpt>
      <trkpt lat="43.36432" lon="5.91776">
        <ele>356.6</ele>
        <time>2026-05-24T09:51:02.000Z</time>
      </trkpt>
      <trkpt lat="43.36439" lon="5.91767">
        <ele>356.7</ele>
        <time>2026-05-24T09:51:11.000Z</time>
      </trkpt>
      <trkpt lat="43.36446" lon="5.91758">
        <ele>357</ele>
        <time>2026-05-24T09:51:21.000Z</time>
      </trkpt>
      <trkpt lat="43.36454" lon="5.91751">
        <ele>357.3</ele>
        <time>2026-05-24T09:51:32.000Z</time>
      </trkpt>
      <trkpt lat="43.36461" lon="5.91742">
        <ele>357.9</ele>
        <time>2026-05-24T09:51:41.000Z</time>
      </trkpt>
      <trkpt lat="43.36468" lon="5.91734">
        <ele>358.6</ele>
        <time>2026-05-24T09:51:51.000Z</time>
      </trkpt>
      <trkpt lat="43.36475" lon="5.91725">
        <ele>359.2</ele>
        <time>2026-05-24T09:52:02.000Z</time>
      </trkpt>
      <trkpt lat="43.36483" lon="5.91718">
        <ele>359.6</ele>
        <time>2026-05-24T09:52:13.000Z</time>
      </trkpt>
      <trkpt lat="43.36492" lon="5.91712">
        <ele>359.9</ele>
        <time>2026-05-24T09:52:29.000Z</time>
      </trkpt>
      <trkpt lat="43.365" lon="5.91705">
        <ele>360</ele>
        <time>2026-05-24T09:52:39.000Z</time>
      </trkpt>
      <trkpt lat="43.36507" lon="5.91696">
        <ele>360.2</ele>
        <time>2026-05-24T09:52:48.000Z</time>
      </trkpt>
      <trkpt lat="43.36511" lon="5.91685">
        <ele>360.4</ele>
        <time>2026-05-24T09:52:55.000Z</time>
      </trkpt>
      <trkpt lat="43.36517" lon="5.91674">
        <ele>360.5</ele>
        <time>2026-05-24T09:53:03.000Z</time>
      </trkpt>
      <trkpt lat="43.36521" lon="5.91663">
        <ele>360.7</ele>
        <time>2026-05-24T09:53:11.000Z</time>
      </trkpt>
      <trkpt lat="43.36524" lon="5.91651">
        <ele>360.8</ele>
        <time>2026-05-24T09:53:19.000Z</time>
      </trkpt>
      <trkpt lat="43.36527" lon="5.91639">
        <ele>361</ele>
        <time>2026-05-24T09:53:27.000Z</time>
      </trkpt>
      <trkpt lat="43.3653" lon="5.91627">
        <ele>361.3</ele>
        <time>2026-05-24T09:53:37.000Z</time>
      </trkpt>
      <trkpt lat="43.36533" lon="5.91614">
        <ele>361.5</ele>
        <time>2026-05-24T09:53:47.000Z</time>
      </trkpt>
      <trkpt lat="43.36538" lon="5.91602">
        <ele>361.8</ele>
        <time>2026-05-24T09:53:55.000Z</time>
      </trkpt>
      <trkpt lat="43.36541" lon="5.91589">
        <ele>362.3</ele>
        <time>2026-05-24T09:54:05.000Z</time>
      </trkpt>
      <trkpt lat="43.36545" lon="5.91577">
        <ele>362.6</ele>
        <time>2026-05-24T09:54:15.000Z</time>
      </trkpt>
      <trkpt lat="43.36549" lon="5.91566">
        <ele>362.7</ele>
        <time>2026-05-24T09:54:24.000Z</time>
      </trkpt>
      <trkpt lat="43.36555" lon="5.91556">
        <ele>362.9</ele>
        <time>2026-05-24T09:54:32.000Z</time>
      </trkpt>
      <trkpt lat="43.36559" lon="5.91545">
        <ele>362.9</ele>
        <time>2026-05-24T09:54:42.000Z</time>
      </trkpt>
      <trkpt lat="43.36565" lon="5.91533">
        <ele>363.3</ele>
        <time>2026-05-24T09:54:53.000Z</time>
      </trkpt>
      <trkpt lat="43.3657" lon="5.91522">
        <ele>363.6</ele>
        <time>2026-05-24T09:55:02.000Z</time>
      </trkpt>
      <trkpt lat="43.36576" lon="5.9151">
        <ele>363.7</ele>
        <time>2026-05-24T09:55:12.000Z</time>
      </trkpt>
      <trkpt lat="43.36582" lon="5.915">
        <ele>363.6</ele>
        <time>2026-05-24T09:55:21.000Z</time>
      </trkpt>
      <trkpt lat="43.3659" lon="5.91498">
        <ele>363.7</ele>
        <time>2026-05-24T09:55:31.000Z</time>
      </trkpt>
      <trkpt lat="43.366" lon="5.915">
        <ele>363.9</ele>
        <time>2026-05-24T09:55:42.000Z</time>
      </trkpt>
      <trkpt lat="43.36606" lon="5.9151">
        <ele>364.3</ele>
        <time>2026-05-24T09:55:55.000Z</time>
      </trkpt>
      <trkpt lat="43.36604" lon="5.91522">
        <ele>364.6</ele>
        <time>2026-05-24T09:56:08.000Z</time>
      </trkpt>
      <trkpt lat="43.36603" lon="5.91535">
        <ele>364.9</ele>
        <time>2026-05-24T09:56:19.000Z</time>
      </trkpt>
      <trkpt lat="43.36606" lon="5.91547">
        <ele>365.1</ele>
        <time>2026-05-24T09:56:42.000Z</time>
      </trkpt>
      <trkpt lat="43.36607" lon="5.91547">
        <ele>365.1</ele>
        <time>2026-05-24T09:56:57.000Z</time>
      </trkpt>
      <trkpt lat="43.36608" lon="5.91545">
        <ele>365.2</ele>
        <time>2026-05-24T09:57:52.000Z</time>
      </trkpt>
      <trkpt lat="43.36616" lon="5.91538">
        <ele>365.2</ele>
        <time>2026-05-24T09:58:06.000Z</time>
      </trkpt>
      <trkpt lat="43.36624" lon="5.91532">
        <ele>365.3</ele>
        <time>2026-05-24T09:58:14.000Z</time>
      </trkpt>
      <trkpt lat="43.36632" lon="5.91525">
        <ele>365.5</ele>
        <time>2026-05-24T09:58:25.000Z</time>
      </trkpt>
      <trkpt lat="43.3664" lon="5.91517">
        <ele>366.1</ele>
        <time>2026-05-24T09:58:35.000Z</time>
      </trkpt>
      <trkpt lat="43.36649" lon="5.91512">
        <ele>367</ele>
        <time>2026-05-24T09:58:47.000Z</time>
      </trkpt>
      <trkpt lat="43.36659" lon="5.9151">
        <ele>367.6</ele>
        <time>2026-05-24T09:58:55.000Z</time>
      </trkpt>
      <trkpt lat="43.36668" lon="5.91513">
        <ele>368.2</ele>
        <time>2026-05-24T09:59:05.000Z</time>
      </trkpt>
      <trkpt lat="43.36678" lon="5.91517">
        <ele>368.9</ele>
        <time>2026-05-24T09:59:15.000Z</time>
      </trkpt>
      <trkpt lat="43.36687" lon="5.91518">
        <ele>369.4</ele>
        <time>2026-05-24T09:59:24.000Z</time>
      </trkpt>
      <trkpt lat="43.36697" lon="5.91516">
        <ele>370.1</ele>
        <time>2026-05-24T09:59:34.000Z</time>
      </trkpt>
      <trkpt lat="43.36706" lon="5.91512">
        <ele>370.8</ele>
        <time>2026-05-24T09:59:44.000Z</time>
      </trkpt>
      <trkpt lat="43.36715" lon="5.91508">
        <ele>371.5</ele>
        <time>2026-05-24T09:59:56.000Z</time>
      </trkpt>
      <trkpt lat="43.36723" lon="5.91501">
        <ele>372.2</ele>
        <time>2026-05-24T10:00:05.000Z</time>
      </trkpt>
      <trkpt lat="43.36732" lon="5.91497">
        <ele>373</ele>
        <time>2026-05-24T10:00:16.000Z</time>
      </trkpt>
      <trkpt lat="43.36741" lon="5.91491">
        <ele>373.6</ele>
        <time>2026-05-24T10:00:26.000Z</time>
      </trkpt>
      <trkpt lat="43.36751" lon="5.9149">
        <ele>374.4</ele>
        <time>2026-05-24T10:00:37.000Z</time>
      </trkpt>
      <trkpt lat="43.3676" lon="5.91491">
        <ele>375.1</ele>
        <time>2026-05-24T10:00:47.000Z</time>
      </trkpt>
      <trkpt lat="43.36769" lon="5.91498">
        <ele>375.7</ele>
        <time>2026-05-24T10:00:56.000Z</time>
      </trkpt>
      <trkpt lat="43.36774" lon="5.91508">
        <ele>376.1</ele>
        <time>2026-05-24T10:01:09.000Z</time>
      </trkpt>
      <trkpt lat="43.36779" lon="5.9152">
        <ele>376.6</ele>
        <time>2026-05-24T10:01:24.000Z</time>
      </trkpt>
      <trkpt lat="43.36785" lon="5.9153">
        <ele>377.1</ele>
        <time>2026-05-24T10:01:33.000Z</time>
      </trkpt>
      <trkpt lat="43.36792" lon="5.9154">
        <ele>377.6</ele>
        <time>2026-05-24T10:01:42.000Z</time>
      </trkpt>
      <trkpt lat="43.368" lon="5.91546">
        <ele>378.3</ele>
        <time>2026-05-24T10:01:55.000Z</time>
      </trkpt>
      <trkpt lat="43.36808" lon="5.91554">
        <ele>378.8</ele>
        <time>2026-05-24T10:02:07.000Z</time>
      </trkpt>
      <trkpt lat="43.36816" lon="5.91559">
        <ele>379.3</ele>
        <time>2026-05-24T10:02:16.000Z</time>
      </trkpt>
      <trkpt lat="43.36825" lon="5.91561">
        <ele>380</ele>
        <time>2026-05-24T10:02:25.000Z</time>
      </trkpt>
      <trkpt lat="43.36834" lon="5.91562">
        <ele>380.5</ele>
        <time>2026-05-24T10:02:34.000Z</time>
      </trkpt>
      <trkpt lat="43.36843" lon="5.91566">
        <ele>381</ele>
        <time>2026-05-24T10:02:44.000Z</time>
      </trkpt>
      <trkpt lat="43.36851" lon="5.9157">
        <ele>381.4</ele>
        <time>2026-05-24T10:02:53.000Z</time>
      </trkpt>
      <trkpt lat="43.3686" lon="5.91574">
        <ele>382.4</ele>
        <time>2026-05-24T10:03:18.000Z</time>
      </trkpt>
      <trkpt lat="43.36863" lon="5.91576">
        <ele>382.9</ele>
        <time>2026-05-24T10:03:45.000Z</time>
      </trkpt>
      <trkpt lat="43.36864" lon="5.91575">
        <ele>383</ele>
        <time>2026-05-24T10:04:12.000Z</time>
      </trkpt>
      <trkpt lat="43.36865" lon="5.91576">
        <ele>383</ele>
        <time>2026-05-24T10:04:35.000Z</time>
      </trkpt>
      <trkpt lat="43.36864" lon="5.91578">
        <ele>383</ele>
        <time>2026-05-24T10:04:57.000Z</time>
      </trkpt>
      <trkpt lat="43.36864" lon="5.91578">
        <ele>383</ele>
        <time>2026-05-24T10:05:03.000Z</time>
      </trkpt>
      <trkpt lat="43.36867" lon="5.9158">
        <ele>383.1</ele>
        <time>2026-05-24T10:05:15.000Z</time>
      </trkpt>
      <trkpt lat="43.36876" lon="5.91576">
        <ele>383.3</ele>
        <time>2026-05-24T10:05:35.000Z</time>
      </trkpt>
      <trkpt lat="43.36884" lon="5.91572">
        <ele>383.3</ele>
        <time>2026-05-24T10:05:44.000Z</time>
      </trkpt>
      <trkpt lat="43.36894" lon="5.91566">
        <ele>383.4</ele>
        <time>2026-05-24T10:05:53.000Z</time>
      </trkpt>
      <trkpt lat="43.36902" lon="5.9156">
        <ele>383.6</ele>
        <time>2026-05-24T10:06:02.000Z</time>
      </trkpt>
      <trkpt lat="43.3691" lon="5.91554">
        <ele>383.7</ele>
        <time>2026-05-24T10:06:09.000Z</time>
      </trkpt>
      <trkpt lat="43.36919" lon="5.91548">
        <ele>383.7</ele>
        <time>2026-05-24T10:06:18.000Z</time>
      </trkpt>
      <trkpt lat="43.36927" lon="5.91542">
        <ele>383.7</ele>
        <time>2026-05-24T10:06:26.000Z</time>
      </trkpt>
      <trkpt lat="43.36936" lon="5.91536">
        <ele>383.8</ele>
        <time>2026-05-24T10:06:36.000Z</time>
      </trkpt>
      <trkpt lat="43.36946" lon="5.91535">
        <ele>383.7</ele>
        <time>2026-05-24T10:06:43.000Z</time>
      </trkpt>
      <trkpt lat="43.36955" lon="5.91537">
        <ele>383.6</ele>
        <time>2026-05-24T10:06:52.000Z</time>
      </trkpt>
      <trkpt lat="43.36963" lon="5.91546">
        <ele>383.3</ele>
        <time>2026-05-24T10:07:02.000Z</time>
      </trkpt>
      <trkpt lat="43.3697" lon="5.91556">
        <ele>382.6</ele>
        <time>2026-05-24T10:07:12.000Z</time>
      </trkpt>
      <trkpt lat="43.36973" lon="5.91567">
        <ele>381.6</ele>
        <time>2026-05-24T10:07:38.000Z</time>
      </trkpt>
      <trkpt lat="43.3697" lon="5.9158">
        <ele>381</ele>
        <time>2026-05-24T10:07:48.000Z</time>
      </trkpt>
      <trkpt lat="43.36972" lon="5.91593">
        <ele>379.9</ele>
        <time>2026-05-24T10:07:59.000Z</time>
      </trkpt>
      <trkpt lat="43.36971" lon="5.91607">
        <ele>379</ele>
        <time>2026-05-24T10:08:07.000Z</time>
      </trkpt>
      <trkpt lat="43.36971" lon="5.9162">
        <ele>378.3</ele>
        <time>2026-05-24T10:08:15.000Z</time>
      </trkpt>
      <trkpt lat="43.36973" lon="5.91633">
        <ele>377.7</ele>
        <time>2026-05-24T10:08:24.000Z</time>
      </trkpt>
      <trkpt lat="43.36973" lon="5.91646">
        <ele>377.1</ele>
        <time>2026-05-24T10:08:32.000Z</time>
      </trkpt>
      <trkpt lat="43.3697" lon="5.91659">
        <ele>376.8</ele>
        <time>2026-05-24T10:08:40.000Z</time>
      </trkpt>
      <trkpt lat="43.36971" lon="5.91672">
        <ele>376.5</ele>
        <time>2026-05-24T10:08:50.000Z</time>
      </trkpt>
      <trkpt lat="43.36971" lon="5.91685">
        <ele>376.2</ele>
        <time>2026-05-24T10:08:59.000Z</time>
      </trkpt>
      <trkpt lat="43.36971" lon="5.91698">
        <ele>375.9</ele>
        <time>2026-05-24T10:09:07.000Z</time>
      </trkpt>
      <trkpt lat="43.36972" lon="5.91711">
        <ele>375.4</ele>
        <time>2026-05-24T10:09:18.000Z</time>
      </trkpt>
      <trkpt lat="43.36974" lon="5.91715">
        <ele>374.9</ele>
        <time>2026-05-24T10:09:48.000Z</time>
      </trkpt>
      <trkpt lat="43.36975" lon="5.91715">
        <ele>375</ele>
        <time>2026-05-24T10:09:50.000Z</time>
      </trkpt>
      <trkpt lat="43.36973" lon="5.91728">
        <ele>375</ele>
        <time>2026-05-24T10:10:03.000Z</time>
      </trkpt>
      <trkpt lat="43.36973" lon="5.91741">
        <ele>374.9</ele>
        <time>2026-05-24T10:10:10.000Z</time>
      </trkpt>
      <trkpt lat="43.36977" lon="5.91753">
        <ele>374.5</ele>
        <time>2026-05-24T10:10:19.000Z</time>
      </trkpt>
      <trkpt lat="43.36977" lon="5.91767">
        <ele>373.9</ele>
        <time>2026-05-24T10:10:27.000Z</time>
      </trkpt>
      <trkpt lat="43.36977" lon="5.91779">
        <ele>372.8</ele>
        <time>2026-05-24T10:10:39.000Z</time>
      </trkpt>
      <trkpt lat="43.36983" lon="5.91789">
        <ele>371.7</ele>
        <time>2026-05-24T10:11:06.000Z</time>
      </trkpt>
      <trkpt lat="43.36988" lon="5.91799">
        <ele>371.6</ele>
        <time>2026-05-24T10:11:18.000Z</time>
      </trkpt>
      <trkpt lat="43.36992" lon="5.91812">
        <ele>371.3</ele>
        <time>2026-05-24T10:11:28.000Z</time>
      </trkpt>
      <trkpt lat="43.36995" lon="5.91824">
        <ele>370.7</ele>
        <time>2026-05-24T10:11:36.000Z</time>
      </trkpt>
      <trkpt lat="43.36999" lon="5.91835">
        <ele>369.7</ele>
        <time>2026-05-24T10:11:46.000Z</time>
      </trkpt>
      <trkpt lat="43.36999" lon="5.91849">
        <ele>368.9</ele>
        <time>2026-05-24T10:11:57.000Z</time>
      </trkpt>
      <trkpt lat="43.37005" lon="5.91859">
        <ele>368.4</ele>
        <time>2026-05-24T10:12:04.000Z</time>
      </trkpt>
      <trkpt lat="43.37009" lon="5.91871">
        <ele>367.8</ele>
        <time>2026-05-24T10:12:11.000Z</time>
      </trkpt>
      <trkpt lat="43.37013" lon="5.91883">
        <ele>367.4</ele>
        <time>2026-05-24T10:12:18.000Z</time>
      </trkpt>
      <trkpt lat="43.37019" lon="5.91894">
        <ele>366.8</ele>
        <time>2026-05-24T10:12:27.000Z</time>
      </trkpt>
      <trkpt lat="43.37029" lon="5.91896">
        <ele>365</ele>
        <time>2026-05-24T10:12:49.000Z</time>
      </trkpt>
      <trkpt lat="43.37037" lon="5.91889">
        <ele>361.7</ele>
        <time>2026-05-24T10:13:24.000Z</time>
      </trkpt>
      <trkpt lat="43.37046" lon="5.91889">
        <ele>359.3</ele>
        <time>2026-05-24T10:13:55.000Z</time>
      </trkpt>
      <trkpt lat="43.37055" lon="5.91887">
        <ele>357.2</ele>
        <time>2026-05-24T10:14:36.000Z</time>
      </trkpt>
      <trkpt lat="43.37063" lon="5.91894">
        <ele>355.5</ele>
        <time>2026-05-24T10:14:58.000Z</time>
      </trkpt>
      <trkpt lat="43.37083" lon="5.91879">
        <ele>367.8</ele>
        <time>2026-05-24T11:18:04.000Z</time>
      </trkpt>
      <trkpt lat="43.37076" lon="5.91887">
        <ele>367.9</ele>
        <time>2026-05-24T11:18:14.000Z</time>
      </trkpt>
      <trkpt lat="43.37067" lon="5.91883">
        <ele>368.4</ele>
        <time>2026-05-24T11:18:36.000Z</time>
      </trkpt>
      <trkpt lat="43.37058" lon="5.91882">
        <ele>369.5</ele>
        <time>2026-05-24T11:18:57.000Z</time>
      </trkpt>
      <trkpt lat="43.37049" lon="5.9188">
        <ele>372.9</ele>
        <time>2026-05-24T11:19:38.000Z</time>
      </trkpt>
      <trkpt lat="43.37039" lon="5.91876">
        <ele>374.9</ele>
        <time>2026-05-24T11:20:00.000Z</time>
      </trkpt>
      <trkpt lat="43.37038" lon="5.91877">
        <ele>375.6</ele>
        <time>2026-05-24T11:20:16.000Z</time>
      </trkpt>
      <trkpt lat="43.37037" lon="5.91878">
        <ele>375.7</ele>
        <time>2026-05-24T11:20:19.000Z</time>
      </trkpt>
      <trkpt lat="43.37029" lon="5.91883">
        <ele>378</ele>
        <time>2026-05-24T11:20:45.000Z</time>
      </trkpt>
      <trkpt lat="43.37022" lon="5.91885">
        <ele>379.8</ele>
        <time>2026-05-24T11:21:17.000Z</time>
      </trkpt>
      <trkpt lat="43.37024" lon="5.91893">
        <ele>379.7</ele>
        <time>2026-05-24T11:21:52.000Z</time>
      </trkpt>
      <trkpt lat="43.37026" lon="5.91906">
        <ele>379.5</ele>
        <time>2026-05-24T11:22:02.000Z</time>
      </trkpt>
      <trkpt lat="43.37026" lon="5.91919">
        <ele>378.9</ele>
        <time>2026-05-24T11:22:13.000Z</time>
      </trkpt>
      <trkpt lat="43.37023" lon="5.91932">
        <ele>377.5</ele>
        <time>2026-05-24T11:22:27.000Z</time>
      </trkpt>
      <trkpt lat="43.37017" lon="5.91942">
        <ele>376</ele>
        <time>2026-05-24T11:22:41.000Z</time>
      </trkpt>
      <trkpt lat="43.37014" lon="5.91954">
        <ele>374.5</ele>
        <time>2026-05-24T11:22:52.000Z</time>
      </trkpt>
      <trkpt lat="43.37007" lon="5.91963">
        <ele>373.4</ele>
        <time>2026-05-24T11:23:00.000Z</time>
      </trkpt>
      <trkpt lat="43.37002" lon="5.91975">
        <ele>372.5</ele>
        <time>2026-05-24T11:23:11.000Z</time>
      </trkpt>
      <trkpt lat="43.37" lon="5.91986">
        <ele>371</ele>
        <time>2026-05-24T11:23:25.000Z</time>
      </trkpt>
      <trkpt lat="43.36993" lon="5.91995">
        <ele>370</ele>
        <time>2026-05-24T11:23:34.000Z</time>
      </trkpt>
      <trkpt lat="43.36985" lon="5.92002">
        <ele>369.2</ele>
        <time>2026-05-24T11:23:42.000Z</time>
      </trkpt>
      <trkpt lat="43.36979" lon="5.92012">
        <ele>367.5</ele>
        <time>2026-05-24T11:24:06.000Z</time>
      </trkpt>
      <trkpt lat="43.36971" lon="5.92019">
        <ele>366.9</ele>
        <time>2026-05-24T11:24:16.000Z</time>
      </trkpt>
      <trkpt lat="43.36964" lon="5.92028">
        <ele>365.8</ele>
        <time>2026-05-24T11:24:27.000Z</time>
      </trkpt>
      <trkpt lat="43.36956" lon="5.92036">
        <ele>364.5</ele>
        <time>2026-05-24T11:24:36.000Z</time>
      </trkpt>
      <trkpt lat="43.36949" lon="5.92045">
        <ele>363.3</ele>
        <time>2026-05-24T11:24:45.000Z</time>
      </trkpt>
      <trkpt lat="43.36943" lon="5.92055">
        <ele>362.1</ele>
        <time>2026-05-24T11:25:02.000Z</time>
      </trkpt>
      <trkpt lat="43.36942" lon="5.92056">
        <ele>361.2</ele>
        <time>2026-05-24T11:25:21.000Z</time>
      </trkpt>
      <trkpt lat="43.36939" lon="5.9206">
        <ele>361.2</ele>
        <time>2026-05-24T11:25:40.000Z</time>
      </trkpt>
      <trkpt lat="43.36934" lon="5.92071">
        <ele>360.8</ele>
        <time>2026-05-24T11:25:49.000Z</time>
      </trkpt>
      <trkpt lat="43.36928" lon="5.92081">
        <ele>360</ele>
        <time>2026-05-24T11:25:57.000Z</time>
      </trkpt>
      <trkpt lat="43.3692" lon="5.92089">
        <ele>358.9</ele>
        <time>2026-05-24T11:26:05.000Z</time>
      </trkpt>
      <trkpt lat="43.36915" lon="5.92101">
        <ele>357.8</ele>
        <time>2026-05-24T11:26:13.000Z</time>
      </trkpt>
      <trkpt lat="43.36908" lon="5.9211">
        <ele>357</ele>
        <time>2026-05-24T11:26:23.000Z</time>
      </trkpt>
      <trkpt lat="43.36902" lon="5.92121">
        <ele>354.6</ele>
        <time>2026-05-24T11:26:45.000Z</time>
      </trkpt>
      <trkpt lat="43.36898" lon="5.92133">
        <ele>353.8</ele>
        <time>2026-05-24T11:26:55.000Z</time>
      </trkpt>
      <trkpt lat="43.36907" lon="5.92138">
        <ele>352.6</ele>
        <time>2026-05-24T11:27:05.000Z</time>
      </trkpt>
      <trkpt lat="43.36917" lon="5.92136">
        <ele>351.3</ele>
        <time>2026-05-24T11:27:14.000Z</time>
      </trkpt>
      <trkpt lat="43.36926" lon="5.9213">
        <ele>349.4</ele>
        <time>2026-05-24T11:27:25.000Z</time>
      </trkpt>
      <trkpt lat="43.36934" lon="5.92124">
        <ele>347.9</ele>
        <time>2026-05-24T11:27:35.000Z</time>
      </trkpt>
      <trkpt lat="43.36942" lon="5.92118">
        <ele>346.4</ele>
        <time>2026-05-24T11:27:45.000Z</time>
      </trkpt>
      <trkpt lat="43.3695" lon="5.9211">
        <ele>345.6</ele>
        <time>2026-05-24T11:27:54.000Z</time>
      </trkpt>
      <trkpt lat="43.36958" lon="5.92103">
        <ele>345</ele>
        <time>2026-05-24T11:28:02.000Z</time>
      </trkpt>
      <trkpt lat="43.36964" lon="5.92093">
        <ele>344.1</ele>
        <time>2026-05-24T11:28:19.000Z</time>
      </trkpt>
      <trkpt lat="43.36973" lon="5.92088">
        <ele>343.1</ele>
        <time>2026-05-24T11:28:41.000Z</time>
      </trkpt>
      <trkpt lat="43.36979" lon="5.9208">
        <ele>342.7</ele>
        <time>2026-05-24T11:28:53.000Z</time>
      </trkpt>
      <trkpt lat="43.36987" lon="5.92072">
        <ele>342.2</ele>
        <time>2026-05-24T11:29:02.000Z</time>
      </trkpt>
      <trkpt lat="43.36994" lon="5.92064">
        <ele>341.6</ele>
        <time>2026-05-24T11:29:12.000Z</time>
      </trkpt>
      <trkpt lat="43.37002" lon="5.92057">
        <ele>341.2</ele>
        <time>2026-05-24T11:29:22.000Z</time>
      </trkpt>
      <trkpt lat="43.37009" lon="5.92049">
        <ele>341</ele>
        <time>2026-05-24T11:29:31.000Z</time>
      </trkpt>
      <trkpt lat="43.37016" lon="5.92039">
        <ele>340.7</ele>
        <time>2026-05-24T11:29:40.000Z</time>
      </trkpt>
      <trkpt lat="43.37021" lon="5.92028">
        <ele>340.7</ele>
        <time>2026-05-24T11:29:47.000Z</time>
      </trkpt>
      <trkpt lat="43.37028" lon="5.92019">
        <ele>340.5</ele>
        <time>2026-05-24T11:29:59.000Z</time>
      </trkpt>
      <trkpt lat="43.37034" lon="5.92008">
        <ele>340.2</ele>
        <time>2026-05-24T11:30:12.000Z</time>
      </trkpt>
      <trkpt lat="43.37041" lon="5.92001">
        <ele>339.7</ele>
        <time>2026-05-24T11:30:26.000Z</time>
      </trkpt>
      <trkpt lat="43.37049" lon="5.91995">
        <ele>338.9</ele>
        <time>2026-05-24T11:30:45.000Z</time>
      </trkpt>
      <trkpt lat="43.37057" lon="5.92003">
        <ele>337.1</ele>
        <time>2026-05-24T11:32:10.000Z</time>
      </trkpt>
      <trkpt lat="43.37066" lon="5.92007">
        <ele>334.6</ele>
        <time>2026-05-24T11:32:48.000Z</time>
      </trkpt>
      <trkpt lat="43.37075" lon="5.92002">
        <ele>330</ele>
        <time>2026-05-24T11:33:50.000Z</time>
      </trkpt>
      <trkpt lat="43.37077" lon="5.91998">
        <ele>328</ele>
        <time>2026-05-24T11:34:20.000Z</time>
      </trkpt>
      <trkpt lat="43.37075" lon="5.91998">
        <ele>327.8</ele>
        <time>2026-05-24T11:34:41.000Z</time>
      </trkpt>
      <trkpt lat="43.37085" lon="5.92">
        <ele>326.6</ele>
        <time>2026-05-24T11:35:30.000Z</time>
      </trkpt>
      <trkpt lat="43.37093" lon="5.91994">
        <ele>322</ele>
        <time>2026-05-24T11:36:17.000Z</time>
      </trkpt>
      <trkpt lat="43.37102" lon="5.9199">
        <ele>320.7</ele>
        <time>2026-05-24T11:36:39.000Z</time>
      </trkpt>
      <trkpt lat="43.3711" lon="5.91982">
        <ele>320.5</ele>
        <time>2026-05-24T11:37:05.000Z</time>
      </trkpt>
      <trkpt lat="43.37115" lon="5.91972">
        <ele>320.5</ele>
        <time>2026-05-24T11:37:16.000Z</time>
      </trkpt>
      <trkpt lat="43.37123" lon="5.91965">
        <ele>320.5</ele>
        <time>2026-05-24T11:37:47.000Z</time>
      </trkpt>
      <trkpt lat="43.37132" lon="5.91963">
        <ele>320.3</ele>
        <time>2026-05-24T11:38:01.000Z</time>
      </trkpt>
      <trkpt lat="43.37141" lon="5.91968">
        <ele>319.8</ele>
        <time>2026-05-24T11:38:21.000Z</time>
      </trkpt>
      <trkpt lat="43.37145" lon="5.91957">
        <ele>319.4</ele>
        <time>2026-05-24T11:38:43.000Z</time>
      </trkpt>
      <trkpt lat="43.37152" lon="5.91948">
        <ele>319.3</ele>
        <time>2026-05-24T11:39:03.000Z</time>
      </trkpt>
      <trkpt lat="43.37161" lon="5.9194">
        <ele>319.2</ele>
        <time>2026-05-24T11:39:28.000Z</time>
      </trkpt>
      <trkpt lat="43.3717" lon="5.91941">
        <ele>319</ele>
        <time>2026-05-24T11:39:46.000Z</time>
      </trkpt>
      <trkpt lat="43.37177" lon="5.91932">
        <ele>318.6</ele>
        <time>2026-05-24T11:40:15.000Z</time>
      </trkpt>
      <trkpt lat="43.37186" lon="5.91933">
        <ele>318.5</ele>
        <time>2026-05-24T11:40:33.000Z</time>
      </trkpt>
      <trkpt lat="43.37195" lon="5.91932">
        <ele>318</ele>
        <time>2026-05-24T11:41:37.000Z</time>
      </trkpt>
      <trkpt lat="43.37202" lon="5.91924">
        <ele>318.1</ele>
        <time>2026-05-24T11:42:12.000Z</time>
      </trkpt>
      <trkpt lat="43.3721" lon="5.91919">
        <ele>318</ele>
        <time>2026-05-24T11:42:36.000Z</time>
      </trkpt>
      <trkpt lat="43.3722" lon="5.91919">
        <ele>318.2</ele>
        <time>2026-05-24T11:42:54.000Z</time>
      </trkpt>
      <trkpt lat="43.37228" lon="5.91914">
        <ele>318.5</ele>
        <time>2026-05-24T11:43:14.000Z</time>
      </trkpt>
      <trkpt lat="43.37237" lon="5.9192">
        <ele>318.5</ele>
        <time>2026-05-24T11:43:49.000Z</time>
      </trkpt>
      <trkpt lat="43.37241" lon="5.91922">
        <ele>318.3</ele>
        <time>2026-05-24T11:44:06.000Z</time>
      </trkpt>
      <trkpt lat="43.37249" lon="5.91916">
        <ele>322</ele>
        <time>2026-05-24T11:45:06.000Z</time>
      </trkpt>
      <trkpt lat="43.37253" lon="5.91918">
        <ele>322.8</ele>
        <time>2026-05-24T11:45:39.000Z</time>
      </trkpt>
      <trkpt lat="43.37253" lon="5.91918">
        <ele>323</ele>
        <time>2026-05-24T11:45:49.000Z</time>
      </trkpt>
      <trkpt lat="43.37261" lon="5.91913">
        <ele>322.3</ele>
        <time>2026-05-24T11:47:22.000Z</time>
      </trkpt>
      <trkpt lat="43.37269" lon="5.91905">
        <ele>323</ele>
        <time>2026-05-24T11:47:47.000Z</time>
      </trkpt>
      <trkpt lat="43.3727" lon="5.91897">
        <ele>322.5</ele>
        <time>2026-05-24T11:48:29.000Z</time>
      </trkpt>
      <trkpt lat="43.37272" lon="5.91897">
        <ele>322.4</ele>
        <time>2026-05-24T11:48:36.000Z</time>
      </trkpt>
      <trkpt lat="43.37272" lon="5.91898">
        <ele>322.3</ele>
        <time>2026-05-24T11:48:47.000Z</time>
      </trkpt>
      <trkpt lat="43.37273" lon="5.919">
        <ele>322.3</ele>
        <time>2026-05-24T11:49:05.000Z</time>
      </trkpt>
      <trkpt lat="43.3728" lon="5.91908">
        <ele>319.5</ele>
        <time>2026-05-24T11:49:50.000Z</time>
      </trkpt>
      <trkpt lat="43.3729" lon="5.91908">
        <ele>319.1</ele>
        <time>2026-05-24T11:50:19.000Z</time>
      </trkpt>
      <trkpt lat="43.37299" lon="5.91902">
        <ele>319.2</ele>
        <time>2026-05-24T11:50:31.000Z</time>
      </trkpt>
      <trkpt lat="43.37305" lon="5.91893">
        <ele>319.2</ele>
        <time>2026-05-24T11:50:41.000Z</time>
      </trkpt>
      <trkpt lat="43.37314" lon="5.91889">
        <ele>319.2</ele>
        <time>2026-05-24T11:50:52.000Z</time>
      </trkpt>
      <trkpt lat="43.37321" lon="5.91879">
        <ele>319.1</ele>
        <time>2026-05-24T11:50:58.000Z</time>
      </trkpt>
      <trkpt lat="43.37327" lon="5.91868">
        <ele>319.2</ele>
        <time>2026-05-24T11:51:08.000Z</time>
      </trkpt>
      <trkpt lat="43.37334" lon="5.9186">
        <ele>319.2</ele>
        <time>2026-05-24T11:51:28.000Z</time>
      </trkpt>
      <trkpt lat="43.37337" lon="5.91848">
        <ele>319.3</ele>
        <time>2026-05-24T11:51:43.000Z</time>
      </trkpt>
      <trkpt lat="43.37342" lon="5.91837">
        <ele>319.3</ele>
        <time>2026-05-24T11:52:01.000Z</time>
      </trkpt>
      <trkpt lat="43.37345" lon="5.91825">
        <ele>319.1</ele>
        <time>2026-05-24T11:52:14.000Z</time>
      </trkpt>
      <trkpt lat="43.3735" lon="5.91815">
        <ele>319</ele>
        <time>2026-05-24T11:52:27.000Z</time>
      </trkpt>
      <trkpt lat="43.37352" lon="5.91802">
        <ele>318.9</ele>
        <time>2026-05-24T11:52:42.000Z</time>
      </trkpt>
      <trkpt lat="43.37353" lon="5.91789">
        <ele>318.8</ele>
        <time>2026-05-24T11:52:50.000Z</time>
      </trkpt>
      <trkpt lat="43.37355" lon="5.91777">
        <ele>318.6</ele>
        <time>2026-05-24T11:53:00.000Z</time>
      </trkpt>
      <trkpt lat="43.37362" lon="5.91767">
        <ele>318.5</ele>
        <time>2026-05-24T11:53:11.000Z</time>
      </trkpt>
      <trkpt lat="43.37364" lon="5.91754">
        <ele>317.9</ele>
        <time>2026-05-24T11:53:35.000Z</time>
      </trkpt>
      <trkpt lat="43.3737" lon="5.91744">
        <ele>317.4</ele>
        <time>2026-05-24T11:53:48.000Z</time>
      </trkpt>
      <trkpt lat="43.37375" lon="5.91733">
        <ele>317.1</ele>
        <time>2026-05-24T11:54:13.000Z</time>
      </trkpt>
      <trkpt lat="43.37375" lon="5.9172">
        <ele>317.3</ele>
        <time>2026-05-24T11:54:31.000Z</time>
      </trkpt>
      <trkpt lat="43.37371" lon="5.9171">
        <ele>318.9</ele>
        <time>2026-05-24T11:55:12.000Z</time>
      </trkpt>
      <trkpt lat="43.37379" lon="5.91704">
        <ele>319.3</ele>
        <time>2026-05-24T11:55:41.000Z</time>
      </trkpt>
      <trkpt lat="43.37376" lon="5.91692">
        <ele>319.6</ele>
        <time>2026-05-24T11:56:10.000Z</time>
      </trkpt>
      <trkpt lat="43.37378" lon="5.9168">
        <ele>319.2</ele>
        <time>2026-05-24T11:56:30.000Z</time>
      </trkpt>
      <trkpt lat="43.37383" lon="5.91668">
        <ele>318.9</ele>
        <time>2026-05-24T11:56:44.000Z</time>
      </trkpt>
      <trkpt lat="43.37387" lon="5.91657">
        <ele>318.9</ele>
        <time>2026-05-24T11:57:00.000Z</time>
      </trkpt>
      <trkpt lat="43.37391" lon="5.91645">
        <ele>318.8</ele>
        <time>2026-05-24T11:57:14.000Z</time>
      </trkpt>
      <trkpt lat="43.37398" lon="5.91636">
        <ele>318.3</ele>
        <time>2026-05-24T11:57:27.000Z</time>
      </trkpt>
      <trkpt lat="43.37404" lon="5.91626">
        <ele>318.1</ele>
        <time>2026-05-24T11:57:33.000Z</time>
      </trkpt>
      <trkpt lat="43.37403" lon="5.91613">
        <ele>317.5</ele>
        <time>2026-05-24T11:57:51.000Z</time>
      </trkpt>
      <trkpt lat="43.3741" lon="5.91605">
        <ele>317.2</ele>
        <time>2026-05-24T11:58:02.000Z</time>
      </trkpt>
      <trkpt lat="43.37415" lon="5.91595">
        <ele>317.1</ele>
        <time>2026-05-24T11:58:20.000Z</time>
      </trkpt>
      <trkpt lat="43.37418" lon="5.91582">
        <ele>316.4</ele>
        <time>2026-05-24T11:58:41.000Z</time>
      </trkpt>
      <trkpt lat="43.37421" lon="5.91571">
        <ele>315.9</ele>
        <time>2026-05-24T11:58:58.000Z</time>
      </trkpt>
      <trkpt lat="43.37426" lon="5.91561">
        <ele>315.4</ele>
        <time>2026-05-24T11:59:16.000Z</time>
      </trkpt>
      <trkpt lat="43.3743" lon="5.91548">
        <ele>315.4</ele>
        <time>2026-05-24T11:59:35.000Z</time>
      </trkpt>
      <trkpt lat="43.37429" lon="5.91535">
        <ele>315.5</ele>
        <time>2026-05-24T11:59:51.000Z</time>
      </trkpt>
      <trkpt lat="43.37432" lon="5.91523">
        <ele>315.5</ele>
        <time>2026-05-24T12:00:07.000Z</time>
      </trkpt>
      <trkpt lat="43.37438" lon="5.91513">
        <ele>315.5</ele>
        <time>2026-05-24T12:00:18.000Z</time>
      </trkpt>
      <trkpt lat="43.37439" lon="5.91501">
        <ele>315.6</ele>
        <time>2026-05-24T12:00:32.000Z</time>
      </trkpt>
      <trkpt lat="43.37446" lon="5.91492">
        <ele>315.4</ele>
        <time>2026-05-24T12:01:07.000Z</time>
      </trkpt>
      <trkpt lat="43.37451" lon="5.91481">
        <ele>315.4</ele>
        <time>2026-05-24T12:01:42.000Z</time>
      </trkpt>
      <trkpt lat="43.3746" lon="5.91481">
        <ele>315.3</ele>
        <time>2026-05-24T12:02:23.000Z</time>
      </trkpt>
      <trkpt lat="43.37467" lon="5.91472">
        <ele>315.3</ele>
        <time>2026-05-24T12:02:42.000Z</time>
      </trkpt>
      <trkpt lat="43.37476" lon="5.91469">
        <ele>315.3</ele>
        <time>2026-05-24T12:02:59.000Z</time>
      </trkpt>
      <trkpt lat="43.37486" lon="5.91469">
        <ele>315.3</ele>
        <time>2026-05-24T12:03:15.000Z</time>
      </trkpt>
      <trkpt lat="43.37495" lon="5.91471">
        <ele>316.2</ele>
        <time>2026-05-24T12:03:52.000Z</time>
      </trkpt>
      <trkpt lat="43.37499" lon="5.91476">
        <ele>316.6</ele>
        <time>2026-05-24T12:04:31.000Z</time>
      </trkpt>
      <trkpt lat="43.37501" lon="5.91478">
        <ele>316.6</ele>
        <time>2026-05-24T12:04:51.000Z</time>
      </trkpt>
      <trkpt lat="43.37508" lon="5.91486">
        <ele>316.9</ele>
        <time>2026-05-24T12:05:26.000Z</time>
      </trkpt>
      <trkpt lat="43.37518" lon="5.91489">
        <ele>318.3</ele>
        <time>2026-05-24T12:05:44.000Z</time>
      </trkpt>
      <trkpt lat="43.37527" lon="5.9149">
        <ele>320.3</ele>
        <time>2026-05-24T12:06:00.000Z</time>
      </trkpt>
      <trkpt lat="43.37535" lon="5.91496">
        <ele>321.7</ele>
        <time>2026-05-24T12:06:24.000Z</time>
      </trkpt>
      <trkpt lat="43.37544" lon="5.91498">
        <ele>323.1</ele>
        <time>2026-05-24T12:07:00.000Z</time>
      </trkpt>
      <trkpt lat="43.37552" lon="5.9149">
        <ele>324.2</ele>
        <time>2026-05-24T12:07:19.000Z</time>
      </trkpt>
      <trkpt lat="43.37561" lon="5.9149">
        <ele>325.5</ele>
        <time>2026-05-24T12:08:15.000Z</time>
      </trkpt>
      <trkpt lat="43.3757" lon="5.91486">
        <ele>327.7</ele>
        <time>2026-05-24T12:09:02.000Z</time>
      </trkpt>
      <trkpt lat="43.37577" lon="5.9148">
        <ele>328.8</ele>
        <time>2026-05-24T12:09:37.000Z</time>
      </trkpt>
      <trkpt lat="43.37586" lon="5.91475">
        <ele>330.1</ele>
        <time>2026-05-24T12:10:31.000Z</time>
      </trkpt>
      <trkpt lat="43.37588" lon="5.91463">
        <ele>334.3</ele>
        <time>2026-05-24T12:11:24.000Z</time>
      </trkpt>
      <trkpt lat="43.37594" lon="5.91454">
        <ele>337.2</ele>
        <time>2026-05-24T12:11:57.000Z</time>
      </trkpt>
      <trkpt lat="43.37603" lon="5.91447">
        <ele>336.9</ele>
        <time>2026-05-24T12:12:12.000Z</time>
      </trkpt>
      <trkpt lat="43.37611" lon="5.91443">
        <ele>336.2</ele>
        <time>2026-05-24T12:12:42.000Z</time>
      </trkpt>
      <trkpt lat="43.37618" lon="5.91435">
        <ele>336</ele>
        <time>2026-05-24T12:13:00.000Z</time>
      </trkpt>
      <trkpt lat="43.37627" lon="5.9143">
        <ele>334</ele>
        <time>2026-05-24T12:13:27.000Z</time>
      </trkpt>
      <trkpt lat="43.37635" lon="5.91423">
        <ele>333</ele>
        <time>2026-05-24T12:13:39.000Z</time>
      </trkpt>
      <trkpt lat="43.37645" lon="5.91422">
        <ele>331.9</ele>
        <time>2026-05-24T12:13:55.000Z</time>
      </trkpt>
      <trkpt lat="43.37654" lon="5.9142">
        <ele>330.2</ele>
        <time>2026-05-24T12:14:28.000Z</time>
      </trkpt>
      <trkpt lat="43.37662" lon="5.91414">
        <ele>329.2</ele>
        <time>2026-05-24T12:15:04.000Z</time>
      </trkpt>
      <trkpt lat="43.37671" lon="5.91411">
        <ele>328.3</ele>
        <time>2026-05-24T12:15:23.000Z</time>
      </trkpt>
      <trkpt lat="43.37678" lon="5.91403">
        <ele>328.6</ele>
        <time>2026-05-24T12:15:42.000Z</time>
      </trkpt>
      <trkpt lat="43.37684" lon="5.91394">
        <ele>330.5</ele>
        <time>2026-05-24T12:16:03.000Z</time>
      </trkpt>
      <trkpt lat="43.37689" lon="5.91384">
        <ele>331.8</ele>
        <time>2026-05-24T12:16:20.000Z</time>
      </trkpt>
      <trkpt lat="43.37688" lon="5.91387">
        <ele>332.1</ele>
        <time>2026-05-24T12:16:29.000Z</time>
      </trkpt>
      <trkpt lat="43.37688" lon="5.91385">
        <ele>332.7</ele>
        <time>2026-05-24T12:16:52.000Z</time>
      </trkpt>
      <trkpt lat="43.37689" lon="5.91388">
        <ele>333</ele>
        <time>2026-05-24T12:17:06.000Z</time>
      </trkpt>
      <trkpt lat="43.37689" lon="5.91387">
        <ele>333</ele>
        <time>2026-05-24T12:17:40.000Z</time>
      </trkpt>
      <trkpt lat="43.37694" lon="5.91387">
        <ele>333</ele>
        <time>2026-05-24T12:19:21.000Z</time>
      </trkpt>
      <trkpt lat="43.37702" lon="5.91382">
        <ele>333.3</ele>
        <time>2026-05-24T12:19:51.000Z</time>
      </trkpt>
      <trkpt lat="43.37711" lon="5.91381">
        <ele>335.5</ele>
        <time>2026-05-24T12:20:27.000Z</time>
      </trkpt>
      <trkpt lat="43.3772" lon="5.91375">
        <ele>337.1</ele>
        <time>2026-05-24T12:20:44.000Z</time>
      </trkpt>
      <trkpt lat="43.37729" lon="5.91373">
        <ele>339.6</ele>
        <time>2026-05-24T12:21:10.000Z</time>
      </trkpt>
      <trkpt lat="43.37738" lon="5.91376">
        <ele>341.1</ele>
        <time>2026-05-24T12:21:27.000Z</time>
      </trkpt>
      <trkpt lat="43.37747" lon="5.91376">
        <ele>342.8</ele>
        <time>2026-05-24T12:21:43.000Z</time>
      </trkpt>
      <trkpt lat="43.37756" lon="5.91374">
        <ele>346.4</ele>
        <time>2026-05-24T12:22:18.000Z</time>
      </trkpt>
      <trkpt lat="43.37764" lon="5.91368">
        <ele>348.4</ele>
        <time>2026-05-24T12:22:50.000Z</time>
      </trkpt>
      <trkpt lat="43.37766" lon="5.91369">
        <ele>348.6</ele>
        <time>2026-05-24T12:23:01.000Z</time>
      </trkpt>
      <trkpt lat="43.37766" lon="5.91369">
        <ele>348.7</ele>
        <time>2026-05-24T12:23:17.000Z</time>
      </trkpt>
      <trkpt lat="43.37766" lon="5.91369">
        <ele>348.8</ele>
        <time>2026-05-24T12:23:29.000Z</time>
      </trkpt>
      <trkpt lat="43.37764" lon="5.9137">
        <ele>349.3</ele>
        <time>2026-05-24T12:25:07.000Z</time>
      </trkpt>
      <trkpt lat="43.37761" lon="5.91372">
        <ele>349.4</ele>
        <time>2026-05-24T12:25:17.000Z</time>
      </trkpt>
      <trkpt lat="43.37762" lon="5.91372">
        <ele>349.4</ele>
        <time>2026-05-24T12:25:48.000Z</time>
      </trkpt>
      <trkpt lat="43.37771" lon="5.91376">
        <ele>349.7</ele>
        <time>2026-05-24T12:26:27.000Z</time>
      </trkpt>
      <trkpt lat="43.37779" lon="5.91382">
        <ele>351</ele>
        <time>2026-05-24T12:26:42.000Z</time>
      </trkpt>
      <trkpt lat="43.37785" lon="5.91391">
        <ele>352.2</ele>
        <time>2026-05-24T12:26:56.000Z</time>
      </trkpt>
      <trkpt lat="43.37794" lon="5.91396">
        <ele>352.7</ele>
        <time>2026-05-24T12:27:12.000Z</time>
      </trkpt>
      <trkpt lat="43.37799" lon="5.91407">
        <ele>353.4</ele>
        <time>2026-05-24T12:27:25.000Z</time>
      </trkpt>
      <trkpt lat="43.37808" lon="5.91412">
        <ele>355.1</ele>
        <time>2026-05-24T12:27:45.000Z</time>
      </trkpt>
      <trkpt lat="43.37816" lon="5.91418">
        <ele>356.9</ele>
        <time>2026-05-24T12:28:02.000Z</time>
      </trkpt>
      <trkpt lat="43.37822" lon="5.91426">
        <ele>359.1</ele>
        <time>2026-05-24T12:28:27.000Z</time>
      </trkpt>
      <trkpt lat="43.3783" lon="5.91432">
        <ele>360.7</ele>
        <time>2026-05-24T12:28:42.000Z</time>
      </trkpt>
      <trkpt lat="43.37838" lon="5.91441">
        <ele>363.3</ele>
        <time>2026-05-24T12:29:06.000Z</time>
      </trkpt>
      <trkpt lat="43.37847" lon="5.91446">
        <ele>366.2</ele>
        <time>2026-05-24T12:29:33.000Z</time>
      </trkpt>
      <trkpt lat="43.37848" lon="5.91447">
        <ele>367</ele>
        <time>2026-05-24T12:29:51.000Z</time>
      </trkpt>
      <trkpt lat="43.37848" lon="5.91446">
        <ele>367.2</ele>
        <time>2026-05-24T12:30:14.000Z</time>
      </trkpt>
      <trkpt lat="43.37856" lon="5.91454">
        <ele>367.8</ele>
        <time>2026-05-24T12:30:38.000Z</time>
      </trkpt>
      <trkpt lat="43.37864" lon="5.91458">
        <ele>371</ele>
        <time>2026-05-24T12:31:02.000Z</time>
      </trkpt>
      <trkpt lat="43.37874" lon="5.91461">
        <ele>373.6</ele>
        <time>2026-05-24T12:31:25.000Z</time>
      </trkpt>
      <trkpt lat="43.37883" lon="5.91466">
        <ele>376</ele>
        <time>2026-05-24T12:31:53.000Z</time>
      </trkpt>
      <trkpt lat="43.37892" lon="5.91466">
        <ele>377.7</ele>
        <time>2026-05-24T12:32:09.000Z</time>
      </trkpt>
      <trkpt lat="43.37901" lon="5.91465">
        <ele>379.6</ele>
        <time>2026-05-24T12:32:30.000Z</time>
      </trkpt>
      <trkpt lat="43.37903" lon="5.91452">
        <ele>381.1</ele>
        <time>2026-05-24T12:32:52.000Z</time>
      </trkpt>
      <trkpt lat="43.3791" lon="5.91444">
        <ele>383.5</ele>
        <time>2026-05-24T12:33:21.000Z</time>
      </trkpt>
      <trkpt lat="43.37909" lon="5.91445">
        <ele>383.8</ele>
        <time>2026-05-24T12:33:34.000Z</time>
      </trkpt>
      <trkpt lat="43.37908" lon="5.91446">
        <ele>383.8</ele>
        <time>2026-05-24T12:33:37.000Z</time>
      </trkpt>
      <trkpt lat="43.37913" lon="5.91435">
        <ele>384.3</ele>
        <time>2026-05-24T12:33:59.000Z</time>
      </trkpt>
      <trkpt lat="43.37916" lon="5.91423">
        <ele>386.7</ele>
        <time>2026-05-24T12:34:24.000Z</time>
      </trkpt>
      <trkpt lat="43.37916" lon="5.9141">
        <ele>389.4</ele>
        <time>2026-05-24T12:34:48.000Z</time>
      </trkpt>
      <trkpt lat="43.37917" lon="5.91397">
        <ele>391.8</ele>
        <time>2026-05-24T12:35:13.000Z</time>
      </trkpt>
      <trkpt lat="43.37919" lon="5.91385">
        <ele>392.1</ele>
        <time>2026-05-24T12:35:24.000Z</time>
      </trkpt>
      <trkpt lat="43.37923" lon="5.91374">
        <ele>392.3</ele>
        <time>2026-05-24T12:35:45.000Z</time>
      </trkpt>
      <trkpt lat="43.37924" lon="5.91374">
        <ele>392.3</ele>
        <time>2026-05-24T12:35:51.000Z</time>
      </trkpt>
      <trkpt lat="43.37924" lon="5.91372">
        <ele>392.3</ele>
        <time>2026-05-24T12:35:54.000Z</time>
      </trkpt>
      <trkpt lat="43.37922" lon="5.91368">
        <ele>392.2</ele>
        <time>2026-05-24T12:36:11.000Z</time>
      </trkpt>
      <trkpt lat="43.37922" lon="5.91368">
        <ele>392.3</ele>
        <time>2026-05-24T12:36:16.000Z</time>
      </trkpt>
      <trkpt lat="43.37923" lon="5.91365">
        <ele>392.3</ele>
        <time>2026-05-24T12:36:27.000Z</time>
      </trkpt>
      <trkpt lat="43.37923" lon="5.91364">
        <ele>392.3</ele>
        <time>2026-05-24T12:38:14.000Z</time>
      </trkpt>
      <trkpt lat="43.3792" lon="5.91352">
        <ele>392.4</ele>
        <time>2026-05-24T12:39:02.000Z</time>
      </trkpt>
      <trkpt lat="43.3792" lon="5.91339">
        <ele>392.6</ele>
        <time>2026-05-24T12:39:18.000Z</time>
      </trkpt>
      <trkpt lat="43.3792" lon="5.91326">
        <ele>393.6</ele>
        <time>2026-05-24T12:39:39.000Z</time>
      </trkpt>
      <trkpt lat="43.37922" lon="5.91314">
        <ele>394.8</ele>
        <time>2026-05-24T12:39:55.000Z</time>
      </trkpt>
      <trkpt lat="43.37921" lon="5.91301">
        <ele>395.6</ele>
        <time>2026-05-24T12:40:10.000Z</time>
      </trkpt>
      <trkpt lat="43.37924" lon="5.91289">
        <ele>396.4</ele>
        <time>2026-05-24T12:40:25.000Z</time>
      </trkpt>
      <trkpt lat="43.37928" lon="5.91277">
        <ele>397.7</ele>
        <time>2026-05-24T12:40:38.000Z</time>
      </trkpt>
      <trkpt lat="43.37935" lon="5.91269">
        <ele>399.8</ele>
        <time>2026-05-24T12:41:00.000Z</time>
      </trkpt>
      <trkpt lat="43.37943" lon="5.91263">
        <ele>402.4</ele>
        <time>2026-05-24T12:41:23.000Z</time>
      </trkpt>
      <trkpt lat="43.37946" lon="5.9125">
        <ele>404.6</ele>
        <time>2026-05-24T12:41:41.000Z</time>
      </trkpt>
      <trkpt lat="43.37952" lon="5.91238">
        <ele>406.1</ele>
        <time>2026-05-24T12:41:59.000Z</time>
      </trkpt>
      <trkpt lat="43.37951" lon="5.91225">
        <ele>407.4</ele>
        <time>2026-05-24T12:42:14.000Z</time>
      </trkpt>
      <trkpt lat="43.37957" lon="5.91214">
        <ele>408.5</ele>
        <time>2026-05-24T12:42:27.000Z</time>
      </trkpt>
      <trkpt lat="43.37957" lon="5.91201">
        <ele>409.4</ele>
        <time>2026-05-24T12:42:38.000Z</time>
      </trkpt>
      <trkpt lat="43.37956" lon="5.91187">
        <ele>410</ele>
        <time>2026-05-24T12:42:51.000Z</time>
      </trkpt>
      <trkpt lat="43.37958" lon="5.91175">
        <ele>410.6</ele>
        <time>2026-05-24T12:43:04.000Z</time>
      </trkpt>
      <trkpt lat="43.37963" lon="5.91164">
        <ele>411.2</ele>
        <time>2026-05-24T12:43:19.000Z</time>
      </trkpt>
      <trkpt lat="43.37966" lon="5.91152">
        <ele>412.8</ele>
        <time>2026-05-24T12:43:43.000Z</time>
      </trkpt>
      <trkpt lat="43.37964" lon="5.9114">
        <ele>413.6</ele>
        <time>2026-05-24T12:43:54.000Z</time>
      </trkpt>
      <trkpt lat="43.37962" lon="5.91128">
        <ele>414.3</ele>
        <time>2026-05-24T12:44:08.000Z</time>
      </trkpt>
      <trkpt lat="43.37958" lon="5.91116">
        <ele>415.3</ele>
        <time>2026-05-24T12:44:23.000Z</time>
      </trkpt>
      <trkpt lat="43.37955" lon="5.91103">
        <ele>417.1</ele>
        <time>2026-05-24T12:44:41.000Z</time>
      </trkpt>
      <trkpt lat="43.37951" lon="5.91092">
        <ele>417.9</ele>
        <time>2026-05-24T12:44:54.000Z</time>
      </trkpt>
      <trkpt lat="43.37948" lon="5.9108">
        <ele>418.3</ele>
        <time>2026-05-24T12:45:04.000Z</time>
      </trkpt>
      <trkpt lat="43.37942" lon="5.91069">
        <ele>418.8</ele>
        <time>2026-05-24T12:45:17.000Z</time>
      </trkpt>
      <trkpt lat="43.3794" lon="5.91056">
        <ele>419.2</ele>
        <time>2026-05-24T12:45:32.000Z</time>
      </trkpt>
      <trkpt lat="43.3794" lon="5.91043">
        <ele>419.6</ele>
        <time>2026-05-24T12:45:46.000Z</time>
      </trkpt>
      <trkpt lat="43.3794" lon="5.9103">
        <ele>420.1</ele>
        <time>2026-05-24T12:45:58.000Z</time>
      </trkpt>
      <trkpt lat="43.37935" lon="5.91018">
        <ele>420.5</ele>
        <time>2026-05-24T12:46:09.000Z</time>
      </trkpt>
      <trkpt lat="43.37932" lon="5.91006">
        <ele>420.9</ele>
        <time>2026-05-24T12:46:20.000Z</time>
      </trkpt>
      <trkpt lat="43.3793" lon="5.90994">
        <ele>422.1</ele>
        <time>2026-05-24T12:46:36.000Z</time>
      </trkpt>
      <trkpt lat="43.37928" lon="5.90982">
        <ele>422.8</ele>
        <time>2026-05-24T12:46:47.000Z</time>
      </trkpt>
      <trkpt lat="43.37923" lon="5.9097">
        <ele>423.3</ele>
        <time>2026-05-24T12:46:58.000Z</time>
      </trkpt>
      <trkpt lat="43.37919" lon="5.90958">
        <ele>423.9</ele>
        <time>2026-05-24T12:47:09.000Z</time>
      </trkpt>
      <trkpt lat="43.37923" lon="5.90947">
        <ele>424.3</ele>
        <time>2026-05-24T12:47:18.000Z</time>
      </trkpt>
      <trkpt lat="43.37922" lon="5.90934">
        <ele>425</ele>
        <time>2026-05-24T12:47:34.000Z</time>
      </trkpt>
      <trkpt lat="43.37923" lon="5.9092">
        <ele>425.3</ele>
        <time>2026-05-24T12:47:46.000Z</time>
      </trkpt>
      <trkpt lat="43.37922" lon="5.90915">
        <ele>426.1</ele>
        <time>2026-05-24T12:48:25.000Z</time>
      </trkpt>
      <trkpt lat="43.37922" lon="5.90915">
        <ele>426.1</ele>
        <time>2026-05-24T12:50:17.000Z</time>
      </trkpt>
      <trkpt lat="43.37921" lon="5.90914">
        <ele>426.1</ele>
        <time>2026-05-24T12:50:30.000Z</time>
      </trkpt>
      <trkpt lat="43.37922" lon="5.90916">
        <ele>426.1</ele>
        <time>2026-05-24T12:50:39.000Z</time>
      </trkpt>
      <trkpt lat="43.37926" lon="5.90928">
        <ele>426.1</ele>
        <time>2026-05-24T12:50:52.000Z</time>
      </trkpt>
      <trkpt lat="43.37931" lon="5.90938">
        <ele>426.1</ele>
        <time>2026-05-24T12:51:01.000Z</time>
      </trkpt>
      <trkpt lat="43.37935" lon="5.90949">
        <ele>426.2</ele>
        <time>2026-05-24T12:51:10.000Z</time>
      </trkpt>
      <trkpt lat="43.37938" lon="5.90961">
        <ele>426.3</ele>
        <time>2026-05-24T12:51:20.000Z</time>
      </trkpt>
      <trkpt lat="43.37941" lon="5.90973">
        <ele>426.4</ele>
        <time>2026-05-24T12:51:30.000Z</time>
      </trkpt>
      <trkpt lat="43.37947" lon="5.90982">
        <ele>426.5</ele>
        <time>2026-05-24T12:51:40.000Z</time>
      </trkpt>
      <trkpt lat="43.37955" lon="5.9099">
        <ele>426.6</ele>
        <time>2026-05-24T12:51:50.000Z</time>
      </trkpt>
      <trkpt lat="43.37961" lon="5.91">
        <ele>427</ele>
        <time>2026-05-24T12:52:01.000Z</time>
      </trkpt>
      <trkpt lat="43.37969" lon="5.91007">
        <ele>428</ele>
        <time>2026-05-24T12:52:15.000Z</time>
      </trkpt>
      <trkpt lat="43.37976" lon="5.91014">
        <ele>429.3</ele>
        <time>2026-05-24T12:52:32.000Z</time>
      </trkpt>
      <trkpt lat="43.37981" lon="5.91024">
        <ele>429.8</ele>
        <time>2026-05-24T12:52:42.000Z</time>
      </trkpt>
      <trkpt lat="43.3799" lon="5.91026">
        <ele>430.6</ele>
        <time>2026-05-24T12:52:54.000Z</time>
      </trkpt>
      <trkpt lat="43.37999" lon="5.91024">
        <ele>431</ele>
        <time>2026-05-24T12:53:06.000Z</time>
      </trkpt>
      <trkpt lat="43.38008" lon="5.91026">
        <ele>432.2</ele>
        <time>2026-05-24T12:53:20.000Z</time>
      </trkpt>
      <trkpt lat="43.38018" lon="5.91026">
        <ele>433.3</ele>
        <time>2026-05-24T12:53:32.000Z</time>
      </trkpt>
      <trkpt lat="43.38025" lon="5.91033">
        <ele>434.5</ele>
        <time>2026-05-24T12:53:45.000Z</time>
      </trkpt>
      <trkpt lat="43.38034" lon="5.91039">
        <ele>435.2</ele>
        <time>2026-05-24T12:53:58.000Z</time>
      </trkpt>
      <trkpt lat="43.38043" lon="5.9104">
        <ele>435.4</ele>
        <time>2026-05-24T12:54:09.000Z</time>
      </trkpt>
      <trkpt lat="43.38052" lon="5.91036">
        <ele>435.9</ele>
        <time>2026-05-24T12:54:23.000Z</time>
      </trkpt>
      <trkpt lat="43.38062" lon="5.91038">
        <ele>436.6</ele>
        <time>2026-05-24T12:54:34.000Z</time>
      </trkpt>
      <trkpt lat="43.38072" lon="5.91039">
        <ele>437.3</ele>
        <time>2026-05-24T12:54:47.000Z</time>
      </trkpt>
      <trkpt lat="43.38076" lon="5.91047">
        <ele>438.4</ele>
        <time>2026-05-24T12:55:16.000Z</time>
      </trkpt>
      <trkpt lat="43.38075" lon="5.91054">
        <ele>438.4</ele>
        <time>2026-05-24T12:55:32.000Z</time>
      </trkpt>
      <trkpt lat="43.38082" lon="5.91064">
        <ele>438.8</ele>
        <time>2026-05-24T12:55:48.000Z</time>
      </trkpt>
      <trkpt lat="43.38085" lon="5.91076">
        <ele>439.3</ele>
        <time>2026-05-24T12:55:57.000Z</time>
      </trkpt>
      <trkpt lat="43.38088" lon="5.91088">
        <ele>440.3</ele>
        <time>2026-05-24T12:56:06.000Z</time>
      </trkpt>
      <trkpt lat="43.38092" lon="5.911">
        <ele>441.8</ele>
        <time>2026-05-24T12:56:21.000Z</time>
      </trkpt>
      <trkpt lat="43.38099" lon="5.91109">
        <ele>442.6</ele>
        <time>2026-05-24T12:56:34.000Z</time>
      </trkpt>
      <trkpt lat="43.38103" lon="5.91122">
        <ele>443.4</ele>
        <time>2026-05-24T12:56:48.000Z</time>
      </trkpt>
      <trkpt lat="43.38107" lon="5.91134">
        <ele>443.9</ele>
        <time>2026-05-24T12:56:57.000Z</time>
      </trkpt>
      <trkpt lat="43.3811" lon="5.91146">
        <ele>444.4</ele>
        <time>2026-05-24T12:57:06.000Z</time>
      </trkpt>
      <trkpt lat="43.38115" lon="5.91157">
        <ele>445.3</ele>
        <time>2026-05-24T12:57:20.000Z</time>
      </trkpt>
      <trkpt lat="43.38124" lon="5.91162">
        <ele>446.4</ele>
        <time>2026-05-24T12:57:35.000Z</time>
      </trkpt>
      <trkpt lat="43.38131" lon="5.9117">
        <ele>447.2</ele>
        <time>2026-05-24T12:57:47.000Z</time>
      </trkpt>
      <trkpt lat="43.3814" lon="5.91168">
        <ele>448.3</ele>
        <time>2026-05-24T12:58:01.000Z</time>
      </trkpt>
      <trkpt lat="43.38143" lon="5.91156">
        <ele>449.3</ele>
        <time>2026-05-24T12:58:15.000Z</time>
      </trkpt>
      <trkpt lat="43.38142" lon="5.91147">
        <ele>450.8</ele>
        <time>2026-05-24T12:58:59.000Z</time>
      </trkpt>
      <trkpt lat="43.38142" lon="5.91147">
        <ele>450.7</ele>
        <time>2026-05-24T12:59:25.000Z</time>
      </trkpt>
      <trkpt lat="43.38142" lon="5.91147">
        <ele>450.7</ele>
        <time>2026-05-24T12:59:30.000Z</time>
      </trkpt>
      <trkpt lat="43.38142" lon="5.91147">
        <ele>450.3</ele>
        <time>2026-05-24T13:00:22.000Z</time>
      </trkpt>
      <trkpt lat="43.38142" lon="5.91147">
        <ele>450.2</ele>
        <time>2026-05-24T13:00:32.000Z</time>
      </trkpt>
      <trkpt lat="43.38147" lon="5.9114">
        <ele>450.2</ele>
        <time>2026-05-24T13:00:49.000Z</time>
      </trkpt>
      <trkpt lat="43.38157" lon="5.91138">
        <ele>450.4</ele>
        <time>2026-05-24T13:01:01.000Z</time>
      </trkpt>
      <trkpt lat="43.38166" lon="5.91137">
        <ele>451.8</ele>
        <time>2026-05-24T13:01:18.000Z</time>
      </trkpt>
      <trkpt lat="43.38173" lon="5.91146">
        <ele>453.9</ele>
        <time>2026-05-24T13:01:36.000Z</time>
      </trkpt>
      <trkpt lat="43.38179" lon="5.91155">
        <ele>454.7</ele>
        <time>2026-05-24T13:01:48.000Z</time>
      </trkpt>
      <trkpt lat="43.38183" lon="5.91167">
        <ele>455.5</ele>
        <time>2026-05-24T13:02:01.000Z</time>
      </trkpt>
      <trkpt lat="43.38189" lon="5.91176">
        <ele>456.3</ele>
        <time>2026-05-24T13:02:13.000Z</time>
      </trkpt>
      <trkpt lat="43.38196" lon="5.91184">
        <ele>457.4</ele>
        <time>2026-05-24T13:02:26.000Z</time>
      </trkpt>
      <trkpt lat="43.38202" lon="5.91195">
        <ele>458.7</ele>
        <time>2026-05-24T13:02:40.000Z</time>
      </trkpt>
      <trkpt lat="43.3821" lon="5.91202">
        <ele>459.8</ele>
        <time>2026-05-24T13:02:55.000Z</time>
      </trkpt>
      <trkpt lat="43.38217" lon="5.91209">
        <ele>460.8</ele>
        <time>2026-05-24T13:03:09.000Z</time>
      </trkpt>
      <trkpt lat="43.38219" lon="5.91222">
        <ele>461.6</ele>
        <time>2026-05-24T13:03:28.000Z</time>
      </trkpt>
      <trkpt lat="43.38222" lon="5.91234">
        <ele>462</ele>
        <time>2026-05-24T13:03:40.000Z</time>
      </trkpt>
      <trkpt lat="43.38228" lon="5.91244">
        <ele>462.2</ele>
        <time>2026-05-24T13:03:51.000Z</time>
      </trkpt>
      <trkpt lat="43.3823" lon="5.91258">
        <ele>462.3</ele>
        <time>2026-05-24T13:04:00.000Z</time>
      </trkpt>
      <trkpt lat="43.38234" lon="5.91269">
        <ele>462.4</ele>
        <time>2026-05-24T13:04:10.000Z</time>
      </trkpt>
      <trkpt lat="43.38236" lon="5.91281">
        <ele>462.6</ele>
        <time>2026-05-24T13:04:23.000Z</time>
      </trkpt>
      <trkpt lat="43.38236" lon="5.91295">
        <ele>462.8</ele>
        <time>2026-05-24T13:04:35.000Z</time>
      </trkpt>
      <trkpt lat="43.38238" lon="5.91307">
        <ele>462.7</ele>
        <time>2026-05-24T13:04:54.000Z</time>
      </trkpt>
      <trkpt lat="43.38242" lon="5.9132">
        <ele>462.7</ele>
        <time>2026-05-24T13:05:05.000Z</time>
      </trkpt>
      <trkpt lat="43.38242" lon="5.91332">
        <ele>462.6</ele>
        <time>2026-05-24T13:05:14.000Z</time>
      </trkpt>
      <trkpt lat="43.38247" lon="5.91343">
        <ele>462.6</ele>
        <time>2026-05-24T13:05:21.000Z</time>
      </trkpt>
      <trkpt lat="43.38251" lon="5.91355">
        <ele>462.5</ele>
        <time>2026-05-24T13:05:32.000Z</time>
      </trkpt>
      <trkpt lat="43.38256" lon="5.91366">
        <ele>462.5</ele>
        <time>2026-05-24T13:05:40.000Z</time>
      </trkpt>
      <trkpt lat="43.38259" lon="5.9138">
        <ele>462.3</ele>
        <time>2026-05-24T13:05:48.000Z</time>
      </trkpt>
      <trkpt lat="43.38258" lon="5.91393">
        <ele>461.5</ele>
        <time>2026-05-24T13:06:00.000Z</time>
      </trkpt>
      <trkpt lat="43.38264" lon="5.91403">
        <ele>460.7</ele>
        <time>2026-05-24T13:06:08.000Z</time>
      </trkpt>
      <trkpt lat="43.3827" lon="5.91413">
        <ele>460</ele>
        <time>2026-05-24T13:06:18.000Z</time>
      </trkpt>
      <trkpt lat="43.38275" lon="5.91424">
        <ele>459.7</ele>
        <time>2026-05-24T13:06:25.000Z</time>
      </trkpt>
      <trkpt lat="43.38279" lon="5.91435">
        <ele>459.3</ele>
        <time>2026-05-24T13:06:34.000Z</time>
      </trkpt>
      <trkpt lat="43.38285" lon="5.91445">
        <ele>459.2</ele>
        <time>2026-05-24T13:06:40.000Z</time>
      </trkpt>
      <trkpt lat="43.38294" lon="5.91448">
        <ele>459.2</ele>
        <time>2026-05-24T13:06:47.000Z</time>
      </trkpt>
      <trkpt lat="43.38302" lon="5.91456">
        <ele>459.2</ele>
        <time>2026-05-24T13:06:54.000Z</time>
      </trkpt>
      <trkpt lat="43.38306" lon="5.91468">
        <ele>459.2</ele>
        <time>2026-05-24T13:07:07.000Z</time>
      </trkpt>
      <trkpt lat="43.38305" lon="5.91471">
        <ele>459.4</ele>
        <time>2026-05-24T13:07:26.000Z</time>
      </trkpt>
      <trkpt lat="43.38306" lon="5.91476">
        <ele>459.4</ele>
        <time>2026-05-24T13:08:17.000Z</time>
      </trkpt>
      <trkpt lat="43.38312" lon="5.91486">
        <ele>459.4</ele>
        <time>2026-05-24T13:08:29.000Z</time>
      </trkpt>
      <trkpt lat="43.3832" lon="5.91495">
        <ele>459.5</ele>
        <time>2026-05-24T13:08:40.000Z</time>
      </trkpt>
      <trkpt lat="43.38325" lon="5.91506">
        <ele>459.5</ele>
        <time>2026-05-24T13:08:55.000Z</time>
      </trkpt>
      <trkpt lat="43.38327" lon="5.91519">
        <ele>459.5</ele>
        <time>2026-05-24T13:09:05.000Z</time>
      </trkpt>
      <trkpt lat="43.38324" lon="5.91525">
        <ele>459.4</ele>
        <time>2026-05-24T13:09:35.000Z</time>
      </trkpt>
      <trkpt lat="43.38325" lon="5.91529">
        <ele>459.5</ele>
        <time>2026-05-24T13:09:42.000Z</time>
      </trkpt>
      <trkpt lat="43.38328" lon="5.91541">
        <ele>459.4</ele>
        <time>2026-05-24T13:09:50.000Z</time>
      </trkpt>
      <trkpt lat="43.38327" lon="5.91554">
        <ele>459.3</ele>
        <time>2026-05-24T13:10:00.000Z</time>
      </trkpt>
      <trkpt lat="43.38328" lon="5.91568">
        <ele>459</ele>
        <time>2026-05-24T13:10:10.000Z</time>
      </trkpt>
      <trkpt lat="43.38335" lon="5.91579">
        <ele>458.4</ele>
        <time>2026-05-24T13:10:19.000Z</time>
      </trkpt>
      <trkpt lat="43.38341" lon="5.91589">
        <ele>457.6</ele>
        <time>2026-05-24T13:10:30.000Z</time>
      </trkpt>
      <trkpt lat="43.3835" lon="5.91597">
        <ele>457.1</ele>
        <time>2026-05-24T13:10:38.000Z</time>
      </trkpt>
      <trkpt lat="43.38359" lon="5.91603">
        <ele>456.9</ele>
        <time>2026-05-24T13:10:47.000Z</time>
      </trkpt>
      <trkpt lat="43.38369" lon="5.91607">
        <ele>456.8</ele>
        <time>2026-05-24T13:10:54.000Z</time>
      </trkpt>
      <trkpt lat="43.38375" lon="5.91616">
        <ele>456.7</ele>
        <time>2026-05-24T13:11:04.000Z</time>
      </trkpt>
      <trkpt lat="43.38384" lon="5.91624">
        <ele>456.7</ele>
        <time>2026-05-24T13:11:14.000Z</time>
      </trkpt>
      <trkpt lat="43.38392" lon="5.91631">
        <ele>456.6</ele>
        <time>2026-05-24T13:11:25.000Z</time>
      </trkpt>
      <trkpt lat="43.38401" lon="5.9163">
        <ele>456.6</ele>
        <time>2026-05-24T13:11:35.000Z</time>
      </trkpt>
      <trkpt lat="43.38406" lon="5.91643">
        <ele>456.6</ele>
        <time>2026-05-24T13:11:45.000Z</time>
      </trkpt>
      <trkpt lat="43.38414" lon="5.91649">
        <ele>456.6</ele>
        <time>2026-05-24T13:11:57.000Z</time>
      </trkpt>
      <trkpt lat="43.38423" lon="5.91654">
        <ele>456.5</ele>
        <time>2026-05-24T13:12:08.000Z</time>
      </trkpt>
      <trkpt lat="43.38431" lon="5.9166">
        <ele>456.6</ele>
        <time>2026-05-24T13:12:24.000Z</time>
      </trkpt>
      <trkpt lat="43.3844" lon="5.91663">
        <ele>456.6</ele>
        <time>2026-05-24T13:12:32.000Z</time>
      </trkpt>
      <trkpt lat="43.38447" lon="5.91673">
        <ele>456.7</ele>
        <time>2026-05-24T13:12:40.000Z</time>
      </trkpt>
      <trkpt lat="43.38457" lon="5.91677">
        <ele>457.1</ele>
        <time>2026-05-24T13:12:53.000Z</time>
      </trkpt>
      <trkpt lat="43.38465" lon="5.91685">
        <ele>457.3</ele>
        <time>2026-05-24T13:13:02.000Z</time>
      </trkpt>
      <trkpt lat="43.38471" lon="5.91695">
        <ele>457.5</ele>
        <time>2026-05-24T13:13:10.000Z</time>
      </trkpt>
      <trkpt lat="43.38478" lon="5.91704">
        <ele>457.6</ele>
        <time>2026-05-24T13:13:22.000Z</time>
      </trkpt>
      <trkpt lat="43.38488" lon="5.91704">
        <ele>457.6</ele>
        <time>2026-05-24T13:13:33.000Z</time>
      </trkpt>
      <trkpt lat="43.38497" lon="5.91703">
        <ele>457.7</ele>
        <time>2026-05-24T13:13:44.000Z</time>
      </trkpt>
      <trkpt lat="43.38505" lon="5.91709">
        <ele>458.1</ele>
        <time>2026-05-24T13:13:59.000Z</time>
      </trkpt>
      <trkpt lat="43.38515" lon="5.9171">
        <ele>458.6</ele>
        <time>2026-05-24T13:14:08.000Z</time>
      </trkpt>
      <trkpt lat="43.38524" lon="5.91706">
        <ele>458.8</ele>
        <time>2026-05-24T13:14:14.000Z</time>
      </trkpt>
      <trkpt lat="43.38533" lon="5.9171">
        <ele>459.2</ele>
        <time>2026-05-24T13:14:24.000Z</time>
      </trkpt>
      <trkpt lat="43.38542" lon="5.91714">
        <ele>459.6</ele>
        <time>2026-05-24T13:14:32.000Z</time>
      </trkpt>
      <trkpt lat="43.38548" lon="5.91723">
        <ele>460</ele>
        <time>2026-05-24T13:14:41.000Z</time>
      </trkpt>
      <trkpt lat="43.38553" lon="5.91726">
        <ele>461</ele>
        <time>2026-05-24T13:15:06.000Z</time>
      </trkpt>
      <trkpt lat="43.38554" lon="5.91728">
        <ele>461</ele>
        <time>2026-05-24T13:15:19.000Z</time>
      </trkpt>
      <trkpt lat="43.38557" lon="5.91741">
        <ele>461.3</ele>
        <time>2026-05-24T13:15:35.000Z</time>
      </trkpt>
      <trkpt lat="43.3856" lon="5.91754">
        <ele>461.6</ele>
        <time>2026-05-24T13:15:46.000Z</time>
      </trkpt>
      <trkpt lat="43.38568" lon="5.9176">
        <ele>462.1</ele>
        <time>2026-05-24T13:15:56.000Z</time>
      </trkpt>
      <trkpt lat="43.38576" lon="5.91766">
        <ele>463</ele>
        <time>2026-05-24T13:16:10.000Z</time>
      </trkpt>
      <trkpt lat="43.38583" lon="5.91775">
        <ele>463.9</ele>
        <time>2026-05-24T13:16:22.000Z</time>
      </trkpt>
      <trkpt lat="43.38592" lon="5.91774">
        <ele>464.5</ele>
        <time>2026-05-24T13:16:32.000Z</time>
      </trkpt>
      <trkpt lat="43.386" lon="5.91768">
        <ele>464.7</ele>
        <time>2026-05-24T13:16:41.000Z</time>
      </trkpt>
      <trkpt lat="43.38607" lon="5.91759">
        <ele>465</ele>
        <time>2026-05-24T13:16:49.000Z</time>
      </trkpt>
      <trkpt lat="43.38611" lon="5.91748">
        <ele>465.4</ele>
        <time>2026-05-24T13:17:00.000Z</time>
      </trkpt>
      <trkpt lat="43.38611" lon="5.91736">
        <ele>466.1</ele>
        <time>2026-05-24T13:17:14.000Z</time>
      </trkpt>
      <trkpt lat="43.38615" lon="5.91724">
        <ele>466.9</ele>
        <time>2026-05-24T13:17:32.000Z</time>
      </trkpt>
      <trkpt lat="43.38619" lon="5.91712">
        <ele>467.6</ele>
        <time>2026-05-24T13:17:46.000Z</time>
      </trkpt>
      <trkpt lat="43.38624" lon="5.91702">
        <ele>468.5</ele>
        <time>2026-05-24T13:18:01.000Z</time>
      </trkpt>
      <trkpt lat="43.3863" lon="5.91691">
        <ele>469.5</ele>
        <time>2026-05-24T13:18:17.000Z</time>
      </trkpt>
      <trkpt lat="43.38638" lon="5.91685">
        <ele>471</ele>
        <time>2026-05-24T13:18:34.000Z</time>
      </trkpt>
      <trkpt lat="43.38644" lon="5.91675">
        <ele>471.9</ele>
        <time>2026-05-24T13:18:46.000Z</time>
      </trkpt>
      <trkpt lat="43.38647" lon="5.91673">
        <ele>473</ele>
        <time>2026-05-24T13:19:08.000Z</time>
      </trkpt>
      <trkpt lat="43.38647" lon="5.91672">
        <ele>473.1</ele>
        <time>2026-05-24T13:19:16.000Z</time>
      </trkpt>
      <trkpt lat="43.38651" lon="5.91668">
        <ele>473</ele>
        <time>2026-05-24T13:19:57.000Z</time>
      </trkpt>
      <trkpt lat="43.38647" lon="5.91672">
        <ele>472.7</ele>
        <time>2026-05-24T13:23:14.000Z</time>
      </trkpt>
      <trkpt lat="43.38649" lon="5.91674">
        <ele>472.8</ele>
        <time>2026-05-24T13:24:07.000Z</time>
      </trkpt>
      <trkpt lat="43.38649" lon="5.91674">
        <ele>472.8</ele>
        <time>2026-05-24T13:24:22.000Z</time>
      </trkpt>
      <trkpt lat="43.38649" lon="5.91673">
        <ele>472.8</ele>
        <time>2026-05-24T13:24:49.000Z</time>
      </trkpt>
      <trkpt lat="43.3865" lon="5.91673">
        <ele>472.8</ele>
        <time>2026-05-24T13:24:57.000Z</time>
      </trkpt>
      <trkpt lat="43.38657" lon="5.91665">
        <ele>472.9</ele>
        <time>2026-05-24T13:25:15.000Z</time>
      </trkpt>
      <trkpt lat="43.38665" lon="5.91658">
        <ele>473.2</ele>
        <time>2026-05-24T13:25:27.000Z</time>
      </trkpt>
      <trkpt lat="43.38674" lon="5.91655">
        <ele>474.3</ele>
        <time>2026-05-24T13:25:39.000Z</time>
      </trkpt>
      <trkpt lat="43.38683" lon="5.91654">
        <ele>475.4</ele>
        <time>2026-05-24T13:25:50.000Z</time>
      </trkpt>
      <trkpt lat="43.38692" lon="5.91649">
        <ele>476.4</ele>
        <time>2026-05-24T13:26:03.000Z</time>
      </trkpt>
      <trkpt lat="43.38701" lon="5.91656">
        <ele>477.8</ele>
        <time>2026-05-24T13:26:27.000Z</time>
      </trkpt>
      <trkpt lat="43.38711" lon="5.91659">
        <ele>478.4</ele>
        <time>2026-05-24T13:26:37.000Z</time>
      </trkpt>
      <trkpt lat="43.3872" lon="5.9166">
        <ele>479</ele>
        <time>2026-05-24T13:26:47.000Z</time>
      </trkpt>
      <trkpt lat="43.38729" lon="5.91662">
        <ele>480.2</ele>
        <time>2026-05-24T13:26:58.000Z</time>
      </trkpt>
      <trkpt lat="43.38736" lon="5.91671">
        <ele>481.1</ele>
        <time>2026-05-24T13:27:11.000Z</time>
      </trkpt>
      <trkpt lat="43.38744" lon="5.91678">
        <ele>483.2</ele>
        <time>2026-05-24T13:27:41.000Z</time>
      </trkpt>
      <trkpt lat="43.38751" lon="5.91687">
        <ele>483.9</ele>
        <time>2026-05-24T13:27:54.000Z</time>
      </trkpt>
      <trkpt lat="43.3876" lon="5.91692">
        <ele>485.5</ele>
        <time>2026-05-24T13:28:07.000Z</time>
      </trkpt>
      <trkpt lat="43.38766" lon="5.91701">
        <ele>486.8</ele>
        <time>2026-05-24T13:28:25.000Z</time>
      </trkpt>
      <trkpt lat="43.38768" lon="5.91714">
        <ele>487.2</ele>
        <time>2026-05-24T13:28:41.000Z</time>
      </trkpt>
      <trkpt lat="43.38772" lon="5.91726">
        <ele>487.9</ele>
        <time>2026-05-24T13:28:54.000Z</time>
      </trkpt>
      <trkpt lat="43.38779" lon="5.91734">
        <ele>488.8</ele>
        <time>2026-05-24T13:29:07.000Z</time>
      </trkpt>
      <trkpt lat="43.38785" lon="5.91744">
        <ele>490.2</ele>
        <time>2026-05-24T13:29:26.000Z</time>
      </trkpt>
      <trkpt lat="43.38791" lon="5.91754">
        <ele>490.8</ele>
        <time>2026-05-24T13:29:39.000Z</time>
      </trkpt>
      <trkpt lat="43.38798" lon="5.91763">
        <ele>491.8</ele>
        <time>2026-05-24T13:29:50.000Z</time>
      </trkpt>
      <trkpt lat="43.38803" lon="5.91775">
        <ele>492.3</ele>
        <time>2026-05-24T13:30:00.000Z</time>
      </trkpt>
      <trkpt lat="43.38809" lon="5.91785">
        <ele>492.7</ele>
        <time>2026-05-24T13:30:10.000Z</time>
      </trkpt>
      <trkpt lat="43.38817" lon="5.91793">
        <ele>492.7</ele>
        <time>2026-05-24T13:30:25.000Z</time>
      </trkpt>
      <trkpt lat="43.38825" lon="5.91801">
        <ele>492.8</ele>
        <time>2026-05-24T13:30:35.000Z</time>
      </trkpt>
      <trkpt lat="43.38834" lon="5.91802">
        <ele>493.4</ele>
        <time>2026-05-24T13:30:49.000Z</time>
      </trkpt>
      <trkpt lat="43.38844" lon="5.91801">
        <ele>494.9</ele>
        <time>2026-05-24T13:31:12.000Z</time>
      </trkpt>
      <trkpt lat="43.38853" lon="5.918">
        <ele>496</ele>
        <time>2026-05-24T13:31:24.000Z</time>
      </trkpt>
      <trkpt lat="43.38863" lon="5.91798">
        <ele>496.9</ele>
        <time>2026-05-24T13:31:36.000Z</time>
      </trkpt>
      <trkpt lat="43.38872" lon="5.91797">
        <ele>497.4</ele>
        <time>2026-05-24T13:31:46.000Z</time>
      </trkpt>
      <trkpt lat="43.38881" lon="5.91798">
        <ele>497.7</ele>
        <time>2026-05-24T13:32:03.000Z</time>
      </trkpt>
      <trkpt lat="43.3889" lon="5.91803">
        <ele>497.8</ele>
        <time>2026-05-24T13:32:12.000Z</time>
      </trkpt>
      <trkpt lat="43.38898" lon="5.91807">
        <ele>497.8</ele>
        <time>2026-05-24T13:32:21.000Z</time>
      </trkpt>
      <trkpt lat="43.38908" lon="5.91811">
        <ele>497.8</ele>
        <time>2026-05-24T13:32:32.000Z</time>
      </trkpt>
      <trkpt lat="43.38916" lon="5.91818">
        <ele>497.7</ele>
        <time>2026-05-24T13:32:43.000Z</time>
      </trkpt>
      <trkpt lat="43.38925" lon="5.91821">
        <ele>497.8</ele>
        <time>2026-05-24T13:32:57.000Z</time>
      </trkpt>
      <trkpt lat="43.38934" lon="5.91819">
        <ele>498.1</ele>
        <time>2026-05-24T13:33:08.000Z</time>
      </trkpt>
      <trkpt lat="43.38943" lon="5.9182">
        <ele>498.9</ele>
        <time>2026-05-24T13:33:21.000Z</time>
      </trkpt>
      <trkpt lat="43.38953" lon="5.91818">
        <ele>499.4</ele>
        <time>2026-05-24T13:33:32.000Z</time>
      </trkpt>
      <trkpt lat="43.38962" lon="5.91821">
        <ele>500.2</ele>
        <time>2026-05-24T13:33:44.000Z</time>
      </trkpt>
      <trkpt lat="43.38972" lon="5.91824">
        <ele>500.7</ele>
        <time>2026-05-24T13:33:54.000Z</time>
      </trkpt>
      <trkpt lat="43.38981" lon="5.9182">
        <ele>501.4</ele>
        <time>2026-05-24T13:34:04.000Z</time>
      </trkpt>
      <trkpt lat="43.3899" lon="5.91819">
        <ele>502</ele>
        <time>2026-05-24T13:34:14.000Z</time>
      </trkpt>
      <trkpt lat="43.38999" lon="5.91819">
        <ele>502.4</ele>
        <time>2026-05-24T13:34:24.000Z</time>
      </trkpt>
      <trkpt lat="43.39007" lon="5.91825">
        <ele>503.2</ele>
        <time>2026-05-24T13:34:49.000Z</time>
      </trkpt>
      <trkpt lat="43.39012" lon="5.91835">
        <ele>503.8</ele>
        <time>2026-05-24T13:35:00.000Z</time>
      </trkpt>
      <trkpt lat="43.39018" lon="5.91846">
        <ele>505</ele>
        <time>2026-05-24T13:35:12.000Z</time>
      </trkpt>
      <trkpt lat="43.39025" lon="5.91853">
        <ele>506.2</ele>
        <time>2026-05-24T13:35:24.000Z</time>
      </trkpt>
      <trkpt lat="43.39034" lon="5.91854">
        <ele>506.8</ele>
        <time>2026-05-24T13:35:38.000Z</time>
      </trkpt>
      <trkpt lat="43.39043" lon="5.9186">
        <ele>507.5</ele>
        <time>2026-05-24T13:35:58.000Z</time>
      </trkpt>
      <trkpt lat="43.39051" lon="5.91866">
        <ele>508.3</ele>
        <time>2026-05-24T13:36:11.000Z</time>
      </trkpt>
      <trkpt lat="43.39058" lon="5.91874">
        <ele>509.3</ele>
        <time>2026-05-24T13:36:26.000Z</time>
      </trkpt>
      <trkpt lat="43.39066" lon="5.9188">
        <ele>510.3</ele>
        <time>2026-05-24T13:36:39.000Z</time>
      </trkpt>
      <trkpt lat="43.39074" lon="5.91888">
        <ele>511.4</ele>
        <time>2026-05-24T13:36:52.000Z</time>
      </trkpt>
      <trkpt lat="43.39082" lon="5.91894">
        <ele>512.4</ele>
        <time>2026-05-24T13:37:04.000Z</time>
      </trkpt>
      <trkpt lat="43.3909" lon="5.91902">
        <ele>513.2</ele>
        <time>2026-05-24T13:37:19.000Z</time>
      </trkpt>
      <trkpt lat="43.39096" lon="5.91908">
        <ele>513.9</ele>
        <time>2026-05-24T13:38:12.000Z</time>
      </trkpt>
      <trkpt lat="43.39096" lon="5.91908">
        <ele>514.1</ele>
        <time>2026-05-24T13:38:27.000Z</time>
      </trkpt>
      <trkpt lat="43.39096" lon="5.91908">
        <ele>514.3</ele>
        <time>2026-05-24T13:38:40.000Z</time>
      </trkpt>
      <trkpt lat="43.39096" lon="5.91908">
        <ele>514.5</ele>
        <time>2026-05-24T13:40:21.000Z</time>
      </trkpt>
      <trkpt lat="43.39102" lon="5.91919">
        <ele>514.3</ele>
        <time>2026-05-24T13:41:22.000Z</time>
      </trkpt>
      <trkpt lat="43.39105" lon="5.91931">
        <ele>514.2</ele>
        <time>2026-05-24T13:41:33.000Z</time>
      </trkpt>
      <trkpt lat="43.39109" lon="5.91943">
        <ele>514.1</ele>
        <time>2026-05-24T13:41:46.000Z</time>
      </trkpt>
      <trkpt lat="43.39112" lon="5.91955">
        <ele>513.9</ele>
        <time>2026-05-24T13:41:58.000Z</time>
      </trkpt>
      <trkpt lat="43.39114" lon="5.91967">
        <ele>513.7</ele>
        <time>2026-05-24T13:42:07.000Z</time>
      </trkpt>
      <trkpt lat="43.39116" lon="5.91979">
        <ele>513.6</ele>
        <time>2026-05-24T13:42:16.000Z</time>
      </trkpt>
      <trkpt lat="43.39118" lon="5.91991">
        <ele>513.5</ele>
        <time>2026-05-24T13:42:25.000Z</time>
      </trkpt>
      <trkpt lat="43.3912" lon="5.92004">
        <ele>512.6</ele>
        <time>2026-05-24T13:42:47.000Z</time>
      </trkpt>
      <trkpt lat="43.3912" lon="5.92018">
        <ele>512.1</ele>
        <time>2026-05-24T13:42:56.000Z</time>
      </trkpt>
      <trkpt lat="43.39121" lon="5.9203">
        <ele>511.3</ele>
        <time>2026-05-24T13:43:05.000Z</time>
      </trkpt>
      <trkpt lat="43.39124" lon="5.92043">
        <ele>510.5</ele>
        <time>2026-05-24T13:43:13.000Z</time>
      </trkpt>
      <trkpt lat="43.39126" lon="5.92056">
        <ele>509.5</ele>
        <time>2026-05-24T13:43:23.000Z</time>
      </trkpt>
      <trkpt lat="43.3913" lon="5.92067">
        <ele>508.7</ele>
        <time>2026-05-24T13:43:33.000Z</time>
      </trkpt>
      <trkpt lat="43.39133" lon="5.92079">
        <ele>508</ele>
        <time>2026-05-24T13:43:43.000Z</time>
      </trkpt>
      <trkpt lat="43.39136" lon="5.92091">
        <ele>507.1</ele>
        <time>2026-05-24T13:43:56.000Z</time>
      </trkpt>
      <trkpt lat="43.39142" lon="5.92101">
        <ele>506.4</ele>
        <time>2026-05-24T13:44:17.000Z</time>
      </trkpt>
      <trkpt lat="43.39148" lon="5.92111">
        <ele>505.9</ele>
        <time>2026-05-24T13:44:46.000Z</time>
      </trkpt>
      <trkpt lat="43.39152" lon="5.92123">
        <ele>505.7</ele>
        <time>2026-05-24T13:44:55.000Z</time>
      </trkpt>
      <trkpt lat="43.39153" lon="5.92137">
        <ele>505.6</ele>
        <time>2026-05-24T13:45:04.000Z</time>
      </trkpt>
      <trkpt lat="43.39156" lon="5.92148">
        <ele>505.6</ele>
        <time>2026-05-24T13:45:12.000Z</time>
      </trkpt>
      <trkpt lat="43.39161" lon="5.9216">
        <ele>505.6</ele>
        <time>2026-05-24T13:45:20.000Z</time>
      </trkpt>
      <trkpt lat="43.39164" lon="5.92172">
        <ele>505.5</ele>
        <time>2026-05-24T13:45:29.000Z</time>
      </trkpt>
      <trkpt lat="43.39166" lon="5.92184">
        <ele>505.4</ele>
        <time>2026-05-24T13:45:37.000Z</time>
      </trkpt>
      <trkpt lat="43.3917" lon="5.92195">
        <ele>505.3</ele>
        <time>2026-05-24T13:45:45.000Z</time>
      </trkpt>
      <trkpt lat="43.39175" lon="5.92208">
        <ele>505.3</ele>
        <time>2026-05-24T13:45:54.000Z</time>
      </trkpt>
      <trkpt lat="43.39179" lon="5.9222">
        <ele>505.2</ele>
        <time>2026-05-24T13:46:04.000Z</time>
      </trkpt>
      <trkpt lat="43.39183" lon="5.92231">
        <ele>505.3</ele>
        <time>2026-05-24T13:46:12.000Z</time>
      </trkpt>
      <trkpt lat="43.39187" lon="5.92243">
        <ele>505.3</ele>
        <time>2026-05-24T13:46:19.000Z</time>
      </trkpt>
      <trkpt lat="43.3919" lon="5.92256">
        <ele>505.2</ele>
        <time>2026-05-24T13:46:26.000Z</time>
      </trkpt>
      <trkpt lat="43.39193" lon="5.92269">
        <ele>505.3</ele>
        <time>2026-05-24T13:46:33.000Z</time>
      </trkpt>
      <trkpt lat="43.39197" lon="5.92281">
        <ele>505.2</ele>
        <time>2026-05-24T13:46:47.000Z</time>
      </trkpt>
      <trkpt lat="43.39202" lon="5.92292">
        <ele>505.2</ele>
        <time>2026-05-24T13:46:56.000Z</time>
      </trkpt>
      <trkpt lat="43.39208" lon="5.92303">
        <ele>505.2</ele>
        <time>2026-05-24T13:47:06.000Z</time>
      </trkpt>
      <trkpt lat="43.39208" lon="5.92316">
        <ele>505.3</ele>
        <time>2026-05-24T13:47:20.000Z</time>
      </trkpt>
      <trkpt lat="43.39209" lon="5.92329">
        <ele>505.4</ele>
        <time>2026-05-24T13:47:29.000Z</time>
      </trkpt>
      <trkpt lat="43.39211" lon="5.92342">
        <ele>505.6</ele>
        <time>2026-05-24T13:47:43.000Z</time>
      </trkpt>
      <trkpt lat="43.39214" lon="5.92354">
        <ele>505.6</ele>
        <time>2026-05-24T13:47:51.000Z</time>
      </trkpt>
      <trkpt lat="43.39217" lon="5.92368">
        <ele>505.6</ele>
        <time>2026-05-24T13:48:00.000Z</time>
      </trkpt>
      <trkpt lat="43.3922" lon="5.92379">
        <ele>505.8</ele>
        <time>2026-05-24T13:48:09.000Z</time>
      </trkpt>
      <trkpt lat="43.39226" lon="5.92391">
        <ele>506</ele>
        <time>2026-05-24T13:48:17.000Z</time>
      </trkpt>
      <trkpt lat="43.3923" lon="5.92402">
        <ele>506.3</ele>
        <time>2026-05-24T13:48:26.000Z</time>
      </trkpt>
      <trkpt lat="43.3923" lon="5.92415">
        <ele>506.7</ele>
        <time>2026-05-24T13:48:37.000Z</time>
      </trkpt>
      <trkpt lat="43.3923" lon="5.92428">
        <ele>506.9</ele>
        <time>2026-05-24T13:48:47.000Z</time>
      </trkpt>
      <trkpt lat="43.39231" lon="5.92434">
        <ele>507</ele>
        <time>2026-05-24T13:49:12.000Z</time>
      </trkpt>
      <trkpt lat="43.39232" lon="5.92443">
        <ele>507.1</ele>
        <time>2026-05-24T13:49:29.000Z</time>
      </trkpt>
      <trkpt lat="43.39235" lon="5.92455">
        <ele>507.1</ele>
        <time>2026-05-24T13:49:37.000Z</time>
      </trkpt>
      <trkpt lat="43.3924" lon="5.92466">
        <ele>507.1</ele>
        <time>2026-05-24T13:49:46.000Z</time>
      </trkpt>
      <trkpt lat="43.39245" lon="5.92476">
        <ele>507.2</ele>
        <time>2026-05-24T13:49:56.000Z</time>
      </trkpt>
      <trkpt lat="43.3925" lon="5.92487">
        <ele>507.5</ele>
        <time>2026-05-24T13:50:06.000Z</time>
      </trkpt>
      <trkpt lat="43.39256" lon="5.92498">
        <ele>508.5</ele>
        <time>2026-05-24T13:50:29.000Z</time>
      </trkpt>
      <trkpt lat="43.39261" lon="5.9251">
        <ele>508.5</ele>
        <time>2026-05-24T13:50:40.000Z</time>
      </trkpt>
      <trkpt lat="43.39269" lon="5.92518">
        <ele>508.6</ele>
        <time>2026-05-24T13:50:51.000Z</time>
      </trkpt>
      <trkpt lat="43.39276" lon="5.92525">
        <ele>508.6</ele>
        <time>2026-05-24T13:51:02.000Z</time>
      </trkpt>
      <trkpt lat="43.39283" lon="5.92529">
        <ele>506.7</ele>
        <time>2026-05-24T14:02:16.000Z</time>
      </trkpt>
      <trkpt lat="43.39282" lon="5.9253">
        <ele>506.7</ele>
        <time>2026-05-24T14:02:18.000Z</time>
      </trkpt>
      <trkpt lat="43.39277" lon="5.92541">
        <ele>506.6</ele>
        <time>2026-05-24T14:02:41.000Z</time>
      </trkpt>
      <trkpt lat="43.39272" lon="5.92545">
        <ele>506.4</ele>
        <time>2026-05-24T14:03:15.000Z</time>
      </trkpt>
      <trkpt lat="43.39272" lon="5.92545">
        <ele>506.4</ele>
        <time>2026-05-24T14:03:16.000Z</time>
      </trkpt>
      <trkpt lat="43.39272" lon="5.92552">
        <ele>506</ele>
        <time>2026-05-24T14:03:46.000Z</time>
      </trkpt>
      <trkpt lat="43.39273" lon="5.92556">
        <ele>505.9</ele>
        <time>2026-05-24T14:04:00.000Z</time>
      </trkpt>
      <trkpt lat="43.39275" lon="5.92569">
        <ele>504.7</ele>
        <time>2026-05-24T14:04:35.000Z</time>
      </trkpt>
      <trkpt lat="43.3928" lon="5.92569">
        <ele>503.7</ele>
        <time>2026-05-24T14:05:09.000Z</time>
      </trkpt>
      <trkpt lat="43.3928" lon="5.92569">
        <ele>503.7</ele>
        <time>2026-05-24T14:05:21.000Z</time>
      </trkpt>
      <trkpt lat="43.39287" lon="5.9256">
        <ele>503</ele>
        <time>2026-05-24T14:05:56.000Z</time>
      </trkpt>
      <trkpt lat="43.39292" lon="5.9255">
        <ele>500.8</ele>
        <time>2026-05-24T14:06:12.000Z</time>
      </trkpt>
      <trkpt lat="43.39299" lon="5.92559">
        <ele>494.5</ele>
        <time>2026-05-24T14:07:03.000Z</time>
      </trkpt>
      <trkpt lat="43.39296" lon="5.92572">
        <ele>492.7</ele>
        <time>2026-05-24T14:07:18.000Z</time>
      </trkpt>
      <trkpt lat="43.39295" lon="5.92584">
        <ele>490.6</ele>
        <time>2026-05-24T14:07:34.000Z</time>
      </trkpt>
      <trkpt lat="43.39297" lon="5.92597">
        <ele>488.8</ele>
        <time>2026-05-24T14:07:50.000Z</time>
      </trkpt>
      <trkpt lat="43.39295" lon="5.92609">
        <ele>486.9</ele>
        <time>2026-05-24T14:08:09.000Z</time>
      </trkpt>
      <trkpt lat="43.39291" lon="5.9262">
        <ele>484.4</ele>
        <time>2026-05-24T14:08:36.000Z</time>
      </trkpt>
      <trkpt lat="43.39292" lon="5.92628">
        <ele>482.7</ele>
        <time>2026-05-24T14:08:59.000Z</time>
      </trkpt>
      <trkpt lat="43.39292" lon="5.92629">
        <ele>482.7</ele>
        <time>2026-05-24T14:09:00.000Z</time>
      </trkpt>
      <trkpt lat="43.39287" lon="5.9264">
        <ele>481.7</ele>
        <time>2026-05-24T14:09:13.000Z</time>
      </trkpt>
      <trkpt lat="43.39289" lon="5.92652">
        <ele>479.8</ele>
        <time>2026-05-24T14:09:27.000Z</time>
      </trkpt>
      <trkpt lat="43.39288" lon="5.92664">
        <ele>477.6</ele>
        <time>2026-05-24T14:09:42.000Z</time>
      </trkpt>
      <trkpt lat="43.39286" lon="5.92677">
        <ele>474.8</ele>
        <time>2026-05-24T14:10:02.000Z</time>
      </trkpt>
      <trkpt lat="43.39284" lon="5.92684">
        <ele>472.8</ele>
        <time>2026-05-24T14:10:27.000Z</time>
      </trkpt>
      <trkpt lat="43.39284" lon="5.92691">
        <ele>472.5</ele>
        <time>2026-05-24T14:10:40.000Z</time>
      </trkpt>
      <trkpt lat="43.39293" lon="5.9269">
        <ele>470.8</ele>
        <time>2026-05-24T14:10:58.000Z</time>
      </trkpt>
      <trkpt lat="43.39301" lon="5.92683">
        <ele>467.4</ele>
        <time>2026-05-24T14:11:19.000Z</time>
      </trkpt>
      <trkpt lat="43.3931" lon="5.92679">
        <ele>465.4</ele>
        <time>2026-05-24T14:11:33.000Z</time>
      </trkpt>
      <trkpt lat="43.39318" lon="5.92674">
        <ele>464</ele>
        <time>2026-05-24T14:11:42.000Z</time>
      </trkpt>
      <trkpt lat="43.39327" lon="5.9267">
        <ele>462.3</ele>
        <time>2026-05-24T14:11:52.000Z</time>
      </trkpt>
      <trkpt lat="43.39333" lon="5.92659">
        <ele>460.9</ele>
        <time>2026-05-24T14:12:03.000Z</time>
      </trkpt>
      <trkpt lat="43.39339" lon="5.92651">
        <ele>459.9</ele>
        <time>2026-05-24T14:12:11.000Z</time>
      </trkpt>
      <trkpt lat="43.39346" lon="5.92641">
        <ele>459.1</ele>
        <time>2026-05-24T14:12:19.000Z</time>
      </trkpt>
      <trkpt lat="43.39351" lon="5.9263">
        <ele>458</ele>
        <time>2026-05-24T14:12:29.000Z</time>
      </trkpt>
      <trkpt lat="43.39359" lon="5.92622">
        <ele>456.6</ele>
        <time>2026-05-24T14:12:41.000Z</time>
      </trkpt>
      <trkpt lat="43.39365" lon="5.92612">
        <ele>454.6</ele>
        <time>2026-05-24T14:12:54.000Z</time>
      </trkpt>
      <trkpt lat="43.39371" lon="5.92603">
        <ele>452.5</ele>
        <time>2026-05-24T14:13:11.000Z</time>
      </trkpt>
      <trkpt lat="43.39378" lon="5.92594">
        <ele>450.9</ele>
        <time>2026-05-24T14:13:28.000Z</time>
      </trkpt>
      <trkpt lat="43.39388" lon="5.92589">
        <ele>449.3</ele>
        <time>2026-05-24T14:13:42.000Z</time>
      </trkpt>
      <trkpt lat="43.39392" lon="5.92577">
        <ele>447.7</ele>
        <time>2026-05-24T14:13:57.000Z</time>
      </trkpt>
      <trkpt lat="43.39398" lon="5.92569">
        <ele>446.2</ele>
        <time>2026-05-24T14:14:10.000Z</time>
      </trkpt>
      <trkpt lat="43.39405" lon="5.9256">
        <ele>444.2</ele>
        <time>2026-05-24T14:14:29.000Z</time>
      </trkpt>
      <trkpt lat="43.39409" lon="5.92548">
        <ele>442.6</ele>
        <time>2026-05-24T14:14:40.000Z</time>
      </trkpt>
      <trkpt lat="43.39416" lon="5.92538">
        <ele>441.4</ele>
        <time>2026-05-24T14:14:50.000Z</time>
      </trkpt>
      <trkpt lat="43.39422" lon="5.92529">
        <ele>439.8</ele>
        <time>2026-05-24T14:15:02.000Z</time>
      </trkpt>
      <trkpt lat="43.39428" lon="5.92519">
        <ele>437.4</ele>
        <time>2026-05-24T14:15:20.000Z</time>
      </trkpt>
      <trkpt lat="43.39432" lon="5.92509">
        <ele>435.6</ele>
        <time>2026-05-24T14:15:34.000Z</time>
      </trkpt>
      <trkpt lat="43.39431" lon="5.92495">
        <ele>434.4</ele>
        <time>2026-05-24T14:15:43.000Z</time>
      </trkpt>
      <trkpt lat="43.39428" lon="5.92483">
        <ele>434.1</ele>
        <time>2026-05-24T14:15:55.000Z</time>
      </trkpt>
      <trkpt lat="43.39423" lon="5.92472">
        <ele>433.5</ele>
        <time>2026-05-24T14:16:17.000Z</time>
      </trkpt>
      <trkpt lat="43.39422" lon="5.92459">
        <ele>432.4</ele>
        <time>2026-05-24T14:16:29.000Z</time>
      </trkpt>
      <trkpt lat="43.39417" lon="5.92448">
        <ele>430.3</ele>
        <time>2026-05-24T14:16:42.000Z</time>
      </trkpt>
      <trkpt lat="43.39426" lon="5.92449">
        <ele>427</ele>
        <time>2026-05-24T14:17:04.000Z</time>
      </trkpt>
      <trkpt lat="43.39435" lon="5.92452">
        <ele>424.9</ele>
        <time>2026-05-24T14:17:17.000Z</time>
      </trkpt>
      <trkpt lat="43.3944" lon="5.92463">
        <ele>422.7</ele>
        <time>2026-05-24T14:17:32.000Z</time>
      </trkpt>
      <trkpt lat="43.39449" lon="5.92466">
        <ele>418.8</ele>
        <time>2026-05-24T14:18:02.000Z</time>
      </trkpt>
      <trkpt lat="43.39458" lon="5.92471">
        <ele>416.2</ele>
        <time>2026-05-24T14:18:26.000Z</time>
      </trkpt>
      <trkpt lat="43.39467" lon="5.92474">
        <ele>414.5</ele>
        <time>2026-05-24T14:18:42.000Z</time>
      </trkpt>
      <trkpt lat="43.39476" lon="5.92477">
        <ele>412.1</ele>
        <time>2026-05-24T14:18:57.000Z</time>
      </trkpt>
      <trkpt lat="43.39484" lon="5.92481">
        <ele>410</ele>
        <time>2026-05-24T14:19:10.000Z</time>
      </trkpt>
      <trkpt lat="43.39493" lon="5.92485">
        <ele>407.7</ele>
        <time>2026-05-24T14:19:29.000Z</time>
      </trkpt>
      <trkpt lat="43.39502" lon="5.92488">
        <ele>406.3</ele>
        <time>2026-05-24T14:19:41.000Z</time>
      </trkpt>
      <trkpt lat="43.3951" lon="5.92483">
        <ele>404</ele>
        <time>2026-05-24T14:20:01.000Z</time>
      </trkpt>
      <trkpt lat="43.39519" lon="5.9248">
        <ele>401.2</ele>
        <time>2026-05-24T14:20:21.000Z</time>
      </trkpt>
      <trkpt lat="43.39528" lon="5.92481">
        <ele>398.2</ele>
        <time>2026-05-24T14:20:43.000Z</time>
      </trkpt>
      <trkpt lat="43.39537" lon="5.92478">
        <ele>396</ele>
        <time>2026-05-24T14:21:01.000Z</time>
      </trkpt>
      <trkpt lat="43.39546" lon="5.92473">
        <ele>394</ele>
        <time>2026-05-24T14:21:15.000Z</time>
      </trkpt>
      <trkpt lat="43.39555" lon="5.9247">
        <ele>391.9</ele>
        <time>2026-05-24T14:21:33.000Z</time>
      </trkpt>
      <trkpt lat="43.39564" lon="5.92468">
        <ele>390.5</ele>
        <time>2026-05-24T14:21:46.000Z</time>
      </trkpt>
      <trkpt lat="43.39572" lon="5.92463">
        <ele>389.7</ele>
        <time>2026-05-24T14:21:53.000Z</time>
      </trkpt>
      <trkpt lat="43.39579" lon="5.92454">
        <ele>388.8</ele>
        <time>2026-05-24T14:22:04.000Z</time>
      </trkpt>
      <trkpt lat="43.39587" lon="5.92448">
        <ele>387.2</ele>
        <time>2026-05-24T14:22:21.000Z</time>
      </trkpt>
      <trkpt lat="43.39596" lon="5.92448">
        <ele>384.5</ele>
        <time>2026-05-24T14:22:48.000Z</time>
      </trkpt>
      <trkpt lat="43.39605" lon="5.92451">
        <ele>383</ele>
        <time>2026-05-24T14:23:05.000Z</time>
      </trkpt>
      <trkpt lat="43.39614" lon="5.92452">
        <ele>381.6</ele>
        <time>2026-05-24T14:23:16.000Z</time>
      </trkpt>
      <trkpt lat="43.39623" lon="5.9245">
        <ele>379.9</ele>
        <time>2026-05-24T14:23:26.000Z</time>
      </trkpt>
      <trkpt lat="43.39632" lon="5.92456">
        <ele>378.4</ele>
        <time>2026-05-24T14:23:38.000Z</time>
      </trkpt>
      <trkpt lat="43.39641" lon="5.92453">
        <ele>377.2</ele>
        <time>2026-05-24T14:23:48.000Z</time>
      </trkpt>
      <trkpt lat="43.3965" lon="5.92449">
        <ele>375.9</ele>
        <time>2026-05-24T14:23:59.000Z</time>
      </trkpt>
      <trkpt lat="43.39656" lon="5.92439">
        <ele>374.5</ele>
        <time>2026-05-24T14:24:10.000Z</time>
      </trkpt>
      <trkpt lat="43.39662" lon="5.92431">
        <ele>372.6</ele>
        <time>2026-05-24T14:24:24.000Z</time>
      </trkpt>
      <trkpt lat="43.39671" lon="5.92426">
        <ele>370.5</ele>
        <time>2026-05-24T14:24:42.000Z</time>
      </trkpt>
      <trkpt lat="43.39676" lon="5.92415">
        <ele>370.3</ele>
        <time>2026-05-24T14:25:07.000Z</time>
      </trkpt>
      <trkpt lat="43.39684" lon="5.92409">
        <ele>369.3</ele>
        <time>2026-05-24T14:25:19.000Z</time>
      </trkpt>
      <trkpt lat="43.39691" lon="5.92401">
        <ele>366.2</ele>
        <time>2026-05-24T14:25:36.000Z</time>
      </trkpt>
      <trkpt lat="43.39696" lon="5.9239">
        <ele>364.1</ele>
        <time>2026-05-24T14:25:48.000Z</time>
      </trkpt>
      <trkpt lat="43.39702" lon="5.92379">
        <ele>362.6</ele>
        <time>2026-05-24T14:25:59.000Z</time>
      </trkpt>
      <trkpt lat="43.39709" lon="5.9237">
        <ele>360.3</ele>
        <time>2026-05-24T14:26:18.000Z</time>
      </trkpt>
      <trkpt lat="43.39715" lon="5.92361">
        <ele>358.8</ele>
        <time>2026-05-24T14:26:31.000Z</time>
      </trkpt>
      <trkpt lat="43.39722" lon="5.92353">
        <ele>357.7</ele>
        <time>2026-05-24T14:26:43.000Z</time>
      </trkpt>
      <trkpt lat="43.3973" lon="5.92346">
        <ele>356.7</ele>
        <time>2026-05-24T14:26:59.000Z</time>
      </trkpt>
      <trkpt lat="43.39729" lon="5.92359">
        <ele>355.4</ele>
        <time>2026-05-24T14:27:20.000Z</time>
      </trkpt>
      <trkpt lat="43.3973" lon="5.92372">
        <ele>355</ele>
        <time>2026-05-24T14:27:29.000Z</time>
      </trkpt>
      <trkpt lat="43.39732" lon="5.92384">
        <ele>354.3</ele>
        <time>2026-05-24T14:27:40.000Z</time>
      </trkpt>
      <trkpt lat="43.39727" lon="5.92395">
        <ele>352.7</ele>
        <time>2026-05-24T14:27:55.000Z</time>
      </trkpt>
      <trkpt lat="43.39731" lon="5.92407">
        <ele>352.1</ele>
        <time>2026-05-24T14:28:03.000Z</time>
      </trkpt>
      <trkpt lat="43.39735" lon="5.92418">
        <ele>351</ele>
        <time>2026-05-24T14:28:14.000Z</time>
      </trkpt>
      <trkpt lat="43.39735" lon="5.92431">
        <ele>349.2</ele>
        <time>2026-05-24T14:28:25.000Z</time>
      </trkpt>
      <trkpt lat="43.39734" lon="5.92443">
        <ele>348.8</ele>
        <time>2026-05-24T14:28:35.000Z</time>
      </trkpt>
      <trkpt lat="43.39734" lon="5.92456">
        <ele>348.6</ele>
        <time>2026-05-24T14:28:43.000Z</time>
      </trkpt>
      <trkpt lat="43.39736" lon="5.92469">
        <ele>347.9</ele>
        <time>2026-05-24T14:29:01.000Z</time>
      </trkpt>
      <trkpt lat="43.39732" lon="5.92481">
        <ele>347.2</ele>
        <time>2026-05-24T14:29:12.000Z</time>
      </trkpt>
      <trkpt lat="43.39735" lon="5.92493">
        <ele>346.6</ele>
        <time>2026-05-24T14:29:22.000Z</time>
      </trkpt>
      <trkpt lat="43.39736" lon="5.92506">
        <ele>346</ele>
        <time>2026-05-24T14:29:31.000Z</time>
      </trkpt>
      <trkpt lat="43.39742" lon="5.92516">
        <ele>345.3</ele>
        <time>2026-05-24T14:29:40.000Z</time>
      </trkpt>
      <trkpt lat="43.3974" lon="5.92529">
        <ele>343.8</ele>
        <time>2026-05-24T14:30:11.000Z</time>
      </trkpt>
      <trkpt lat="43.39741" lon="5.92542">
        <ele>342.7</ele>
        <time>2026-05-24T14:30:24.000Z</time>
      </trkpt>
      <trkpt lat="43.39737" lon="5.92553">
        <ele>340.1</ele>
        <time>2026-05-24T14:30:44.000Z</time>
      </trkpt>
      <trkpt lat="43.39741" lon="5.92564">
        <ele>338.6</ele>
        <time>2026-05-24T14:30:54.000Z</time>
      </trkpt>
      <trkpt lat="43.39735" lon="5.92573">
        <ele>335.9</ele>
        <time>2026-05-24T14:31:14.000Z</time>
      </trkpt>
      <trkpt lat="43.39729" lon="5.92583">
        <ele>335.1</ele>
        <time>2026-05-24T14:31:24.000Z</time>
      </trkpt>
      <trkpt lat="43.39721" lon="5.92591">
        <ele>334.4</ele>
        <time>2026-05-24T14:31:35.000Z</time>
      </trkpt>
      <trkpt lat="43.39717" lon="5.92602">
        <ele>333.8</ele>
        <time>2026-05-24T14:31:43.000Z</time>
      </trkpt>
      <trkpt lat="43.39715" lon="5.92615">
        <ele>333.4</ele>
        <time>2026-05-24T14:31:53.000Z</time>
      </trkpt>
      <trkpt lat="43.39712" lon="5.92628">
        <ele>333.2</ele>
        <time>2026-05-24T14:32:01.000Z</time>
      </trkpt>
      <trkpt lat="43.3971" lon="5.9264">
        <ele>333</ele>
        <time>2026-05-24T14:32:10.000Z</time>
      </trkpt>
      <trkpt lat="43.39712" lon="5.92654">
        <ele>332.8</ele>
        <time>2026-05-24T14:32:20.000Z</time>
      </trkpt>
      <trkpt lat="43.39716" lon="5.92666">
        <ele>332.8</ele>
        <time>2026-05-24T14:32:26.000Z</time>
      </trkpt>
      <trkpt lat="43.39721" lon="5.92678">
        <ele>332.8</ele>
        <time>2026-05-24T14:32:34.000Z</time>
      </trkpt>
      <trkpt lat="43.39726" lon="5.92689">
        <ele>332.9</ele>
        <time>2026-05-24T14:32:41.000Z</time>
      </trkpt>
      <trkpt lat="43.39732" lon="5.927">
        <ele>333</ele>
        <time>2026-05-24T14:32:51.000Z</time>
      </trkpt>
      <trkpt lat="43.39737" lon="5.9271">
        <ele>333.2</ele>
        <time>2026-05-24T14:32:59.000Z</time>
      </trkpt>
      <trkpt lat="43.39738" lon="5.92722">
        <ele>333.7</ele>
        <time>2026-05-24T14:33:09.000Z</time>
      </trkpt>
      <trkpt lat="43.39735" lon="5.92735">
        <ele>334.1</ele>
        <time>2026-05-24T14:33:21.000Z</time>
      </trkpt>
      <trkpt lat="43.39733" lon="5.92747">
        <ele>334.3</ele>
        <time>2026-05-24T14:33:32.000Z</time>
      </trkpt>
      <trkpt lat="43.39733" lon="5.9276">
        <ele>334</ele>
        <time>2026-05-24T14:33:41.000Z</time>
      </trkpt>
      <trkpt lat="43.39732" lon="5.92773">
        <ele>333.4</ele>
        <time>2026-05-24T14:33:49.000Z</time>
      </trkpt>
      <trkpt lat="43.39727" lon="5.92784">
        <ele>331.4</ele>
        <time>2026-05-24T14:34:09.000Z</time>
      </trkpt>
      <trkpt lat="43.3972" lon="5.92793">
        <ele>331.2</ele>
        <time>2026-05-24T14:34:19.000Z</time>
      </trkpt>
      <trkpt lat="43.39718" lon="5.92805">
        <ele>331.4</ele>
        <time>2026-05-24T14:34:35.000Z</time>
      </trkpt>
      <trkpt lat="43.39709" lon="5.92808">
        <ele>332.6</ele>
        <time>2026-05-24T14:34:51.000Z</time>
      </trkpt>
      <trkpt lat="43.39708" lon="5.92809">
        <ele>332.9</ele>
        <time>2026-05-24T14:35:04.000Z</time>
      </trkpt>
      <trkpt lat="43.39708" lon="5.92811">
        <ele>332.9</ele>
        <time>2026-05-24T14:35:27.000Z</time>
      </trkpt>
      <trkpt lat="43.39708" lon="5.92812">
        <ele>332.9</ele>
        <time>2026-05-24T14:35:41.000Z</time>
      </trkpt>
      <trkpt lat="43.39704" lon="5.92816">
        <ele>333.1</ele>
        <time>2026-05-24T14:37:16.000Z</time>
      </trkpt>
      <trkpt lat="43.39695" lon="5.92813">
        <ele>333.1</ele>
        <time>2026-05-24T14:37:30.000Z</time>
      </trkpt>
      <trkpt lat="43.39686" lon="5.92812">
        <ele>333.2</ele>
        <time>2026-05-24T14:37:44.000Z</time>
      </trkpt>
      <trkpt lat="43.39677" lon="5.92817">
        <ele>332.8</ele>
        <time>2026-05-24T14:37:56.000Z</time>
      </trkpt>
      <trkpt lat="43.39668" lon="5.92821">
        <ele>331.3</ele>
        <time>2026-05-24T14:38:08.000Z</time>
      </trkpt>
      <trkpt lat="43.39661" lon="5.92829">
        <ele>329.5</ele>
        <time>2026-05-24T14:38:26.000Z</time>
      </trkpt>
      <trkpt lat="43.39654" lon="5.92838">
        <ele>328</ele>
        <time>2026-05-24T14:38:38.000Z</time>
      </trkpt>
      <trkpt lat="43.39647" lon="5.92846">
        <ele>326.3</ele>
        <time>2026-05-24T14:38:50.000Z</time>
      </trkpt>
      <trkpt lat="43.39641" lon="5.92855">
        <ele>325.3</ele>
        <time>2026-05-24T14:39:04.000Z</time>
      </trkpt>
      <trkpt lat="43.39634" lon="5.92864">
        <ele>324.4</ele>
        <time>2026-05-24T14:39:14.000Z</time>
      </trkpt>
      <trkpt lat="43.39627" lon="5.92873">
        <ele>324.6</ele>
        <time>2026-05-24T14:39:32.000Z</time>
      </trkpt>
      <trkpt lat="43.39619" lon="5.9288">
        <ele>325.9</ele>
        <time>2026-05-24T14:39:44.000Z</time>
      </trkpt>
      <trkpt lat="43.39611" lon="5.92886">
        <ele>328.5</ele>
        <time>2026-05-24T14:39:59.000Z</time>
      </trkpt>
      <trkpt lat="43.39604" lon="5.92895">
        <ele>331.1</ele>
        <time>2026-05-24T14:40:21.000Z</time>
      </trkpt>
      <trkpt lat="43.39601" lon="5.92907">
        <ele>332.2</ele>
        <time>2026-05-24T14:40:30.000Z</time>
      </trkpt>
      <trkpt lat="43.39603" lon="5.92919">
        <ele>332.9</ele>
        <time>2026-05-24T14:40:36.000Z</time>
      </trkpt>
      <trkpt lat="43.39605" lon="5.92932">
        <ele>333.7</ele>
        <time>2026-05-24T14:40:48.000Z</time>
      </trkpt>
      <trkpt lat="43.39605" lon="5.92945">
        <ele>334</ele>
        <time>2026-05-24T14:40:57.000Z</time>
      </trkpt>
      <trkpt lat="43.39607" lon="5.92958">
        <ele>334</ele>
        <time>2026-05-24T14:41:06.000Z</time>
      </trkpt>
      <trkpt lat="43.39608" lon="5.92971">
        <ele>333.8</ele>
        <time>2026-05-24T14:41:17.000Z</time>
      </trkpt>
      <trkpt lat="43.3961" lon="5.92984">
        <ele>333.5</ele>
        <time>2026-05-24T14:41:28.000Z</time>
      </trkpt>
      <trkpt lat="43.39611" lon="5.92996">
        <ele>333</ele>
        <time>2026-05-24T14:41:37.000Z</time>
      </trkpt>
      <trkpt lat="43.39609" lon="5.93009">
        <ele>332.3</ele>
        <time>2026-05-24T14:41:47.000Z</time>
      </trkpt>
      <trkpt lat="43.3961" lon="5.93022">
        <ele>331.7</ele>
        <time>2026-05-24T14:41:54.000Z</time>
      </trkpt>
      <trkpt lat="43.39607" lon="5.93035">
        <ele>331.1</ele>
        <time>2026-05-24T14:42:06.000Z</time>
      </trkpt>
      <trkpt lat="43.39601" lon="5.93045">
        <ele>330.4</ele>
        <time>2026-05-24T14:42:19.000Z</time>
      </trkpt>
      <trkpt lat="43.396" lon="5.93058">
        <ele>329.5</ele>
        <time>2026-05-24T14:42:29.000Z</time>
      </trkpt>
      <trkpt lat="43.39598" lon="5.9307">
        <ele>328.2</ele>
        <time>2026-05-24T14:42:40.000Z</time>
      </trkpt>
      <trkpt lat="43.39594" lon="5.93083">
        <ele>327.4</ele>
        <time>2026-05-24T14:42:48.000Z</time>
      </trkpt>
      <trkpt lat="43.39591" lon="5.93096">
        <ele>326.4</ele>
        <time>2026-05-24T14:42:58.000Z</time>
      </trkpt>
      <trkpt lat="43.39589" lon="5.93109">
        <ele>325.5</ele>
        <time>2026-05-24T14:43:11.000Z</time>
      </trkpt>
      <trkpt lat="43.39586" lon="5.93121">
        <ele>324.3</ele>
        <time>2026-05-24T14:43:25.000Z</time>
      </trkpt>
      <trkpt lat="43.39583" lon="5.93133">
        <ele>323.4</ele>
        <time>2026-05-24T14:43:34.000Z</time>
      </trkpt>
      <trkpt lat="43.39578" lon="5.93144">
        <ele>322.6</ele>
        <time>2026-05-24T14:43:45.000Z</time>
      </trkpt>
      <trkpt lat="43.39574" lon="5.93155">
        <ele>321.5</ele>
        <time>2026-05-24T14:43:59.000Z</time>
      </trkpt>
      <trkpt lat="43.39568" lon="5.93165">
        <ele>320.4</ele>
        <time>2026-05-24T14:44:10.000Z</time>
      </trkpt>
      <trkpt lat="43.39562" lon="5.93175">
        <ele>319.4</ele>
        <time>2026-05-24T14:44:19.000Z</time>
      </trkpt>
      <trkpt lat="43.39555" lon="5.93185">
        <ele>318</ele>
        <time>2026-05-24T14:44:32.000Z</time>
      </trkpt>
      <trkpt lat="43.39548" lon="5.93194">
        <ele>316.5</ele>
        <time>2026-05-24T14:44:46.000Z</time>
      </trkpt>
      <trkpt lat="43.39541" lon="5.93202">
        <ele>315.3</ele>
        <time>2026-05-24T14:44:56.000Z</time>
      </trkpt>
      <trkpt lat="43.39532" lon="5.93205">
        <ele>314.7</ele>
        <time>2026-05-24T14:45:08.000Z</time>
      </trkpt>
      <trkpt lat="43.39523" lon="5.93208">
        <ele>314.3</ele>
        <time>2026-05-24T14:45:19.000Z</time>
      </trkpt>
      <trkpt lat="43.39516" lon="5.93218">
        <ele>313.5</ele>
        <time>2026-05-24T14:45:35.000Z</time>
      </trkpt>
      <trkpt lat="43.39513" lon="5.9323">
        <ele>311.9</ele>
        <time>2026-05-24T14:45:48.000Z</time>
      </trkpt>
      <trkpt lat="43.39515" lon="5.93243">
        <ele>310.4</ele>
        <time>2026-05-24T14:46:00.000Z</time>
      </trkpt>
      <trkpt lat="43.39513" lon="5.93255">
        <ele>307.1</ele>
        <time>2026-05-24T14:46:20.000Z</time>
      </trkpt>
      <trkpt lat="43.39515" lon="5.93267">
        <ele>304.8</ele>
        <time>2026-05-24T14:46:36.000Z</time>
      </trkpt>
      <trkpt lat="43.39519" lon="5.93279">
        <ele>303.5</ele>
        <time>2026-05-24T14:46:50.000Z</time>
      </trkpt>
      <trkpt lat="43.39523" lon="5.93291">
        <ele>301.5</ele>
        <time>2026-05-24T14:47:03.000Z</time>
      </trkpt>
      <trkpt lat="43.39525" lon="5.93303">
        <ele>298.9</ele>
        <time>2026-05-24T14:47:20.000Z</time>
      </trkpt>
      <trkpt lat="43.39525" lon="5.93317">
        <ele>298.2</ele>
        <time>2026-05-24T14:47:32.000Z</time>
      </trkpt>
      <trkpt lat="43.39529" lon="5.9333">
        <ele>297.1</ele>
        <time>2026-05-24T14:47:48.000Z</time>
      </trkpt>
      <trkpt lat="43.39525" lon="5.93341">
        <ele>294.2</ele>
        <time>2026-05-24T14:48:05.000Z</time>
      </trkpt>
      <trkpt lat="43.39525" lon="5.93353">
        <ele>292.8</ele>
        <time>2026-05-24T14:48:12.000Z</time>
      </trkpt>
      <trkpt lat="43.39522" lon="5.93366">
        <ele>290.7</ele>
        <time>2026-05-24T14:48:25.000Z</time>
      </trkpt>
      <trkpt lat="43.39517" lon="5.93376">
        <ele>289</ele>
        <time>2026-05-24T14:48:37.000Z</time>
      </trkpt>
      <trkpt lat="43.39512" lon="5.93387">
        <ele>288</ele>
        <time>2026-05-24T14:48:46.000Z</time>
      </trkpt>
      <trkpt lat="43.39508" lon="5.93398">
        <ele>287.4</ele>
        <time>2026-05-24T14:48:56.000Z</time>
      </trkpt>
      <trkpt lat="43.39504" lon="5.93409">
        <ele>286.6</ele>
        <time>2026-05-24T14:49:09.000Z</time>
      </trkpt>
      <trkpt lat="43.39497" lon="5.93417">
        <ele>286.1</ele>
        <time>2026-05-24T14:49:19.000Z</time>
      </trkpt>
      <trkpt lat="43.39492" lon="5.93427">
        <ele>285.7</ele>
        <time>2026-05-24T14:49:33.000Z</time>
      </trkpt>
      <trkpt lat="43.39485" lon="5.93437">
        <ele>285.5</ele>
        <time>2026-05-24T14:49:43.000Z</time>
      </trkpt>
      <trkpt lat="43.39478" lon="5.93445">
        <ele>285.3</ele>
        <time>2026-05-24T14:49:56.000Z</time>
      </trkpt>
      <trkpt lat="43.3947" lon="5.93453">
        <ele>285.2</ele>
        <time>2026-05-24T14:50:06.000Z</time>
      </trkpt>
      <trkpt lat="43.39461" lon="5.93456">
        <ele>285.2</ele>
        <time>2026-05-24T14:50:16.000Z</time>
      </trkpt>
      <trkpt lat="43.39452" lon="5.93454">
        <ele>285.2</ele>
        <time>2026-05-24T14:50:24.000Z</time>
      </trkpt>
      <trkpt lat="43.39442" lon="5.93453">
        <ele>285.1</ele>
        <time>2026-05-24T14:50:37.000Z</time>
      </trkpt>
      <trkpt lat="43.39432" lon="5.93453">
        <ele>285.1</ele>
        <time>2026-05-24T14:50:45.000Z</time>
      </trkpt>
      <trkpt lat="43.39423" lon="5.93453">
        <ele>285.2</ele>
        <time>2026-05-24T14:50:56.000Z</time>
      </trkpt>
      <trkpt lat="43.39414" lon="5.93455">
        <ele>285.2</ele>
        <time>2026-05-24T14:51:05.000Z</time>
      </trkpt>
      <trkpt lat="43.39404" lon="5.93459">
        <ele>285.2</ele>
        <time>2026-05-24T14:51:12.000Z</time>
      </trkpt>
      <trkpt lat="43.39394" lon="5.93461">
        <ele>285.2</ele>
        <time>2026-05-24T14:51:19.000Z</time>
      </trkpt>
      <trkpt lat="43.39386" lon="5.93465">
        <ele>285.3</ele>
        <time>2026-05-24T14:51:27.000Z</time>
      </trkpt>
      <trkpt lat="43.39376" lon="5.93467">
        <ele>285.3</ele>
        <time>2026-05-24T14:51:45.000Z</time>
      </trkpt>
      <trkpt lat="43.39367" lon="5.93466">
        <ele>285.3</ele>
        <time>2026-05-24T14:51:59.000Z</time>
      </trkpt>
      <trkpt lat="43.39357" lon="5.93465">
        <ele>285.3</ele>
        <time>2026-05-24T14:52:07.000Z</time>
      </trkpt>
      <trkpt lat="43.39347" lon="5.93465">
        <ele>285.4</ele>
        <time>2026-05-24T14:52:15.000Z</time>
      </trkpt>
      <trkpt lat="43.39339" lon="5.93466">
        <ele>285.4</ele>
        <time>2026-05-24T14:52:37.000Z</time>
      </trkpt>
      <trkpt lat="43.39338" lon="5.93466">
        <ele>285.4</ele>
        <time>2026-05-24T14:52:41.000Z</time>
      </trkpt>
      <trkpt lat="43.39329" lon="5.93461">
        <ele>285.5</ele>
        <time>2026-05-24T14:52:52.000Z</time>
      </trkpt>
      <trkpt lat="43.3932" lon="5.93457">
        <ele>285.6</ele>
        <time>2026-05-24T14:53:01.000Z</time>
      </trkpt>
      <trkpt lat="43.3931" lon="5.93458">
        <ele>285.7</ele>
        <time>2026-05-24T14:53:12.000Z</time>
      </trkpt>
      <trkpt lat="43.39301" lon="5.93456">
        <ele>285.7</ele>
        <time>2026-05-24T14:53:20.000Z</time>
      </trkpt>
      <trkpt lat="43.39291" lon="5.93455">
        <ele>285.7</ele>
        <time>2026-05-24T14:53:27.000Z</time>
      </trkpt>
      <trkpt lat="43.39282" lon="5.93453">
        <ele>285.6</ele>
        <time>2026-05-24T14:53:37.000Z</time>
      </trkpt>
      <trkpt lat="43.39274" lon="5.93447">
        <ele>285.6</ele>
        <time>2026-05-24T14:53:48.000Z</time>
      </trkpt>
      <trkpt lat="43.39265" lon="5.93446">
        <ele>285.6</ele>
        <time>2026-05-24T14:53:55.000Z</time>
      </trkpt>
      <trkpt lat="43.39256" lon="5.93443">
        <ele>285.6</ele>
        <time>2026-05-24T14:54:06.000Z</time>
      </trkpt>
      <trkpt lat="43.39247" lon="5.93441">
        <ele>285.7</ele>
        <time>2026-05-24T14:54:16.000Z</time>
      </trkpt>
      <trkpt lat="43.39239" lon="5.93434">
        <ele>285.7</ele>
        <time>2026-05-24T14:54:25.000Z</time>
      </trkpt>
      <trkpt lat="43.3923" lon="5.9343">
        <ele>286</ele>
        <time>2026-05-24T14:54:38.000Z</time>
      </trkpt>
      <trkpt lat="43.39221" lon="5.93431">
        <ele>286</ele>
        <time>2026-05-24T14:54:45.000Z</time>
      </trkpt>
      <trkpt lat="43.39212" lon="5.93432">
        <ele>286</ele>
        <time>2026-05-24T14:54:51.000Z</time>
      </trkpt>
      <trkpt lat="43.39202" lon="5.93433">
        <ele>286</ele>
        <time>2026-05-24T14:54:59.000Z</time>
      </trkpt>
      <trkpt lat="43.39193" lon="5.93438">
        <ele>285.9</ele>
        <time>2026-05-24T14:55:06.000Z</time>
      </trkpt>
      <trkpt lat="43.39183" lon="5.93439">
        <ele>285.9</ele>
        <time>2026-05-24T14:55:15.000Z</time>
      </trkpt>
      <trkpt lat="43.39173" lon="5.9344">
        <ele>285.8</ele>
        <time>2026-05-24T14:55:23.000Z</time>
      </trkpt>
      <trkpt lat="43.39164" lon="5.93439">
        <ele>285.8</ele>
        <time>2026-05-24T14:55:31.000Z</time>
      </trkpt>
      <trkpt lat="43.39155" lon="5.93439">
        <ele>285.8</ele>
        <time>2026-05-24T14:55:40.000Z</time>
      </trkpt>
      <trkpt lat="43.39145" lon="5.93435">
        <ele>285.9</ele>
        <time>2026-05-24T14:55:52.000Z</time>
      </trkpt>
      <trkpt lat="43.39136" lon="5.93432">
        <ele>285.9</ele>
        <time>2026-05-24T14:56:00.000Z</time>
      </trkpt>
      <trkpt lat="43.39127" lon="5.93436">
        <ele>286</ele>
        <time>2026-05-24T14:56:09.000Z</time>
      </trkpt>
      <trkpt lat="43.39118" lon="5.93428">
        <ele>286.1</ele>
        <time>2026-05-24T14:56:25.000Z</time>
      </trkpt>
      <trkpt lat="43.39111" lon="5.9342">
        <ele>286.3</ele>
        <time>2026-05-24T14:56:34.000Z</time>
      </trkpt>
      <trkpt lat="43.39102" lon="5.93414">
        <ele>286.6</ele>
        <time>2026-05-24T14:56:44.000Z</time>
      </trkpt>
      <trkpt lat="43.39096" lon="5.93405">
        <ele>287.1</ele>
        <time>2026-05-24T14:56:55.000Z</time>
      </trkpt>
      <trkpt lat="43.39091" lon="5.93394">
        <ele>287.4</ele>
        <time>2026-05-24T14:57:04.000Z</time>
      </trkpt>
      <trkpt lat="43.39087" lon="5.93382">
        <ele>288.5</ele>
        <time>2026-05-24T14:57:16.000Z</time>
      </trkpt>
      <trkpt lat="43.39084" lon="5.93369">
        <ele>289</ele>
        <time>2026-05-24T14:57:26.000Z</time>
      </trkpt>
      <trkpt lat="43.39083" lon="5.93357">
        <ele>288.8</ele>
        <time>2026-05-24T14:57:48.000Z</time>
      </trkpt>
      <trkpt lat="43.39084" lon="5.93344">
        <ele>288.4</ele>
        <time>2026-05-24T14:57:58.000Z</time>
      </trkpt>
      <trkpt lat="43.39089" lon="5.93333">
        <ele>287.9</ele>
        <time>2026-05-24T14:58:06.000Z</time>
      </trkpt>
      <trkpt lat="43.39092" lon="5.93321">
        <ele>287.5</ele>
        <time>2026-05-24T14:58:13.000Z</time>
      </trkpt>
      <trkpt lat="43.39093" lon="5.93308">
        <ele>287.1</ele>
        <time>2026-05-24T14:58:21.000Z</time>
      </trkpt>
      <trkpt lat="43.39092" lon="5.93294">
        <ele>286.9</ele>
        <time>2026-05-24T14:58:29.000Z</time>
      </trkpt>
      <trkpt lat="43.39089" lon="5.93282">
        <ele>286.6</ele>
        <time>2026-05-24T14:58:37.000Z</time>
      </trkpt>
      <trkpt lat="43.39084" lon="5.93271">
        <ele>286.4</ele>
        <time>2026-05-24T14:58:46.000Z</time>
      </trkpt>
      <trkpt lat="43.39079" lon="5.93259">
        <ele>286.2</ele>
        <time>2026-05-24T14:58:56.000Z</time>
      </trkpt>
      <trkpt lat="43.39074" lon="5.93249">
        <ele>286.1</ele>
        <time>2026-05-24T14:59:03.000Z</time>
      </trkpt>
      <trkpt lat="43.39069" lon="5.93236">
        <ele>285.9</ele>
        <time>2026-05-24T14:59:14.000Z</time>
      </trkpt>
      <trkpt lat="43.39064" lon="5.93226">
        <ele>285.9</ele>
        <time>2026-05-24T14:59:23.000Z</time>
      </trkpt>
      <trkpt lat="43.39058" lon="5.93217">
        <ele>285.9</ele>
        <time>2026-05-24T14:59:31.000Z</time>
      </trkpt>
      <trkpt lat="43.39063" lon="5.93206">
        <ele>286.1</ele>
        <time>2026-05-24T14:59:49.000Z</time>
      </trkpt>
      <trkpt lat="43.39071" lon="5.932">
        <ele>287</ele>
        <time>2026-05-24T15:00:03.000Z</time>
      </trkpt>
      <trkpt lat="43.39072" lon="5.93197">
        <ele>288.2</ele>
        <time>2026-05-24T15:00:24.000Z</time>
      </trkpt>
      <trkpt lat="43.39072" lon="5.93195">
        <ele>288.2</ele>
        <time>2026-05-24T15:00:34.000Z</time>
      </trkpt>
      <trkpt lat="43.39071" lon="5.93188">
        <ele>288.6</ele>
        <time>2026-05-24T15:01:09.000Z</time>
      </trkpt>
      <trkpt lat="43.39071" lon="5.93186">
        <ele>288.7</ele>
        <time>2026-05-24T15:01:19.000Z</time>
      </trkpt>
      <trkpt lat="43.39071" lon="5.93185">
        <ele>289.1</ele>
        <time>2026-05-24T15:01:45.000Z</time>
      </trkpt>
      <trkpt lat="43.39071" lon="5.93185">
        <ele>289.1</ele>
        <time>2026-05-24T15:01:45.099Z</time>
      </trkpt>
      <trkpt lat="43.39071" lon="5.93185">
        <ele>289.1</ele>
        <time>2026-05-24T15:01:45.099Z</time>
      </trkpt>
    </trkseg>
  </trk>
</gpx>